[[{"header":{"parameterUnit":"m.s-1","parameterCategory":1,"la1":31.0,"la2":29.5877,"lo1":-88.7671,"lo2":-86.6584,"dy":0.0162,"dx":0.0185,"nx":115,"ny":88,"refTime":"2023-06-22T06:00:00:Z","depth":0,"parameterNumber":2,"parameterNumberName":"U-component_of_WINDS"},"data":[0.0,0.0,0.0,0.0,0.0,0.0,0.0,0.0,0.0,0.0,0.0,0.0,0.0,0.0,0.0,0.0,0.0,0.0,0.0,0.0,0.0,0.0,0.0,0.0,0.0,0.0,0.0,0.0,0.0,0.0,0.0,0.0,0.0,0.0,0.0,0.0,0.0,0.0,0.0,0.0,0.0,0.0,0.0,0.0,0.0,0.0,0.0,0.0,0.0,0.0,0.0,0.0,0.0,0.0,0.0,0.0,0.0,0.0,0.0,0.0,0.0,0.0,0.0,0.0,0.0,0.0,0.0,0.0,0.0,0.0,0.0,0.0,0.0,0.0,0.0,0.0,0.0,0.0,0.0,0.0,0.0,0.0,0.0,0.0,0.0,0.0,0.0,0.0,0.0,0.0,0.0,0.0,0.0,0.0,0.0,0.0,0.0,0.0,0.0,0.0,0.0,0.0,0.0,0.0,0.0,0.0,0.0,0.0,0.0,0.0,0.0,0.0,0.0,0.0,0.0,0.0,0.0,0.0,0.0,0.0,0.0,0.0,0.0,0.0,0.0,0.0,0.0,0.0,0.0,0.0,0.0,0.0,0.0,0.0,0.0,0.0,0.0,0.0,0.0,0.0,0.0,0.0,0.0,0.0,0.0,0.0,0.0,0.0,0.0,0.0,0.0,0.0,0.0,0.0,0.0,0.0,0.0,0.0,0.0,0.0,0.0,0.0,0.0,0.0,0.0,0.0,0.0,0.0,0.0,0.0,0.0,0.0,0.0,0.0,0.0,0.0,0.0,0.0,0.0,0.0,0.0,0.0,0.0,0.0,0.0,0.0,0.0,0.0,0.0,0.0,0.0,0.0,0.0,0.0,0.0,0.0,0.0,0.0,0.0,0.0,0.0,0.0,0.0,0.0,0.0,0.0,0.0,0.0,0.0,0.0,0.0,0.0,0.0,0.0,0.0,0.0,0.0,0.0,0.0,0.0,0.0,0.0,0.0,0.0,0.0,0.0,0.0,0.0,0.0,0.0,0.0,0.0,0.0,0.0,0.0,0.0,0.0,0.0,0.0,0.0,0.0,0.0,0.0,0.0,0.0,0.0,0.0,0.0,0.0,0.0,0.0,0.0,0.0,0.0,0.0,0.0,0.0,0.0,0.0,0.0,0.0,0.0,0.0,0.0,0.0,0.0,0.0,0.0,0.0,0.0,0.0,0.0,0.0,0.0,0.0,0.0,0.0,0.0,0.0,0.0,0.0,0.0,0.0,0.0,0.0,0.0,0.0,0.0,0.0,0.0,0.0,0.0,0.0,0.0,0.0,0.0,0.0,0.0,0.0,0.0,0.0,0.0,0.0,0.0,0.0,0.0,0.0,0.0,0.0,0.0,0.0,0.0,0.0,0.0,0.0,0.0,0.0,0.0,0.0,0.0,0.0,0.0,0.0,0.0,0.0,0.0,0.0,0.0,0.0,0.0,0.0,0.0,0.0,0.0,0.0,0.0,0.0,0.0,0.0,0.0,0.0,0.0,0.0,0.0,0.0,0.0,0.0,0.0,0.0,0.0,0.0,0.0,0.0,0.0,0.0,0.0,0.0,0.0,0.0,0.0,0.0,0.0,0.0,0.0,0.0,0.0,0.0,0.0,0.0,0.0,0.0,0.0,0.0,0.0,0.0,0.0,0.0,0.0,0.0,0.0,0.0,0.0,0.0,0.0,0.0,0.0,0.0,0.0,0.0,0.0,0.0,0.0,0.0,0.0,0.0,0.0,0.0,0.0,0.0,0.0,0.0,0.0,0.0,0.0,0.0,0.0,0.0,0.0,0.0,0.0,0.0,0.0,0.0,0.0,0.0,0.0,0.0,0.0,0.0,0.0,0.0,0.0,0.0,0.0,0.0,0.0,0.0,0.0,0.0,0.0,0.0,0.0,0.0,0.0,0.0,0.0,0.0,0.0,0.0,0.0,0.0,0.0,0.0,0.0,0.0,0.0,0.0,0.0,0.0,0.0,0.0,0.0,0.0,0.0,0.0,0.0,0.0,0.0,0.0,0.0,0.0,0.0,0.0,0.0,0.0,0.0,0.0,0.0,0.0,0.0,0.0,0.0,0.0,0.0,0.0,0.0,0.0,0.0,0.0,0.0,0.0,0.0,0.0,0.0,0.0,0.0,0.0,0.0,0.0,0.0,0.0,0.0,0.0,0.0,0.0,0.0,0.0,0.0,0.0,0.0,0.0,0.0,0.0,0.0,0.0,0.0,0.0,0.0,0.0,0.0,0.0,0.0,0.0,0.0,0.0,0.0,0.0,0.0,0.0,0.0,0.0,0.0,0.0,0.0,0.0,0.0,0.0,0.0,0.0,0.0,0.0,0.0,0.0,0.0,0.0,0.0,0.0,0.0,0.0,0.0,0.0,0.0,0.0,0.0,0.0,0.0,0.0,0.0,0.0,0.0,0.0,0.0,0.0,0.0,0.0,0.0,0.0,0.0,0.0,0.0,0.0,0.0,0.0,0.0,0.0,0.0,0.0,0.0,0.0,0.0,0.0,0.0,0.0,0.0,0.0,0.0,0.0,0.0,0.0,0.0,0.0,0.0,0.0,0.0,0.0,0.0,0.0,0.0,0.0,0.0,0.0,0.0,0.0,0.0,0.0,0.0,0.0,0.0,0.0,0.0,0.0,0.0,0.0,0.0,0.0,0.0,0.0,0.0,0.0,0.0,0.0,0.0,0.0,0.0,0.0,0.0,0.0,0.0,0.0,0.0,0.0,0.0,0.0,0.0,0.0,0.0,0.0,0.0,0.0,0.0,0.0,0.0,0.0,0.0,0.0,0.0,0.0,0.0,0.0,0.0,0.0,0.0,0.0,0.0,0.0,0.0,0.0,0.0,0.0,0.0,0.0,0.0,0.0,0.0,0.0,0.0,0.0,0.0,0.0,0.0,0.0,0.0,0.0,0.0,0.0,0.0,0.0,0.0,0.0,0.0,0.0,0.0,0.0,0.0,0.0,0.0,0.0,0.0,0.0,0.0,0.0,0.0,0.0,0.0,0.0,0.0,0.0,0.0,0.0,0.0,0.0,0.0,0.0,0.0,0.0,0.0,0.0,0.0,0.0,0.0,0.0,0.0,0.0,0.0,0.0,0.0,0.0,0.0,0.0,0.0,0.0,0.0,0.0,0.0,0.0,0.0,0.0,0.0,0.0,0.0,0.0,0.0,0.0,0.0,0.0,0.0,0.0,0.0,0.0,0.0,0.0,0.0,0.0,0.0,0.0,0.0,0.0,0.0,0.0,0.0,0.0,0.0,0.0,0.0,0.0,0.0,0.0,0.0,0.0,0.0,0.0,0.0,0.0,0.0,0.0,0.0,0.0,0.0,0.0,0.0,0.0,0.0,0.0,0.0,0.0,0.0,0.0,0.0,0.0,0.0,0.0,0.0,0.0,0.0,0.0,0.0,0.0,0.0,0.0,0.0,0.0,0.0,0.0,0.0,0.0,0.0,0.0,0.0,0.0,0.0,0.0,0.0,0.0,0.0,0.0,0.0,0.0,0.0,0.0,0.0,0.0,0.0,0.0,0.0,0.0,0.0,0.0,0.0,0.0,0.0,0.0,0.0,0.0,0.0,0.0,0.0,0.0,0.0,0.0,0.0,0.0,0.0,0.0,0.0,0.0,0.0,0.0,0.0,0.0,0.0,0.0,0.0,0.0,0.0,0.0,0.0,0.0,0.0,0.0,0.0,0.0,0.0,0.0,0.0,0.0,0.0,0.0,0.0,0.0,0.0,0.0,0.0,0.0,0.0,0.0,0.0,0.0,0.0,0.0,0.0,0.0,0.0,0.0,0.0,0.0,0.0,0.0,0.0,0.0,0.0,0.0,0.0,0.0,0.0,0.0,0.0,0.0,0.0,0.0,0.0,0.0,0.0,0.0,0.0,0.0,0.0,0.0,0.0,0.0,0.0,0.0,0.0,0.0,0.0,0.0,0.0,0.0,0.0,0.0,0.0,0.0,0.0,0.0,0.0,0.0,0.0,0.0,0.0,0.0,0.0,0.0,0.0,0.0,0.0,0.0,0.0,0.0,0.0,0.0,0.0,0.0,0.0,0.0,0.0,0.0,0.0,0.0,0.0,0.0,0.0,0.0,0.0,0.0,0.0,0.0,0.0,0.0,0.0,0.0,0.0,0.0,0.0,0.0,0.0,0.0,0.0,0.0,0.0,0.0,0.0,0.0,0.0,0.0,0.0,0.0,0.0,0.0,0.0,0.0,0.0,0.0,0.0,0.0,0.0,0.0,0.0,-1.4111,0.0,0.0,0.0,0.0,0.0,0.0,0.0,0.0,0.0,0.0,0.0,0.0,0.0,0.0,0.0,0.0,0.0,0.0,0.0,0.0,0.0,0.0,0.0,0.0,0.0,0.0,0.0,0.0,0.0,0.0,0.0,0.0,0.0,0.0,0.0,0.0,0.0,0.0,0.0,0.0,0.0,0.0,0.0,0.0,0.0,0.0,0.0,0.0,0.0,0.0,0.0,0.0,0.0,0.0,0.0,0.0,0.0,0.0,0.0,0.0,0.0,0.0,0.0,0.0,0.0,0.0,0.0,0.0,0.0,0.0,0.0,0.0,0.0,0.0,0.0,0.0,0.0,0.0,0.0,0.0,0.0,0.0,0.0,0.0,0.0,0.0,0.0,0.0,0.0,0.0,0.0,0.0,0.0,0.0,0.0,0.0,0.0,0.0,0.0,0.0,0.0,0.0,0.0,0.0,0.0,0.0,0.0,0.0,0.0,0.0,-1.3973,-1.3766,-1.48,-1.5139,-1.4578,0.0,0.0,0.0,0.0,0.0,0.0,0.0,0.0,0.0,0.0,0.0,0.0,0.0,0.0,0.0,0.0,0.0,0.0,0.0,0.0,0.0,0.0,0.0,0.0,0.0,0.0,0.0,0.0,0.0,0.0,0.0,0.0,0.0,0.0,0.0,0.0,0.0,0.0,0.0,0.0,0.0,0.0,0.0,0.0,0.0,0.0,0.0,0.0,0.0,0.0,0.0,0.0,0.0,0.0,0.0,0.0,0.0,0.0,0.0,0.0,0.0,0.0,0.0,0.0,0.0,0.0,0.0,0.0,0.0,0.0,0.0,0.0,0.0,0.0,0.0,0.0,0.0,0.0,0.0,0.0,0.0,0.0,0.0,0.0,0.0,0.0,0.0,0.0,0.0,0.0,0.0,0.0,0.0,0.0,0.0,0.0,0.0,0.0,0.0,0.0,0.0,0.0,0.0,0.0,0.0,0.0,0.0,0.0,0.0,0.0,0.0,0.0,-1.6019,-1.6046,-1.5086,0.0,0.0,0.0,0.0,0.0,0.0,0.0,0.0,0.0,0.0,0.0,0.0,0.0,0.0,0.0,0.0,0.0,0.0,0.0,0.0,0.0,0.0,0.0,0.0,0.0,0.0,0.0,0.0,0.0,0.0,0.0,0.0,0.0,0.0,0.0,0.0,0.0,0.0,0.0,0.0,0.0,0.0,0.0,0.0,0.0,0.0,0.0,0.0,0.0,0.0,0.0,0.0,0.0,0.0,0.0,0.0,0.0,0.0,0.0,0.0,0.0,0.0,0.0,0.0,0.0,0.0,0.0,0.0,0.0,0.0,0.0,0.0,0.0,0.0,0.0,0.0,0.0,0.0,0.0,0.0,0.0,0.0,0.0,0.0,0.0,0.0,0.0,0.0,0.0,0.0,0.0,0.0,0.0,0.0,0.0,0.0,0.0,0.0,0.0,0.0,0.0,0.0,0.0,0.0,0.0,0.0,0.0,0.0,0.0,0.0,-1.5943,-1.7777,-1.7983,0.0,-1.6416,0.0,0.0,0.0,0.0,0.0,0.0,0.0,0.0,0.0,0.0,0.0,0.0,0.0,0.0,0.0,0.0,0.0,0.0,0.0,0.0,0.0,0.0,0.0,0.0,0.0,0.0,0.0,0.0,0.0,0.0,0.0,0.0,0.0,0.0,0.0,0.0,0.0,0.0,0.0,0.0,0.0,0.0,0.0,0.0,0.0,0.0,0.0,0.0,0.0,0.0,0.0,0.0,0.0,0.0,0.0,0.0,0.0,0.0,0.0,0.0,0.0,0.0,0.0,0.0,0.0,0.0,0.0,0.0,0.0,0.0,0.0,0.0,0.0,0.0,0.0,0.0,0.0,0.0,0.0,0.0,0.0,0.0,0.0,0.0,0.0,0.0,0.0,0.0,0.0,0.0,0.0,0.0,0.0,0.0,0.0,0.0,0.0,0.0,0.0,0.0,0.0,0.0,0.0,0.0,0.0,0.0,0.0,0.0,0.0,0.0,-1.686,-1.8826,-1.9027,-1.8418,0.0,0.0,0.0,0.0,0.0,0.0,0.0,0.0,0.0,0.0,0.0,0.0,0.0,0.0,0.0,0.0,0.0,0.0,0.0,0.0,0.0,0.0,0.0,0.0,0.0,0.0,0.0,0.0,0.0,0.0,0.0,0.0,0.0,0.0,0.0,0.0,0.0,0.0,0.0,0.0,0.0,0.0,0.0,0.0,0.0,0.0,0.0,0.0,0.0,0.0,0.0,0.0,0.0,0.0,0.0,0.0,0.0,0.0,0.0,0.0,0.0,0.0,0.0,0.0,0.0,0.0,0.0,0.0,0.0,0.0,0.0,0.0,0.0,0.0,0.0,0.0,0.0,0.0,0.0,0.0,0.0,0.0,0.0,0.0,0.0,0.0,0.0,0.0,0.0,0.0,0.0,0.0,0.0,0.0,0.0,0.0,0.0,0.0,0.0,0.0,0.0,0.0,0.0,0.0,0.0,0.0,0.0,0.0,0.0,0.0,-1.6402,-1.7613,-1.9509,-1.9486,-1.8665,-1.7162,0.0,0.0,0.0,0.0,0.0,0.0,0.0,0.0,0.0,0.0,0.0,0.0,0.0,0.0,0.0,0.0,0.0,0.0,0.0,0.0,0.0,0.0,0.0,0.0,0.0,0.0,0.0,0.0,0.0,0.0,0.0,0.0,0.0,0.0,0.0,0.0,0.0,0.0,0.0,0.0,0.0,0.0,0.0,0.0,0.0,0.0,0.0,0.0,0.0,0.0,0.0,0.0,0.0,0.0,0.0,0.0,0.0,0.0,0.0,0.0,0.0,0.0,0.0,0.0,0.0,0.0,0.0,0.0,0.0,0.0,0.0,0.0,0.0,0.0,0.0,0.0,0.0,0.0,0.0,0.0,0.0,0.0,0.0,0.0,0.0,0.0,0.0,0.0,0.0,0.0,0.0,0.0,0.0,0.0,0.0,0.0,0.0,0.0,0.0,0.0,0.0,0.0,0.0,0.0,0.0,0.0,0.0,0.0,-1.9155,-1.8062,-1.8385,-2.0416,-1.9239,-1.8239,0.0,0.0,0.0,0.0,0.0,0.0,0.0,0.0,0.0,0.0,0.0,0.0,0.0,0.0,0.0,0.0,0.0,0.0,0.0,0.0,0.0,0.0,0.0,0.0,0.0,0.0,0.0,0.0,0.0,0.0,0.0,0.0,0.0,0.0,0.0,0.0,0.0,0.0,0.0,0.0,0.0,0.0,0.0,0.0,0.0,0.0,0.0,0.0,0.0,0.0,0.0,0.0,0.0,0.0,0.0,0.0,0.0,0.0,0.0,0.0,0.0,0.0,0.0,0.0,0.0,0.0,0.0,0.0,0.0,0.0,0.0,0.0,0.0,0.0,0.0,0.0,0.0,0.0,0.0,0.0,0.0,0.0,0.0,0.0,0.0,0.0,0.0,0.0,0.0,0.0,0.0,0.0,0.0,0.0,0.0,0.0,0.0,0.0,0.0,0.0,0.0,0.0,0.0,0.0,0.0,0.0,0.0,0.0,0.0,-1.6582,-1.8232,-1.9672,-2.0952,-1.9915,-1.9003,0.0,0.0,0.0,0.0,0.0,0.0,0.0,0.0,0.0,0.0,0.0,0.0,0.0,0.0,0.0,0.0,0.0,0.0,0.0,0.0,0.0,0.0,0.0,0.0,0.0,0.0,0.0,0.0,0.0,0.0,0.0,0.0,0.0,0.0,0.0,0.0,0.0,0.0,0.0,0.0,0.0,0.0,0.0,0.0,0.0,0.0,0.0,0.0,0.0,0.0,0.0,0.0,0.0,0.0,0.0,0.0,0.0,0.0,0.0,0.0,0.0,0.0,0.0,0.0,0.0,0.0,0.0,0.0,0.0,0.0,0.0,0.0,0.0,0.0,0.0,0.0,0.0,0.0,0.0,0.0,0.0,0.0,0.0,0.0,0.0,0.0,0.0,0.0,0.0,0.0,0.0,0.0,0.0,0.0,0.0,0.0,0.0,0.0,0.0,0.0,0.0,0.0,0.0,0.0,0.0,0.0,0.0,0.0,0.0,-1.6292,0.0,-2.0843,-2.0927,-1.9973,-1.8956,0.0,0.0,0.0,0.0,0.0,0.0,0.0,0.0,0.0,0.0,0.0,0.0,0.0,0.0,0.0,0.0,0.0,0.0,0.0,0.0,0.0,0.0,0.0,0.0,0.0,0.0,0.0,0.0,0.0,0.0,0.0,0.0,0.0,0.0,0.0,0.0,0.0,0.0,0.0,0.0,0.0,0.0,0.0,0.0,0.0,0.0,0.0,0.0,0.0,0.0,0.0,0.0,0.0,0.0,0.0,0.0,0.0,0.0,0.0,0.0,0.0,0.0,0.0,0.0,0.0,0.0,0.0,0.0,0.0,0.0,0.0,0.0,0.0,0.0,0.0,0.0,0.0,0.0,0.0,0.0,0.0,0.0,0.0,0.0,0.0,0.0,0.0,0.0,0.0,0.0,0.0,0.0,0.0,0.0,0.0,0.0,0.0,0.0,0.0,0.0,0.0,0.0,0.0,0.0,0.0,0.0,0.0,0.0,-1.5874,-1.9027,-2.1108,-2.1563,-2.0449,-1.9396,-1.7968,0.0,0.0,0.0,0.0,0.0,0.0,0.0,0.0,0.0,0.0,0.0,0.0,0.0,0.0,0.0,0.0,0.0,0.0,0.0,0.0,0.0,0.0,0.0,0.0,0.0,0.0,0.0,0.0,0.0,0.0,0.0,0.0,0.0,0.0,0.0,0.0,0.0,0.0,0.0,0.0,0.0,0.0,0.0,0.0,0.0,0.0,0.0,0.0,0.0,0.0,0.0,0.0,0.0,0.0,0.0,0.0,0.0,0.0,0.0,0.0,0.0,0.0,0.0,0.0,0.0,0.0,0.0,0.0,0.0,0.0,0.0,0.0,0.0,0.0,0.0,0.0,0.0,0.0,0.0,0.0,0.0,0.0,0.0,0.0,0.0,0.0,0.0,0.0,0.0,0.0,0.0,0.0,0.0,0.0,0.0,0.0,0.0,0.0,0.0,0.0,0.0,0.0,0.0,0.0,0.0,0.0,0.0,0.0,0.0,-1.7074,-1.853,-2.004,-2.1466,-1.9408,-1.8511,0.0,0.0,0.0,0.0,0.0,0.0,0.0,0.0,0.0,0.0,0.0,0.0,0.0,0.0,0.0,0.0,0.0,0.0,0.0,0.0,0.0,0.0,0.0,0.0,0.0,0.0,0.0,0.0,0.0,0.0,0.0,0.0,0.0,0.0,0.0,0.0,0.0,0.0,0.0,0.0,0.0,0.0,0.0,0.0,0.0,0.0,0.0,0.0,0.0,0.0,0.0,0.0,0.0,0.0,0.0,0.0,0.0,0.0,0.0,0.0,0.0,0.0,0.0,0.0,0.0,0.0,0.0,0.0,0.0,0.0,0.0,0.0,0.0,0.0,0.0,0.0,0.0,0.0,0.0,0.0,0.0,0.0,0.0,0.0,0.0,0.0,0.0,0.0,0.0,0.0,0.0,0.0,0.0,0.0,0.0,0.0,0.0,0.0,0.0,0.0,0.0,0.0,0.0,0.0,0.0,0.0,0.0,0.0,0.0,-1.735,-1.8955,-2.0557,-2.2143,-2.0093,-1.9007,-1.8982,0.0,0.0,0.0,0.0,0.0,0.0,0.0,0.0,0.0,0.0,0.0,0.0,0.0,0.0,0.0,0.0,0.0,0.0,0.0,0.0,0.0,0.0,0.0,0.0,0.0,0.0,0.0,0.0,0.0,0.0,0.0,0.0,0.0,0.0,0.0,0.0,0.0,0.0,0.0,0.0,0.0,0.0,0.0,0.0,0.0,0.0,0.0,0.0,0.0,0.0,0.0,0.0,0.0,0.0,0.0,0.0,0.0,0.0,0.0,0.0,0.0,0.0,0.0,0.0,0.0,0.0,0.0,0.0,0.0,0.0,0.0,0.0,0.0,0.0,0.0,0.0,0.0,0.0,0.0,0.0,0.0,0.0,0.0,0.0,0.0,0.0,0.0,0.0,0.0,0.0,0.0,0.0,0.0,0.0,0.0,0.0,0.0,0.0,0.0,0.0,0.0,0.0,0.0,0.0,0.0,0.0,0.0,0.0,-1.9421,-2.1795,-2.2769,-2.2315,-2.1262,-1.9444,0.0,0.0,0.0,0.0,0.0,0.0,0.0,0.0,0.0,0.0,0.0,0.0,0.0,0.0,0.0,0.0,0.0,0.0,0.0,0.0,0.0,0.0,0.0,0.0,0.0,0.0,0.0,0.0,0.0,0.0,0.0,0.0,0.0,0.0,0.0,0.0,0.0,0.0,0.0,0.0,0.0,0.0,0.0,0.0,0.0,0.0,0.0,0.0,0.0,0.0,0.0,0.0,0.0,0.0,0.0,0.0,0.0,0.0,0.0,0.0,0.0,0.0,0.0,0.0,0.0,0.0,0.0,0.0,0.0,0.0,0.0,0.0,0.0,0.0,0.0,0.0,0.0,0.0,0.0,0.0,0.0,0.0,0.0,0.0,0.0,0.0,0.0,0.0,0.0,0.0,0.0,0.0,0.0,0.0,0.0,0.0,0.0,0.0,0.0,0.0,0.0,0.0,0.0,0.0,0.0,0.0,0.0,0.0,0.0,-2.0801,-2.2608,-2.3457,-2.3213,-2.1088,-1.9688,0.0,0.0,0.0,0.0,0.0,0.0,0.0,0.0,0.0,0.0,0.0,0.0,0.0,0.0,0.0,0.0,0.0,0.0,0.0,0.0,0.0,0.0,0.0,0.0,0.0,0.0,0.0,0.0,0.0,0.0,0.0,0.0,0.0,0.0,0.0,0.0,0.0,0.0,0.0,0.0,0.0,0.0,0.0,0.0,0.0,0.0,0.0,0.0,0.0,0.0,0.0,0.0,0.0,0.0,0.0,0.0,0.0,0.0,0.0,0.0,0.0,0.0,0.0,0.0,0.0,0.0,0.0,0.0,0.0,0.0,0.0,0.0,0.0,0.0,0.0,0.0,0.0,0.0,0.0,0.0,0.0,0.0,0.0,0.0,0.0,0.0,0.0,0.0,0.0,0.0,0.0,0.0,0.0,0.0,0.0,0.0,0.0,0.0,0.0,0.0,0.0,0.0,0.0,0.0,0.0,0.0,0.0,0.0,-1.9479,-2.1468,-2.3143,-2.3846,-2.3551,-2.1974,-2.043,0.0,0.0,0.0,0.0,0.0,0.0,0.0,0.0,0.0,0.0,0.0,0.0,0.0,0.0,0.0,0.0,0.0,0.0,0.0,0.0,0.0,0.0,0.0,0.0,0.0,0.0,0.0,0.0,0.0,0.0,0.0,0.0,0.0,0.0,0.0,0.0,0.0,0.0,0.0,0.0,0.0,0.0,0.0,0.0,0.0,0.0,0.0,0.0,0.0,0.0,0.0,0.0,0.0,0.0,0.0,0.0,0.0,0.0,0.0,0.0,0.0,0.0,0.0,0.0,0.0,0.0,0.0,0.0,0.0,0.0,0.0,0.0,0.0,0.0,0.0,0.0,0.0,0.0,0.0,0.0,0.0,0.0,0.0,0.0,0.0,0.0,0.0,0.0,0.0,0.0,0.0,0.0,0.0,0.0,0.0,0.0,0.0,0.0,0.0,0.0,0.0,0.0,0.0,0.0,0.0,0.0,0.0,0.0,-2.0195,-2.1753,-2.3543,-2.4072,-2.3349,-2.309,-2.1252,0.0,0.0,0.0,0.0,0.0,0.0,0.0,0.0,0.0,0.0,0.0,0.0,0.0,0.0,0.0,0.0,0.0,0.0,0.0,0.0,0.0,0.0,0.0,0.0,0.0,0.0,0.0,0.0,0.0,0.0,0.0,0.0,0.0,0.0,0.0,0.0,0.0,0.0,0.0,0.0,0.0,0.0,0.0,0.0,0.0,0.0,0.0,0.0,0.0,0.0,0.0,0.0,0.0,0.0,0.0,0.0,0.0,0.0,0.0,0.0,0.0,0.0,0.0,0.0,0.0,0.0,0.0,0.0,0.0,0.0,0.0,0.0,0.0,0.0,0.0,0.0,0.0,0.0,0.0,0.0,0.0,0.0,0.0,0.0,0.0,0.0,0.0,0.0,0.0,0.0,0.0,0.0,0.0,0.0,0.0,0.0,0.0,0.0,0.0,0.0,0.0,0.0,0.0,0.0,0.0,0.0,0.0,0.0,-2.1197,-2.233,-2.3874,-2.4169,-2.3214,-2.1808,-1.9944,0.0,0.0,0.0,0.0,0.0,0.0,0.0,0.0,0.0,0.0,0.0,0.0,0.0,0.0,0.0,0.0,0.0,0.0,0.0,0.0,0.0,0.0,0.0,0.0,0.0,0.0,0.0,0.0,0.0,0.0,0.0,0.0,0.0,0.0,0.0,0.0,0.0,0.0,0.0,0.0,0.0,0.0,0.0,0.0,0.0,0.0,0.0,0.0,-2.302,0.0,0.0,0.0,0.0,0.0,0.0,0.0,0.0,0.0,0.0,0.0,0.0,0.0,0.0,0.0,0.0,0.0,0.0,0.0,0.0,0.0,0.0,0.0,0.0,0.0,0.0,0.0,0.0,0.0,0.0,0.0,0.0,0.0,0.0,0.0,0.0,0.0,0.0,0.0,0.0,0.0,0.0,0.0,0.0,0.0,0.0,0.0,0.0,0.0,0.0,0.0,0.0,0.0,0.0,0.0,0.0,0.0,0.0,0.0,-2.1744,-2.2745,-2.3813,-2.3999,-2.31,-2.1273,-1.9414,0.0,0.0,0.0,0.0,0.0,0.0,0.0,0.0,0.0,0.0,0.0,0.0,0.0,0.0,0.0,0.0,0.0,0.0,0.0,0.0,0.0,0.0,0.0,0.0,0.0,0.0,0.0,0.0,0.0,0.0,0.0,0.0,0.0,0.0,0.0,0.0,0.0,0.0,0.0,0.0,0.0,0.0,0.0,0.0,0.0,0.0,0.0,0.0,0.0,0.0,0.0,0.0,0.0,0.0,0.0,0.0,0.0,0.0,0.0,0.0,0.0,0.0,0.0,0.0,0.0,0.0,0.0,0.0,0.0,0.0,0.0,0.0,0.0,0.0,0.0,0.0,0.0,0.0,0.0,0.0,0.0,0.0,0.0,0.0,0.0,0.0,0.0,0.0,0.0,0.0,0.0,0.0,0.0,0.0,0.0,0.0,0.0,0.0,0.0,0.0,0.0,0.0,0.0,0.0,0.0,0.0,0.0,-2.0358,-2.2058,-2.3206,-2.3783,-2.3734,-2.3047,-2.113,-1.9374,-1.7703,0.0,0.0,0.0,0.0,0.0,0.0,0.0,0.0,0.0,0.0,0.0,0.0,0.0,0.0,0.0,0.0,0.0,0.0,0.0,0.0,0.0,0.0,0.0,0.0,0.0,0.0,0.0,0.0,0.0,0.0,0.0,0.0,0.0,0.0,0.0,0.0,0.0,0.0,-1.234,-1.4591,0.0,0.0,0.0,0.0,0.0,0.0,0.0,0.0,-2.478,0.0,0.0,0.0,0.0,0.0,0.0,0.0,0.0,0.0,0.0,0.0,0.0,0.0,0.0,0.0,0.0,0.0,0.0,0.0,0.0,0.0,0.0,0.0,0.0,0.0,0.0,0.0,0.0,0.0,0.0,0.0,0.0,0.0,0.0,0.0,0.0,0.0,0.0,0.0,0.0,0.0,0.0,0.0,0.0,0.0,0.0,0.0,0.0,0.0,0.0,0.0,0.0,0.0,0.0,0.0,0.0,-2.1074,-2.1155,-2.2261,-2.4384,-2.4297,-2.3758,-2.2793,-2.1561,-1.9882,-1.7664,0.0,0.0,0.0,0.0,0.0,0.0,0.0,0.0,0.0,0.0,0.0,0.0,0.0,0.0,0.0,0.0,0.0,0.0,0.0,0.0,0.0,0.0,0.0,0.0,0.0,0.0,0.0,0.0,0.0,0.0,0.0,0.0,0.0,0.0,0.0,0.0,0.0,0.0,0.0,-1.7523,-1.9163,0.0,0.0,0.0,0.0,0.0,0.0,0.0,0.0,-2.6169,0.0,0.0,0.0,0.0,0.0,0.0,0.0,0.0,0.0,0.0,0.0,0.0,0.0,0.0,0.0,0.0,0.0,0.0,0.0,0.0,0.0,0.0,0.0,0.0,0.0,0.0,0.0,0.0,0.0,0.0,0.0,0.0,0.0,0.0,0.0,0.0,0.0,0.0,0.0,0.0,0.0,0.0,0.0,0.0,0.0,0.0,0.0,0.0,0.0,0.0,0.0,0.0,0.0,0.0,0.0,-2.0153,-2.1162,-2.2391,-2.3938,-2.3965,-2.3598,-2.2684,-2.109,-1.9395,0.0,0.0,0.0,0.0,0.0,0.0,0.0,0.0,0.0,0.0,0.0,0.0,0.0,0.0,0.0,0.0,0.0,0.0,0.0,0.0,0.0,0.0,0.0,0.0,0.0,0.0,0.0,0.0,0.0,0.0,0.0,0.0,0.0,0.0,0.0,0.0,0.0,0.0,0.0,0.0,-1.9451,-2.0973,-2.2169,0.0,0.0,0.0,0.0,0.0,0.0,-2.6427,-2.619,0.0,0.0,0.0,0.0,0.0,0.0,0.0,0.0,0.0,0.0,0.0,0.0,0.0,0.0,0.0,0.0,0.0,0.0,0.0,0.0,0.0,0.0,0.0,0.0,0.0,0.0,0.0,0.0,0.0,0.0,0.0,0.0,0.0,0.0,0.0,0.0,0.0,0.0,0.0,0.0,0.0,0.0,0.0,0.0,0.0,0.0,0.0,0.0,0.0,0.0,0.0,0.0,0.0,0.0,0.0,-1.891,-2.0561,-2.2011,-2.3233,-2.3471,-2.3213,-2.2492,-2.0615,-1.9008,0.0,0.0,0.0,0.0,0.0,0.0,0.0,0.0,0.0,0.0,0.0,0.0,0.0,0.0,0.0,0.0,0.0,0.0,0.0,0.0,0.0,0.0,0.0,0.0,0.0,0.0,0.0,0.0,0.0,0.0,0.0,0.0,0.0,0.0,0.0,0.0,0.0,0.0,0.0,0.0,0.0,-2.2889,-2.4152,-2.5144,0.0,0.0,0.0,0.0,-2.6352,-2.668,0.0,0.0,0.0,0.0,0.0,0.0,0.0,0.0,0.0,0.0,0.0,0.0,0.0,0.0,0.0,0.0,0.0,0.0,0.0,0.0,0.0,0.0,0.0,0.0,0.0,0.0,0.0,0.0,0.0,0.0,0.0,0.0,0.0,0.0,0.0,0.0,0.0,0.0,0.0,0.0,0.0,0.0,0.0,0.0,0.0,0.0,0.0,0.0,0.0,0.0,0.0,0.0,0.0,0.0,0.0,0.0,-1.8963,-1.9161,-2.0523,-2.2905,-2.2922,-2.2474,-2.1767,-2.0968,-1.945,0.0,0.0,0.0,0.0,0.0,0.0,0.0,0.0,0.0,0.0,0.0,0.0,0.0,0.0,0.0,0.0,0.0,0.0,0.0,0.0,0.0,0.0,0.0,0.0,0.0,0.0,0.0,0.0,0.0,0.0,0.0,0.0,0.0,0.0,0.0,0.0,0.0,0.0,0.0,0.0,0.0,-2.5296,-2.5631,-2.6281,-2.6695,0.0,0.0,-2.7697,-2.8297,-2.925,0.0,0.0,0.0,0.0,0.0,0.0,0.0,0.0,0.0,0.0,0.0,0.0,0.0,0.0,0.0,0.0,0.0,0.0,0.0,0.0,0.0,0.0,0.0,0.0,0.0,0.0,0.0,0.0,0.0,0.0,0.0,0.0,0.0,0.0,0.0,0.0,0.0,0.0,0.0,0.0,0.0,0.0,0.0,0.0,0.0,0.0,0.0,0.0,0.0,0.0,0.0,0.0,0.0,0.0,0.0,-1.5526,-1.8132,-1.8731,-1.9907,-2.1797,-2.239,-2.2217,-2.1254,-2.0504,-1.9187,0.0,0.0,0.0,0.0,0.0,0.0,0.0,0.0,0.0,0.0,0.0,0.0,0.0,0.0,0.0,0.0,0.0,0.0,0.0,0.0,0.0,0.0,0.0,0.0,0.0,0.0,0.0,0.0,0.0,0.0,0.0,0.0,0.0,0.0,0.0,0.0,0.0,0.0,0.0,0.0,0.0,0.0,-2.6652,-2.7549,0.0,0.0,0.0,-2.8016,-2.8255,0.0,0.0,0.0,0.0,0.0,0.0,0.0,0.0,0.0,0.0,0.0,0.0,0.0,0.0,0.0,0.0,0.0,0.0,0.0,0.0,0.0,0.0,0.0,0.0,0.0,0.0,0.0,0.0,0.0,0.0,0.0,0.0,0.0,0.0,0.0,0.0,0.0,0.0,0.0,0.0,0.0,0.0,0.0,0.0,0.0,0.0,0.0,0.0,0.0,0.0,0.0,0.0,0.0,0.0,0.0,0.0,0.0,-1.7595,-1.8317,-1.9448,-2.1069,-2.1971,-2.1853,-2.0808,-2.0012,0.0,0.0,0.0,0.0,0.0,0.0,0.0,0.0,0.0,0.0,0.0,0.0,0.0,0.0,0.0,0.0,0.0,0.0,0.0,0.0,0.0,0.0,0.0,0.0,0.0,0.0,0.0,-1.3515,0.0,0.0,0.0,0.0,0.0,0.0,0.0,0.0,0.0,0.0,0.0,0.0,0.0,0.0,-2.7058,-2.7747,-2.8655,-2.9154,0.0,0.0,-2.7999,-2.8068,-2.8267,-2.7894,0.0,0.0,0.0,0.0,0.0,0.0,0.0,0.0,0.0,0.0,0.0,0.0,0.0,0.0,0.0,0.0,0.0,0.0,0.0,0.0,0.0,0.0,0.0,0.0,0.0,0.0,0.0,0.0,0.0,0.0,0.0,0.0,0.0,0.0,0.0,0.0,0.0,0.0,0.0,0.0,0.0,0.0,0.0,0.0,0.0,0.0,0.0,0.0,0.0,0.0,0.0,0.0,0.0,0.0,-1.4689,-1.7577,-1.7552,-1.8728,-2.1222,-2.1563,-2.1213,-2.0382,-1.9687,-1.8637,0.0,0.0,0.0,0.0,0.0,0.0,0.0,0.0,0.0,0.0,0.0,0.0,0.0,0.0,0.0,0.0,0.0,0.0,0.0,0.0,0.0,0.0,0.0,0.0,0.0,0.0,0.0,0.0,0.0,0.0,0.0,0.0,0.0,0.0,0.0,0.0,0.0,0.0,0.0,0.0,0.0,-2.8467,-2.9089,-2.9327,-2.9694,0.0,-2.9093,-2.8096,-2.8388,-2.9631,-2.9719,-2.6903,0.0,0.0,0.0,0.0,0.0,0.0,0.0,0.0,0.0,0.0,0.0,0.0,0.0,0.0,0.0,0.0,0.0,0.0,0.0,0.0,0.0,0.0,0.0,0.0,0.0,0.0,0.0,0.0,0.0,0.0,0.0,0.0,0.0,0.0,0.0,0.0,0.0,0.0,0.0,0.0,0.0,0.0,0.0,0.0,0.0,0.0,0.0,0.0,0.0,0.0,0.0,0.0,0.0,-1.4639,-1.7759,-1.7499,-1.8313,-2.0349,-2.1125,-2.1041,-2.018,-1.9226,-1.8271,0.0,0.0,0.0,0.0,0.0,0.0,0.0,0.0,0.0,0.0,0.0,0.0,0.0,0.0,0.0,0.0,0.0,0.0,0.0,0.0,0.0,0.0,0.0,0.0,0.0,0.0,0.0,0.0,-1.5438,-1.6206,-1.6821,0.0,0.0,0.0,0.0,0.0,0.0,0.0,0.0,0.0,0.0,-2.714,-2.8676,-2.9074,0.0,0.0,-2.9386,-2.8743,-2.9012,-2.887,-2.8149,-2.6539,-2.5705,0.0,0.0,0.0,0.0,0.0,0.0,0.0,0.0,0.0,0.0,0.0,0.0,0.0,0.0,0.0,0.0,0.0,0.0,0.0,0.0,0.0,0.0,0.0,0.0,0.0,0.0,0.0,0.0,0.0,0.0,0.0,0.0,0.0,0.0,0.0,0.0,0.0,0.0,0.0,0.0,0.0,0.0,0.0,0.0,0.0,0.0,0.0,0.0,0.0,0.0,0.0,0.0,-1.4673,-1.7588,-1.7,-1.7536,-1.9314,-2.0062,-2.0008,-1.9247,-1.8265,-1.7517,0.0,0.0,0.0,0.0,0.0,0.0,0.0,0.0,0.0,0.0,0.0,0.0,0.0,0.0,0.0,0.0,0.0,0.0,0.0,0.0,0.0,0.0,0.0,0.0,0.0,0.0,0.0,0.0,-1.6517,-1.7341,-1.7665,0.0,0.0,0.0,0.0,0.0,0.0,0.0,0.0,0.0,0.0,-2.6767,-2.8248,-2.8661,-2.9069,-2.9568,-2.8924,-2.8464,-2.8723,-2.7922,-2.6976,-2.5843,0.0,0.0,0.0,0.0,0.0,0.0,0.0,0.0,0.0,0.0,0.0,0.0,0.0,0.0,0.0,0.0,0.0,0.0,0.0,0.0,0.0,0.0,0.0,0.0,0.0,0.0,0.0,0.0,0.0,0.0,-1.9589,0.0,0.0,0.0,0.0,0.0,0.0,0.0,0.0,0.0,0.0,0.0,0.0,0.0,0.0,0.0,0.0,0.0,0.0,0.0,0.0,0.0,0.0,-1.4622,-1.7094,-1.594,-1.6166,-1.7987,-1.7991,-1.7728,-1.7426,-1.6929,-1.6245,-1.5394,0.0,0.0,0.0,0.0,0.0,0.0,0.0,0.0,0.0,0.0,0.0,0.0,0.0,0.0,0.0,0.0,0.0,0.0,0.0,0.0,0.0,0.0,0.0,0.0,0.0,0.0,-1.8085,-1.8151,-1.7975,0.0,0.0,0.0,0.0,0.0,0.0,0.0,0.0,0.0,0.0,-2.6346,-2.82,-2.7984,-2.8215,-2.8418,-2.8477,-2.7645,-2.7004,-2.7026,-2.7195,-2.6671,0.0,0.0,0.0,0.0,0.0,0.0,0.0,0.0,0.0,0.0,0.0,0.0,0.0,0.0,0.0,0.0,0.0,0.0,0.0,0.0,0.0,0.0,0.0,0.0,0.0,0.0,0.0,-2.2237,-2.2536,0.0,0.0,0.0,0.0,0.0,0.0,0.0,0.0,0.0,0.0,0.0,-1.7013,-1.7129,0.0,0.0,0.0,0.0,0.0,0.0,0.0,0.0,0.0,0.0,0.0,0.0,-1.4814,-1.6913,-1.5922,-1.5937,-1.7234,-1.7596,-1.7639,-1.7141,-1.6402,-1.545,-1.4365,0.0,0.0,0.0,0.0,0.0,0.0,0.0,0.0,0.0,0.0,0.0,0.0,0.0,0.0,0.0,0.0,0.0,0.0,0.0,0.0,0.0,0.0,0.0,0.0,0.0,-1.7265,0.0,0.0,0.0,0.0,0.0,0.0,0.0,0.0,0.0,0.0,0.0,-2.297,-2.4172,-2.548,-2.6462,-2.7028,-2.7381,-2.7657,0.0,0.0,0.0,0.0,0.0,0.0,0.0,0.0,0.0,0.0,0.0,0.0,0.0,0.0,-2.6661,-2.5292,-2.4729,-2.4573,-2.507,0.0,0.0,0.0,0.0,0.0,0.0,0.0,0.0,0.0,0.0,0.0,0.0,0.0,0.0,-2.3494,0.0,-2.2421,0.0,0.0,0.0,0.0,0.0,0.0,0.0,0.0,-1.8398,-1.8082,-1.7497,-1.7861,-1.7229,0.0,-1.5794,-1.5327,0.0,0.0,0.0,0.0,0.0,0.0,0.0,0.0,-1.4666,-1.6309,-1.514,-1.498,-1.5948,-1.6257,-1.6368,-1.6079,-1.5249,-1.4334,-1.3463,-1.3202,-1.3265,0.0,0.0,0.0,0.0,0.0,0.0,0.0,0.0,0.0,0.0,0.0,0.0,0.0,0.0,0.0,0.0,0.0,0.0,0.0,0.0,0.0,0.0,0.0,-1.7913,0.0,0.0,0.0,0.0,0.0,0.0,0.0,0.0,0.0,-2.2461,-2.3037,-2.3894,-2.4938,-2.5749,-2.6289,-2.6583,0.0,0.0,0.0,0.0,0.0,0.0,0.0,-2.654,-2.5744,-2.5782,-2.599,-2.6085,-2.691,-2.7323,-2.6683,0.0,0.0,-2.6813,-2.5966,-2.5557,-2.6022,-2.5741,-2.5641,-2.6299,-2.6649,-2.6856,0.0,0.0,0.0,0.0,0.0,0.0,0.0,0.0,-2.5647,-2.4755,0.0,-2.3653,0.0,0.0,0.0,0.0,0.0,-1.971,0.0,0.0,-1.9936,-1.9308,-1.7171,-1.7913,-1.7203,-1.5098,-1.5269,-1.4702,-1.3561,-1.3121,0.0,0.0,0.0,0.0,0.0,0.0,-1.4244,-1.5133,-1.3822,-1.3407,-1.4189,-1.4026,-1.4026,-1.4339,-1.3532,-1.3,-1.279,-1.3157,-1.3138,-1.27,-1.4106,0.0,0.0,0.0,0.0,0.0,0.0,0.0,0.0,0.0,0.0,0.0,0.0,0.0,0.0,0.0,0.0,0.0,0.0,0.0,0.0,-1.836,0.0,0.0,0.0,0.0,0.0,0.0,0.0,0.0,0.0,0.0,-2.2713,-2.5054,-2.6557,-2.5961,0.0,0.0,0.0,0.0,-2.6649,-2.6896,-2.6724,-2.6746,-2.6885,-2.7086,-2.6998,-2.6103,0.0,0.0,-2.7326,-2.773,-2.7967,-2.7833,-2.8305,-2.8844,-2.8787,-2.7558,-2.6759,-2.7161,-2.69,-2.6856,-2.7239,-2.7381,-2.7392,-2.6614,0.0,0.0,0.0,0.0,-2.6777,-2.8349,-3.0698,-2.918,-2.8179,-2.7609,-2.5859,0.0,0.0,0.0,0.0,0.0,0.0,-1.9846,-2.0227,-2.0419,-1.9865,-1.8733,-1.9085,-1.8202,-1.6213,-1.5865,-1.493,-1.3649,-1.314,-1.31,-1.3529,0.0,0.0,0.0,0.0,-1.4052,-1.4138,-1.3671,-1.3338,-1.3459,-1.3749,-1.395,-1.4025,-1.3434,-1.3082,-1.2973,-1.2794,-1.2753,-1.3165,-1.332,0.0,0.0,0.0,0.0,0.0,0.0,0.0,0.0,0.0,0.0,0.0,0.0,0.0,0.0,0.0,0.0,0.0,0.0,0.0,-1.8556,-1.84,-1.86,0.0,0.0,0.0,0.0,0.0,0.0,0.0,0.0,0.0,-2.4031,-2.4451,-2.5009,0.0,0.0,-2.6649,-2.6379,-2.666,-2.6877,-2.6954,-2.7042,0.0,-2.7195,-2.7217,-2.7217,-2.6955,-2.7424,-2.7839,-2.7829,-2.8222,-2.8549,-2.8528,-2.8648,-2.8817,-2.8707,-2.8011,-2.7547,-2.7926,-2.7698,-2.7627,-2.8222,-2.8342,-2.8331,-3.0262,-2.7455,-2.7718,-2.8422,-2.9374,-2.9691,-3.0997,-3.2849,-3.1247,-3.0176,-2.9331,-2.7222,-2.5092,-2.2873,-2.1912,0.0,0.0,0.0,-2.0244,-2.103,-2.0791,-2.0232,-1.9239,-1.9325,-1.8381,-1.6395,-1.5647,-1.4893,-1.389,-1.3429,-1.346,-1.3906,0.0,0.0,-1.4615,-1.4145,-1.3978,-1.396,-1.3547,-1.3361,-1.3525,-1.3743,-1.3926,-1.386,-1.341,-1.313,-1.3053,-1.2699,-1.2591,-1.2959,-1.2981,-1.3293,0.0,0.0,0.0,0.0,0.0,0.0,0.0,0.0,0.0,0.0,0.0,-1.6351,-1.7056,0.0,0.0,0.0,-1.7934,-1.8354,-1.882,-1.8619,0.0,0.0,0.0,0.0,0.0,0.0,0.0,-2.19,-2.2629,-2.3312,-2.4108,-2.427,-2.4702,-2.5965,-2.6014,-2.6088,-2.6455,0.0,-2.6868,-2.7331,-2.7521,-2.7599,-2.7599,-2.7599,-2.7599,-2.7599,-2.7839,-2.8123,-2.8309,-2.8571,-2.885,-2.885,-2.885,-2.885,-2.885,-2.8424,-2.8223,-2.8505,-2.8343,-2.8348,-2.8713,-2.885,-2.885,-3.3031,-3.1308,-3.07,-3.0889,-3.1534,-3.2021,-3.2735,-3.348,-3.2216,-3.0934,-2.9614,-2.8063,-2.6314,-2.4416,-2.2694,0.0,-2.0573,-2.0718,-2.0949,-2.1154,-2.1154,-2.0368,-1.8988,-1.9207,-1.8063,-1.5927,-1.5221,-1.4728,-1.437,-1.4069,-1.3842,-1.3892,-1.3128,-1.3209,-1.403,-1.3957,-1.4001,-1.4139,-1.3496,-1.3542,-1.4099,-1.3914,-1.3797,-1.3761,-1.3308,-1.3043,-1.3019,-1.2777,-1.253,-1.2371,-1.2981,-1.3155,-1.2788,0.0,0.0,0.0,0.0,0.0,0.0,0.0,0.0,0.0,0.0,0.0,0.0,0.0,0.0,0.0,-1.8445,0.0,-1.8786,-1.8944,0.0,0.0,0.0,-1.9716,-2.0861,-2.0733,-2.0895,-2.1748,0.0,0.0,-2.3329,-2.402,-2.4927,-2.6054,-2.5939,-2.5916,-2.6713,-2.649,-2.6626,-2.7586,-2.7902,-2.788,-2.7883,-2.7894,-2.7894,-2.7883,-2.7981,-2.8102,-2.8451,-2.8582,-2.8626,-2.8571,-2.8637,-2.8615,-2.8637,-2.8549,-2.8637,-2.8582,-2.868,-2.8746,-2.885,-2.885,-2.885,-3.5171,-3.5181,-3.4942,-3.3831,-3.23,-3.2399,-3.2766,-3.3269,-3.2215,-3.1124,-3.0047,-2.8555,-2.6437,-2.3992,-2.3851,-2.2957,-2.1397,-2.1484,-2.1489,-2.1585,-2.1585,-2.0998,-1.9985,-1.9978,-1.896,-1.7059,-1.6739,-1.6265,-1.5439,-1.5214,-1.5061,-1.4925,-1.4513,-1.4511,-1.4911,-1.4706,-1.4412,-1.4048,-1.4097,-1.3886,-1.3385,-1.3285,-1.325,-1.3215,-1.2915,-1.2754,-1.2713,-1.2312,-1.2239,-1.2654,-1.2687,-1.2782,-1.3072,-1.4015,0.0,0.0,0.0,0.0,0.0,0.0,0.0,0.0,0.0,-1.6946,-1.742,0.0,-1.7971,0.0,-1.83,-1.8733,-1.9359,-1.9434,0.0,0.0,-2.0765,-2.1294,-2.1579,-2.1353,-2.1504,-2.2178,-2.2119,-2.2171,-2.2791,-2.3051,-2.3306,-2.3721,-2.4733,-2.565,-2.6235,-2.6392,-2.6505,-2.6854,-2.7168,-2.749,-2.749,-2.749,-2.7479,-2.749,-2.7479,-2.7523,-2.7643,-2.7654,-2.7654,-2.7665,-2.7654,-2.7643,-2.7687,-2.7654,-2.7665,-2.7697,-2.8233,-2.885,-2.885,-2.8839,-2.8839,-3.4231,-3.3657,-3.366,-3.2536,-3.1019,-3.3428,-3.4388,-3.4176,-3.2935,-3.1856,-3.0813,-2.8866,-2.6783,-2.4636,-2.4594,-2.3756,-2.2272,-2.208,-2.1906,-2.1741,-2.1731,-2.1177,-2.0348,-2.0257,-1.9521,-1.7971,-1.7971,-1.7684,-1.7117,-1.6886,-1.6733,-1.6647,-1.5885,-1.5734,-1.6141,-1.5517,-1.4964,-1.4636,-1.4514,-1.4132,-1.3468,-1.338,-1.342,-1.3769,-1.3271,-1.3228,-1.3547,-1.3094,-1.3154,-1.3746,-1.3393,-1.3383,-1.3954,-1.4494,-1.4824,0.0,0.0,0.0,0.0,0.0,0.0,0.0,0.0,0.0,0.0,0.0,-1.8219,-1.9156,-1.908,-1.9291,-2.0202,-2.0276,-2.0442,-2.0649,-2.109,-2.1362,-2.1453,-2.1553,-2.166,-2.2059,-2.211,-2.2215,-2.2483,-2.2501,-2.2575,-2.2896,-2.3533,-2.4265,-2.5029,-2.5371,-2.5685,-2.6318,-2.6663,-2.6864,-2.6966,-2.6824,-2.6758,-2.6955,-2.6998,-2.7064,-2.7272,-2.7315,-2.7315,-2.7315,-2.7315,-2.7315,-2.7315,-2.7315,-2.7315,-2.7381,-2.773,-2.8069,-2.8112,-2.8112,-2.8112,-3.2293,-3.0678,-3.0612,-3.005,-2.9754,-3.4417,-3.5747,-3.4582,-3.3191,-3.1925,-3.0791,-2.8796,-2.6945,-2.5371,-2.501,-2.4117,-2.2879,-2.2612,-2.2253,-2.1839,-2.1741,-2.1275,-2.052,-2.0529,-1.9985,-1.9063,-1.8972,-1.888,-1.878,-1.8478,-1.8401,-1.8337,-1.7247,-1.7087,-1.7636,-1.6384,-1.5656,-1.546,-1.4926,-1.4432,-1.4141,-1.3957,-1.4115,-1.4792,-1.402,-1.3932,-1.4547,-1.4223,-1.4272,-1.49,-1.4435,-1.4388,-1.4881,-1.53,-1.5471,0.0,-1.5917,0.0,0.0,0.0,0.0,0.0,0.0,0.0,0.0,-1.7899,-1.8643,-2.0467,-2.008,-2.0093,-2.1061,-2.1183,-2.1118,-2.0838,-2.094,-2.105,-2.1227,-2.1594,-2.1786,-2.1741,-2.2272,-2.2639,-2.2199,-2.2208,-2.2401,-2.2564,-2.2474,-2.2695,-2.3547,-2.3938,-2.451,-2.5771,-2.6078,-2.6179,-2.6314,-2.6116,-2.6092,-2.6441,-2.654,-2.6682,-2.7009,-2.7086,-2.7097,-2.7097,-2.7064,-2.7086,-2.713,-2.7108,-2.7108,-2.7064,-2.7108,-2.7195,-2.7348,-2.7392,-2.7315,-3.3688,-3.348,-3.2489,-3.2225,-3.2679,-3.312,-3.2328,-3.0577,-2.9609,-2.8487,-2.7332,-2.6625,-2.5385,-2.4001,-2.5202,-2.471,-2.2904,-2.3568,-2.3424,-2.253,-2.2008,-2.1642,-2.1454,-2.1463,-2.0907,-2.0068,-1.9985,-1.9613,-1.8796,-1.8724,-1.8723,-1.8896,-1.8645,-1.8737,-1.9076,0.0,0.0,0.0,-1.55,-1.5157,-1.5116,-1.5357,-1.5382,-1.4953,-1.4482,0.0,-1.3762,-1.3675,-1.3815,-1.4398,-1.4336,0.0,0.0,0.0,0.0,0.0,0.0,0.0,0.0,0.0,0.0,0.0,-1.7003,-1.7132,-1.7656,-1.8559,-1.9562,-2.0661,-2.0652,-2.0597,-2.0596,-2.09,-2.1084,-2.1102,-2.1664,-2.2016,-2.2089,-2.2162,-2.2098,-2.1777,-2.1887,-2.1814,-2.1484,-2.1621,-2.1878,-2.1997,-2.1896,-2.1887,-2.215,-2.2981,-2.3615,-2.3957,-2.4706,-2.5209,-2.5189,-2.5613,-2.5928,-2.6037,-2.6048,-2.6092,-2.619,-2.6212,-2.6179,-2.6212,-2.6168,-2.619,-2.619,-2.6168,-2.6223,-2.6179,-2.619,-2.6409,-2.714,-2.7304,-2.7315,-3.2867,0.0,-3.1619,-3.1269,0.0,-3.0847,-3.0258,-2.9478,-2.9052,-2.8009,-2.633,-2.5615,-2.4814,-2.4073,-2.4803,-2.4315,-2.2903,-2.3317,-2.3063,-2.2283,-2.1919,-2.1731,-2.1731,-2.1731,-2.1463,-2.0988,-2.0988,-2.0718,-2.0266,-2.0266,-2.0253,-2.034,-1.9877,-1.9783,-1.9877,-1.8977,-1.7567,-1.5951,-1.5857,-1.5585,-1.5013,-1.5368,-1.5639,-1.5884,0.0,0.0,0.0,0.0,0.0,0.0,0.0,0.0,0.0,0.0,0.0,-1.6125,-1.6353,-1.6589,-1.6773,-1.6721,-1.6723,-1.6926,-1.7188,-1.7557,-1.7861,-1.8959,-1.9889,-2.0512,-2.0805,-2.0973,-2.1099,-2.1125,-2.1049,-2.1067,-2.1419,-2.1653,-2.1662,-2.1853,-2.187,-2.1786,-2.1731,-2.1649,-2.1447,-2.1392,-2.152,-2.1686,-2.1548,-2.1511,-2.1704,-2.2175,-2.2655,-2.3111,-2.4165,-2.4871,-2.4946,-2.5464,-2.5906,-2.5895,-2.5895,-2.5895,-2.5895,-2.5895,-2.5895,-2.5895,-2.5895,-2.5895,-2.5895,-2.5895,-2.5895,-2.5895,-2.5895,-2.6026,-2.654,-2.6627,-2.6616,-3.1195,-2.9936,-2.9937,-2.9493,-2.869,-2.8888,-2.9056,-2.9395,0.0,0.0,0.0,-2.4793,-2.4269,-2.4297,-2.4331,-2.3877,-2.3122,-2.3345,-2.2953,-2.2097,-2.1909,-2.183,-2.1731,-2.1731,-2.1731,-2.1731,-2.1731,-2.1651,-2.1553,-2.1642,-2.1642,-2.1374,-2.0808,-2.0339,-2.0158,-1.9521,-1.8198,-1.6188,-1.6605,-1.6337,-1.5432,-1.5626,-1.6149,-1.7051,-1.7008,-1.7132,-1.7473,-1.7371,-1.7287,-1.7136,-1.7124,-1.7086,-1.7215,-1.6909,-1.6731,-1.674,-1.6629,-1.6599,-1.6738,-1.662,-1.6621,-1.681,-1.7358,-1.79,-1.8196,-1.9153,-1.9895,-2.0228,-2.0649,-2.1092,-2.1427,-2.1096,-2.0907,-2.0907,-2.0907,-2.0916,-2.0916,-2.1195,-2.1365,-2.1391,-2.132,-2.1427,-2.1425,-2.1128,-2.1162,-2.1514,-2.1386,-2.1231,-2.1551,-2.175,-2.1946,-2.2558,-2.358,-2.4519,-2.4775,-2.5211,-2.5728,-2.5906,-2.5895,-2.5895,-2.5895,-2.5895,-2.5895,-2.5895,-2.5852,-2.5764,-2.5753,-2.5644,-2.5688,-2.5753,-2.5692,-2.5797,-2.5884,-2.5822,-2.5855,-2.9622,-2.8737,-2.8932,-2.8768,-2.8391,-2.9083,-2.9257,-2.8894,-2.7558,-2.6043,-2.4464,-2.3167,-2.2677,-2.2695,-2.4404,-2.4575,-2.3789,-2.5145,-2.5002,0.0,-2.296,-2.2362,-2.1731,-2.1731,-2.1731,-2.1731,-2.1731,-2.1454,-2.1177,-2.1463,-2.1284,-2.0654,-2.0727,-2.0447,-1.9712,-2.0357,-1.9774,-1.8013,-1.8604,-1.8781,-1.8637,-1.8472,-1.83,-1.8189,-1.7873,-1.7535,-1.7313,-1.7464,-1.738,-1.6994,-1.697,-1.6834,-1.6665,-1.6618,-1.6565,-1.6718,-1.666,-1.6692,-1.6732,-1.6659,-1.6818,-1.7159,-1.7294,-1.7733,-1.8455,-1.918,-1.9749,-1.9858,-2.0153,-2.0413,-2.0464,-2.0464,-2.0374,-2.0374,-2.0382,-2.0382,-2.0374,-2.0447,-2.0442,-2.0182,-2.0274,-2.0515,-2.0651,-2.0491,-2.0729,-2.1436,-2.115,-2.1096,-2.1516,-2.1731,-2.1741,-2.1919,-2.253,-2.3309,-2.3983,-2.4584,-2.5295,-2.5812,-2.5895,-2.5895,-2.5895,-2.5895,-2.5895,-2.5895,-2.5622,-2.5371,-2.5295,-2.4934,-2.4978,-2.5218,-2.5098,-2.5114,-2.5616,-2.5535,-2.54,-2.8897,-2.8177,-2.8649,-2.8554,-2.7999,-2.8791,-2.8804,-2.8135,-2.6973,-2.5824,-2.4701,-2.3749,-2.3082,-2.3004,-2.4483,-2.4645,-2.3831,-2.4829,-2.4778,-2.382,-2.3135,-2.2784,-2.2765,-2.2078,-2.1722,-2.1793,-2.1445,-2.1096,-2.0637,-2.0826,-2.0744,-2.0382,-2.0555,-2.0468,-2.0365,-2.0741,-2.0736,-2.0119,-1.9728,-1.9339,-1.8799,-1.8718,-1.8771,-1.8797,-1.8656,-1.8464,-1.8087,-1.813,-1.7985,-1.7534,-1.7259,-1.7129,-1.6975,-1.6742,-1.6652,-1.6722,-1.673,-1.673,-1.673,-1.673,-1.6802,-1.6969,-1.7167,-1.7351,-1.7557,-1.8448,-1.9062,-1.9095,-1.9672,-2.0073,-1.9992,-1.9983,-1.992,-1.992,-1.992,-1.992,-1.9894,-1.9996,-2.0001,-2.0026,-2.0001,-2.0081,-2.0303,-2.0271,-2.0382,-2.0817,-2.0578,-2.0499,-2.0872,-2.082,-2.0953,-2.1596,-2.2608,-2.3377,-2.379,-2.4765,-2.5464,-2.5895,-2.5895,-2.5895,-2.5895,-2.5895,-2.5895,-2.5895,-2.5699,-2.5333,-2.4772,-2.4692,-2.4708,-2.4545,-2.4449,-2.4476,-2.4648,-2.4598,-2.4602,-2.8232,-2.7722,-2.8407,-2.8394,-2.8041,-2.8603,-2.851,-2.7946,-2.6978,-2.6269,-2.5681,-2.46,-2.3894,-2.3719,-2.4646,-2.4771,-2.4313,-2.4676,-2.4608,-2.4025,-2.3496,-2.3232,-2.335,-2.2349,-2.1946,-2.1993,-2.1743,-2.1266,-2.0572,-2.0642,-2.0551,-2.0209,-2.0011,-2.0154,-2.061,-2.0694,-2.0884,-2.123,-2.0488,-1.9681,-1.896,-1.9042,-1.908,-1.9303,-1.9371,-1.9265,-1.8889,-1.884,-1.8629,-1.8266,-1.7797,-1.7473,-1.7392,-1.6984,-1.673,-1.673,-1.673,-1.673,-1.6738,-1.6889,-1.6897,-1.6754,-1.7072,-1.7159,-1.6937,-1.758,-1.8202,-1.8403,-1.8996,-1.9504,-1.9541,-1.948,-1.9463,-1.9371,-1.9455,-1.9463,-1.9438,-1.9487,-1.9681,-1.9935,-1.9757,-1.9715,-2.0017,-2.0011,-2.0011,-2.0059,-1.9958,-1.9952,-2.0069,-1.9927,-2.0193,-2.1101,-2.2446,-2.3248,-2.3533,-2.4681,-2.5484,-2.5703,-2.5652,-2.5706,-2.5812,-2.5812,-2.576,-2.576,-2.5808,-2.538,-2.4527,-2.433,-2.4395,-2.418,-2.3833,-2.3599,-2.378,-2.3674,-2.3807,-2.705,-2.7331,-2.7752,-2.8406,-2.9167,-2.8932,-2.8986,-2.9091,-2.7957,-2.7495,-2.7128,-2.4854,-2.4085,-2.4384,-2.483,-2.51,-2.5438,-2.6065,-2.5809,-2.4967,-2.4496,-2.3615,-2.248,-2.2342,-2.2264,-2.2299,-2.2972,-2.2413,-2.0969,-2.1617,-2.1343,-1.977,-1.9196,-1.922,-1.9704,-1.9762,-1.9936,-2.0434,-2.0709,-2.0855,-2.0839,-2.0507,-2.0143,-1.9825,-1.9834,-1.9677,-1.9213,-1.9283,-1.9063,-1.8647,-1.8184,-1.7797,-1.74,-1.6976,-1.6656,-1.6754,-1.6664,-1.673,-1.6778,-1.7318,-1.739,-1.6841,-1.7096,-1.7286,-1.7231,-1.7077,-1.7141,-1.7834,-1.8282,-1.8587,-1.8824,-1.8896,-1.892,-1.892,-1.8912,-1.8827,-1.8904,-1.8896,-1.888,-1.8912,-1.9023,-1.9063,-1.953,-1.9279,-1.9188,-1.9637,-1.955,-1.963,-1.9749,-1.9383,-1.9264,-1.9748,-2.0998,-2.2217,-2.276,-2.399,-2.4955,-2.5239,-2.5112,-2.5126,-2.5337,-2.5274,-2.5158,-2.5475,-2.5438,-2.5074,-2.4798,-2.4449,-2.3645,-2.3722,-2.3414,-2.3003,-2.3158,-2.3071,-2.3145,-2.7283,-2.7303,-2.8359,-2.9073,-2.9456,-2.8964,-2.8866,-2.8997,-2.8157,-2.8,-2.795,-2.5853,-2.5073,-2.5544,-2.5741,-2.5862,-2.5787,-2.5947,-2.5528,-2.4795,-2.4062,-2.3381,-2.2888,-2.2428,-2.2446,-2.2668,-2.2612,-2.1943,-2.1103,-2.0771,-2.0312,-1.9787,-1.9351,-1.9239,-1.9503,-1.957,-1.9729,-1.992,-2.0374,-2.0567,-2.0651,-2.0472,-2.0377,-2.0121,-1.9729,-1.9366,-1.9182,-1.8971,-1.8848,-1.8603,-1.7997,-1.7654,-1.7705,-1.7097,-1.6921,-1.7294,-1.7342,-1.7342,-1.735,-1.7612,-1.7652,-1.7358,-1.7477,-1.7564,-1.7572,-1.7454,-1.7597,-1.8025,-1.82,-1.8261,-1.8526,-1.87,-1.8827,-1.8827,-1.8827,-1.8827,-1.8827,-1.8645,-1.8581,-1.8772,-1.8645,-1.8696,-1.8956,-1.892,-1.892,-1.9015,-1.8913,-1.8773,-1.9093,-1.8584,-1.8382,-1.9045,-2.0175,-2.1259,-2.2324,-2.3576,-2.443,-2.4829,-2.4534,-2.4372,-2.4283,-2.4374,-2.4413,-2.4967,-2.4693,-2.4294,-2.3971,-2.3648,-2.3127,-2.3311,-2.305,-2.2579,-2.2408,-2.2299,-2.2366,-2.7757,-2.8003,-2.9434,-2.9859,-2.9467,-2.9106,-2.8877,-2.8817,-2.8386,-2.8234,-2.8036,-2.6494,-2.5658,-2.5571,-2.5889,-2.584,-2.5541,-2.5413,-2.4954,-2.4244,-2.3476,-2.3202,-2.3238,-2.2508,-2.251,-2.2888,-2.2441,-2.1799,-2.1114,-2.0091,-1.963,-1.9797,-1.9622,-1.9511,-1.9566,-1.952,-1.9527,-1.9602,-1.9895,-2.011,-2.0158,-2.0197,-2.0183,-2.0158,-1.9635,-1.9273,-1.9067,-1.8888,-1.8742,-1.8742,-1.8071,-1.7804,-1.7968,-1.7403,-1.7247,-1.7707,-1.7866,-1.7866,-1.7787,-1.7946,-1.7969,-1.7811,-1.785,-1.7914,-1.7914,-1.7906,-1.8073,-1.839,-1.834,-1.8348,-1.847,-1.8676,-1.8812,-1.8827,-1.8827,-1.8827,-1.8812,-1.8581,-1.8565,-1.8756,-1.8645,-1.8533,-1.8764,-1.8827,-1.8827,-1.8764,-1.8327,-1.8049,-1.8446,-1.8065,-1.7792,-1.8578,-1.9346,-2.0562,-2.208,-2.3173,-2.3937,-2.4293,-2.4088,-2.3487,-2.3173,-2.3383,-2.3564,-2.389,-2.3599,-2.3553,-2.3604,-2.3284,-2.2829,-2.2956,-2.2735,-2.2283,-2.1994,-2.1838,-2.1828,-2.8242,-2.9201,-3.0354,-3.0242,-2.9489,-2.9423,-2.9161,-2.885,-2.8806,-2.8143,-2.7022,-2.6268,-2.5192,-2.3865,-2.4402,-2.4584,-2.4581,-2.4847,-2.4326,-2.3327,-2.3148,-2.3197,-2.3205,-2.2399,-2.2312,-2.2902,-2.3112,-2.269,-2.1859,-2.0573,-1.9844,-1.9884,-1.9868,-1.9844,-1.9797,-1.9606,-1.9439,-1.9469,-1.9567,-1.9654,-1.9637,-1.9621,-1.9718,-1.9715,-1.9647,-1.938,-1.9153,-1.9067,-1.905,-1.9042,-1.8554,-1.8313,-1.8345,-1.7999,-1.7763,-1.7819,-1.8097,-1.8128,-1.7946,-1.8383,-1.8478,-1.7969,-1.812,-1.8279,-1.8279,-1.8174,-1.8308,-1.8756,-1.8756,-1.8764,-1.8764,-1.8788,-1.8827,-1.8827,-1.8827,-1.8827,-1.8827,-1.8788,-1.8804,-1.8827,-1.8788,-1.8772,-1.8819,-1.8827,-1.8827,-1.8772,-1.8502,-1.8311,-1.8311,-1.8017,-1.7906,-1.8112,-1.8841,-1.9983,-2.1512,-2.2471,-2.3218,-2.3594,-2.3209,-2.2814,-2.2867,-2.2839,-2.2863,-2.2808,-2.2541,-2.2572,-2.3191,-2.3192,-2.2909,-2.2705,-2.247,-2.2076,-2.217,-2.1911,-2.189,-2.9408,-3.07,-3.0478,-3.0253,-2.9904,-2.9292,-2.8921,-2.8861,-2.885,-2.8269,-2.7212,-2.5953,-2.4922,-2.4183,-2.3241,-2.3095,-2.3419,-2.3607,-2.3249,-2.2629,-2.2283,-2.2097,-2.1845,-2.246,-2.2743,-2.2752,-2.316,-2.2654,-2.1369,-2.0568,-2.0321,-2.0464,-2.0305,-2.0202,-2.0146,-1.986,-1.959,-1.9383,-1.9413,-1.9346,-1.9136,-1.9096,-1.9123,-1.9109,-1.9092,-1.9035,-1.8897,-1.9032,-1.8908,-1.8643,-1.8414,-1.839,-1.8354,-1.8409,-1.8343,-1.8168,-1.8438,-1.8581,-1.8494,-1.8669,-1.8724,-1.851,-1.8557,-1.8621,-1.8637,-1.8545,-1.8593,-1.8796,-1.8827,-1.8827,-1.8827,-1.8827,-1.8827,-1.8827,-1.8827,-1.8827,-1.8827,-1.8827,-1.8827,-1.8827,-1.8827,-1.8827,-1.8819,-1.8827,-1.8827,-1.8796,-1.8526,-1.8438,-1.8494,-1.816,-1.7938,-1.8369,-1.8613,-1.9238,-2.0756,-2.1479,-2.2064,-2.2254,-2.2202,-2.1817,-2.1689,-2.1425,-2.1359,-2.1556,-2.1376,-2.1785,-2.2436,-2.3458,-2.3052,-2.2685,-2.2439,-2.2511,-2.2697,-2.2418,-2.2283,-3.0037,-3.1418,-3.093,-3.057,-3.0351,-2.9729,-2.927,-2.9019,-2.8986,-2.8314,-2.6863,-2.5513,-2.4469,-2.3395,-2.2188,-2.1813,-2.2169,-2.239,-2.2238,-2.1683,-2.1443,-2.142,-2.1582,-2.2244,-2.2481,-2.2386,-2.2368,-2.1835,-2.0963,-2.0678,-2.0758,-2.1052,-2.0734,-2.0623,-2.0639,-2.0273,-1.9916,-1.9725,-1.959,-1.936,-1.905,-1.9002,-1.8939,-1.8843,-1.8827,-1.8827,-1.8827,-1.8878,-1.8831,-1.8528,-1.8499,-1.8483,-1.847,-1.87,-1.8724,-1.8533,-1.8692,-1.8827,-1.8827,-1.8827,-1.8827,-1.8827,-1.8827,-1.8827,-1.8827,-1.8827,-1.8827,-1.8827,-1.8827,-1.8827,-1.8827,-1.8827,-1.8827,-1.8827,-1.8827,-1.8827,-1.8827,-1.8827,-1.8827,-1.8812,-1.87,-1.87,-1.8788,-1.8716,-1.8724,-1.8804,-1.8605,-1.8605,-1.8692,-1.8486,-1.8232,-1.87,-1.8605,-1.8928,-1.9833,-2.0401,-2.1155,-2.1487,-2.1453,-2.1033,-2.0748,-2.0347,-2.0347,-2.0448,-2.0763,-2.1171,-2.2034,-2.3183,-2.3392,-2.3018,-2.2884,-2.2925,-2.2956,-2.2904,-2.2791,-3.0037,-3.1505,-3.1597,-3.1236,-3.0832,-3.0624,-3.0231,-2.95,-2.9401,-2.8031,-2.6051,-2.5101,-2.3626,-2.1702,-2.1285,-2.078,-2.0799,-2.1502,-2.1428,-2.068,-2.0867,-2.142,-2.2123,-2.1582,-2.1644,-2.2034,-2.1031,-2.07,-2.0948,-2.0909,-2.1044,-2.1282,-2.1036,-2.0988,-2.1385,-2.071,-2.0377,-2.0257,-2.0011,-1.9709,-1.9423,-1.9368,-1.9217,-1.8907,-1.8867,-1.8859,-1.8835,-1.8812,-1.878,-1.8796,-1.878,-1.8812,-1.8772,-1.8819,-1.8819,-1.8796,-1.8819,-1.8827,-1.8827,-1.8827,-1.8827,-1.8827,-1.8827,-1.8827,-1.8827,-1.8827,-1.8827,-1.8827,-1.8827,-1.8827,-1.8827,-1.8827,-1.8827,-1.8827,-1.8827,-1.8819,-1.8788,-1.8796,-1.8819,-1.8772,-1.8565,-1.8486,-1.8645,-1.8613,-1.8565,-1.8748,-1.8788,-1.8764,-1.8819,-1.8716,-1.878,-1.8812,-1.8764,-1.8932,-1.9063,-1.9271,-2.0158,-2.0791,-2.0791,-2.0541,-2.0456,-2.0214,-2.0588,-2.0765,-2.1204,-2.1664,-2.2045,-2.32,-2.3722,-2.3524,-2.3473,-2.336,-2.3422,-2.3422,-2.3267,-3.0037,-3.1472,-3.1258,-3.104,-3.0799,-3.0209,-2.9729,-2.9361,-2.8655,-2.743,-2.6157,-2.4669,-2.3322,-2.2189,-2.1285,-2.0869,-2.0758,-2.1054,-2.1054,-2.0766,-2.0869,-2.1019,-2.142,-2.1827,-2.2198,-2.2342,-2.1363,-2.0941,-2.1187,-2.1052,-2.0996,-2.1036,-2.0996,-2.0972,-2.1131,-2.0861,-2.0655,-2.04,-2.0289,-2.0059,-1.9741,-1.9709,-1.955,-1.9241,-1.9201,-1.9098,-1.8851,-1.8827,-1.8827,-1.8827,-1.8827,-1.8827,-1.8827,-1.8827,-1.8827,-1.8827,-1.8827,-1.8827,-1.8827,-1.8827,-1.8827,-1.8827,-1.8827,-1.8827,-1.8827,-1.8827,-1.8827,-1.8827,-1.8827,-1.8827,-1.8827,-1.8827,-1.8827,-1.8827,-1.8827,-1.8732,-1.8541,-1.8303,-1.8367,-1.87,-1.8518,-1.8486,-1.8708,-1.8669,-1.8669,-1.8788,-1.8827,-1.8827,-1.8827,-1.8827,-1.8827,-1.8827,-1.8827,-1.8827,-1.892,-1.9004,-1.9546,-2.0348,-2.0447,-2.0447,-2.0292,-2.0473,-2.0829,-2.1359,-2.1798,-2.2226,-2.267,-2.2938,-2.3533,-2.3857,-2.366,-2.3742,-2.4012,-2.3939,-2.3732,-3.0037,-3.1483,-3.1291,-3.105,-3.0854,-3.0231,-2.9784,-2.9371,-2.837,-2.7376,-2.6284,-2.4482,-2.33,-2.2613,-2.152,-2.1115,-2.1115,-2.1123,-2.1044,-2.0941,-2.0925,-2.0925,-2.0941,-2.1677,-2.2311,-2.2465,-2.1715,-2.1417,-2.1616,-2.1425,-2.137,-2.1481,-2.1377,-2.1401,-2.1441,-2.1234,-2.0988,-2.0798,-2.0662,-2.0424,-2.0138,-2.0059,-1.9892,-1.9598,-1.9439,-1.9256,-1.9034,-1.8915,-1.8827,-1.8827,-1.8827,-1.8827,-1.8827,-1.8827,-1.8827,-1.8827,-1.8827,-1.8827,-1.8827,-1.8743,-1.8651,-1.8651,-1.855,-1.855,-1.855,-1.8558,-1.8643,-1.8651,-1.8735,-1.8827,-1.8827,-1.8827,-1.8827,-1.8827,-1.8827,-1.8732,-1.8494,-1.8303,-1.8351,-1.8669,-1.8518,-1.8526,-1.8708,-1.8676,-1.8708,-1.8772,-1.8827,-1.8827,-1.8827,-1.8827,-1.8827,-1.8827,-1.8827,-1.8827,-1.8827,-1.8912,-1.9004,-1.9629,-2.0257,-2.0348,-2.0288,-2.098,-2.1514,-2.2211,-2.2746,-2.3238,-2.3639,-2.3318,-2.3539,-2.3639,-2.3916,-2.3849,-2.3951,-2.4186,-2.4115,-3.0037,-3.1516,-3.1618,-3.1313,-3.0908,-3.0777,-3.0133,-2.9363,-2.8401,-2.7359,-2.611,-2.4458,-2.3432,-2.28,-2.1924,-2.1449,-2.1336,-2.1296,-2.1258,-2.1044,-2.0956,-2.0948,-2.1036,-2.1434,-2.1868,-2.2041,-2.2017,-2.1934,-2.1981,-2.1886,-2.2116,-2.2227,-2.1989,-2.2077,-2.2108,-2.1759,-2.1433,-2.1314,-2.1084,-2.0782,-2.0448,-2.0416,-2.0249,-1.99,-1.9598,-1.9407,-1.9288,-1.901,-1.8827,-1.8827,-1.8827,-1.8827,-1.8827,-1.8827,-1.8827,-1.8827,-1.8827,-1.8735,-1.8743,-1.8658,-1.8481,-1.8473,-1.828,-1.8087,-1.8179,-1.8272,-1.8365,-1.8566,-1.8651,-1.8735,-1.8827,-1.8827,-1.8827,-1.8827,-1.8772,-1.8732,-1.8812,-1.8732,-1.8645,-1.8692,-1.8549,-1.843,-1.8756,-1.8573,-1.8597,-1.8732,-1.8827,-1.8827,-1.8827,-1.8827,-1.8827,-1.8827,-1.8827,-1.8827,-1.8827,-1.8827,-1.8912,-1.9363,-2.0167,-2.0701,-2.0791,-2.1507,-2.2315,-2.3028,-2.3551,-2.4059,-2.4221,-2.375,-2.375,-2.4139,-2.4149,-2.3897,-2.3963,-2.4255,-2.4395,-3.0037,-3.1516,-3.1618,-3.1345,-3.0865,-3.0548,-2.9753,-2.8572,-2.7445,-2.651,-2.544,-2.3934,-2.3065,-2.2656,-2.2136,-2.1695,-2.1536,-2.1481,-2.1425,-2.1282,-2.1028,-2.1099,-2.133,-2.1663,-2.2013,-2.2275,-2.214,-2.2092,-2.2307,-2.2124,-2.2061,-2.2084,-2.2084,-2.2021,-2.2029,-2.1934,-2.1687,-2.1481,-2.1385,-2.1139,-2.0845,-2.0782,-2.0607,-2.0265,-1.9924,-1.963,-1.9376,-1.9018,-1.8827,-1.8827,-1.8827,-1.8827,-1.8827,-1.8827,-1.8827,-1.8735,-1.8735,-1.8743,-1.8566,-1.8473,-1.8388,-1.8187,-1.8087,-1.8087,-1.8087,-1.8087,-1.828,-1.8481,-1.8566,-1.8658,-1.8743,-1.8827,-1.8827,-1.8796,-1.8653,-1.8589,-1.8692,-1.8375,-1.8224,-1.8669,-1.851,-1.8541,-1.8692,-1.8756,-1.87,-1.8796,-1.8827,-1.8827,-1.8827,-1.8827,-1.8827,-1.8827,-1.8827,-1.8827,-1.8827,-1.8827,-1.892,-1.9188,-2.0167,-2.1498,-2.1774,-2.2306,-2.3115,-2.3917,-2.4003,-2.4433,-2.4166,-2.379,-2.4176,-2.4368,-2.3907,-2.3541,-2.409,-2.4509,-2.4498,-2.9932,-3.1105,-3.1414,-3.1236,-3.0514,-3.0024,-2.9127,-2.7879,-2.6788,-2.5742,-2.4867,-2.3829,-2.3116,-2.2582,-2.2355,-2.2077,-2.1902,-2.1886,-2.1727,-2.1449,-2.1401,-2.1489,-2.1711,-2.2013,-2.2363,-2.2656,-2.2498,-2.2537,-2.2649,-2.249,-2.241,-2.2442,-2.2402,-2.2402,-2.2434,-2.2227,-2.2092,-2.1902,-2.1743,-2.1497,-2.1179,-2.1147,-2.0948,-2.0623,-2.0273,-1.9932,-1.959,-1.9241,-1.8994,-1.8875,-1.8827,-1.8827,-1.8827,-1.8827,-1.8743,-1.8651,-1.8651,-1.8558,-1.8381,-1.8195,-1.8102,-1.79,-1.78,-1.7807,-1.78,-1.7792,-1.7885,-1.8102,-1.8179,-1.8365,-1.8651,-1.8743,-1.8827,-1.8804,-1.8645,-1.8605,-1.8819,-1.851,-1.843,-1.8653,-1.8669,-1.8581,-1.8812,-1.8827,-1.8827,-1.8827,-1.8827,-1.8827,-1.8827,-1.8827,-1.8827,-1.8827,-1.8827,-1.8827,-1.8827,-1.8827,-1.9255,-1.953,-2.0567,-2.1906,-2.257,-2.3018,-2.3647,-2.4272,-2.4454,-2.4454,-2.4186,-2.3993,-2.3907,-2.382,-2.3367,-2.3541,-2.409,-2.455,-2.455,-2.9513,-3.0276,-3.1116,-3.0904,-2.999,-2.9377,-2.8561,-2.738,-2.6271,-2.531,-2.4418,-2.3869,-2.322,-2.2708,-2.2602,-2.2513,-2.245,-2.2378,-2.2037,-2.1798,-2.1791,-2.2005,-2.2037,-2.2378,-2.268,-2.2919,-2.3006,-2.2974,-2.2942,-2.295,-2.2982,-2.2911,-2.2934,-2.2982,-2.2855,-2.2664,-2.2537,-2.2355,-2.2045,-2.1727,-2.1425,-2.1306,-2.1115,-2.0861,-2.0512,-2.017,-1.9852,-1.9558,-1.9194,-1.887,-1.8814,-1.879,-1.8775,-1.8735,-1.8651,-1.8473,-1.8473,-1.8373,-1.8087,-1.7908,-1.7721,-1.7621,-1.7426,-1.7333,-1.7326,-1.7412,-1.7505,-1.7815,-1.7815,-1.8107,-1.8582,-1.8808,-1.8933,-1.8964,-1.8893,-1.8947,-1.8923,-1.8875,-1.8827,-1.8843,-1.8835,-1.8875,-1.8835,-1.8859,-1.8883,-1.8651,-1.8743,-1.8651,-1.8651,-1.8743,-1.8743,-1.8827,-1.8827,-1.8827,-1.8827,-1.8827,-1.943,-1.9943,-2.123,-2.2475,-2.327,-2.3734,-2.4186,-2.455,-2.455,-2.4454,-2.4454,-2.4186,-2.382,-2.3734,-2.3627,-2.381,-2.4186,-2.4454,-2.455,-2.8572,-2.9408,-3.0276,-2.9952,-2.8983,-2.9328,-2.8502,-2.666,-2.5724,-2.4831,-2.4025,-2.3283,-2.2797,-2.2404,-2.2686,-2.276,-2.2529,-2.2482,-2.2235,-2.1965,-2.2212,-2.2363,-2.2434,-2.2712,-2.2919,-2.3014,-2.3014,-2.3014,-2.3014,-2.3014,-2.3014,-2.3014,-2.3014,-2.3014,-2.299,-2.2919,-2.2744,-2.2482,-2.2148,-2.1806,-2.1457,-2.1211,-2.1052,-2.0893,-2.0575,-2.0241,-1.994,-1.961,-1.9435,-1.9317,-1.9106,-1.8895,-1.8606,-1.8396,-1.8288,-1.821,-1.8195,-1.8094,-1.7822,-1.7751,-1.7643,-1.7493,-1.7421,-1.7333,-1.7333,-1.7369,-1.7448,-1.7673,-1.7946,-1.8281,-1.8766,-1.9148,-1.927,-1.9327,-1.9431,-1.955,-1.9534,-1.9153,-1.8923,-1.8931,-1.9098,-1.9153,-1.8915,-1.9121,-1.8996,-1.8729,-1.8566,-1.8566,-1.8566,-1.8566,-1.8651,-1.8743,-1.8743,-1.8743,-1.8827,-1.892,-1.9347,-2.0116,-2.1389,-2.2621,-2.3414,-2.4176,-2.4454,-2.455,-2.455,-2.4454,-2.4454,-2.3993,-2.3637,-2.3724,-2.3897,-2.3993,-2.4186,-2.4368,-2.455,-2.8038,-2.8678,-2.9848,-2.9601,-2.8591,-2.885,-2.8084,-2.6519,-2.5543,-2.4575,-2.3843,-2.3411,-2.3028,-2.2427,-2.2767,-2.2887,-2.2728,-2.2545,-2.2394,-2.2267,-2.2418,-2.2474,-2.2561,-2.2815,-2.3014,-2.3014,-2.3014,-2.3014,-2.3014,-2.3014,-2.3014,-2.3014,-2.3014,-2.3014,-2.3014,-2.3014,-2.2815,-2.2529,-2.2307,-2.1973,-2.1489,-2.1282,-2.0949,-2.0688,-2.0405,-2.0145,-1.9969,-1.9698,-1.9544,-1.9483,-1.9246,-1.9,-1.8743,-1.8364,-1.8178,-1.8104,-1.7968,-1.792,-1.7799,-1.7771,-1.7743,-1.7765,-1.7786,-1.7786,-1.7786,-1.7786,-1.7786,-1.8023,-1.8156,-1.8439,-1.8882,-1.9282,-1.9439,-1.926,-1.9549,-1.9574,-1.9415,-1.9312,-1.9312,-1.9344,-1.9495,-1.9495,-1.9463,-1.9328,-1.9107,-1.8746,-1.8295,-1.828,-1.828,-1.828,-1.8473,-1.8566,-1.8566,-1.8651,-1.8735,-1.9004,-1.9271,-2.0124,-2.1141,-2.2211,-2.3066,-2.381,-2.4464,-2.455,-2.455,-2.455,-2.4454,-2.3907,-2.3714,-2.3993,-2.4176,-2.4176,-2.4272,-2.4454,-2.4454,-2.7726,-2.7726,-2.9323,-2.9319,-2.8277,-2.8237,-2.7539,-2.6352,-2.529,-2.4321,-2.3789,-2.3701,-2.3067,-2.2712,-2.2823,-2.3006,-2.2927,-2.276,-2.2585,-2.2593,-2.2601,-2.2633,-2.2688,-2.2871,-2.3014,-2.3014,-2.3014,-2.3014,-2.3014,-2.3014,-2.3014,-2.3014,-2.3014,-2.3014,-2.3014,-2.3006,-2.2847,-2.2521,-2.2347,-2.2037,-2.1447,-2.1312,-2.0953,-2.0638,-2.0318,-2.0186,-2.0028,-1.9804,-1.958,-1.958,-1.9318,-1.9167,-1.8973,-1.8571,-1.8157,-1.8178,-1.7978,-1.7897,-1.7949,-1.7904,-1.7999,-1.8291,-1.8284,-1.8277,-1.8255,-1.8218,-1.8203,-1.8255,-1.8419,-1.8522,-1.8751,-1.9239,-1.9336,-1.9194,-1.927,-1.9257,-1.9091,-1.9431,-1.962,-1.9709,-1.9789,-1.986,-1.9628,-1.9437,-1.9096,-1.883,-1.8379,-1.8031,-1.8039,-1.8117,-1.8241,-1.8443,-1.8551,-1.8666,-1.8743,-1.8827,-1.9188,-1.9795,-2.0801,-2.1719,-2.2639,-2.3357,-2.3917,-2.4454,-2.455,-2.4444,-2.4348,-2.4059,-2.4059,-2.4358,-2.4454,-2.4368,-2.4368,-2.4454,-2.4454,-2.7413,-2.6909,-2.7843,-2.7688,-2.7013,-2.7065,-2.6667,-2.5648,-2.4342,-2.367,-2.3411,-2.2962,-2.2704,-2.2585,-2.2855,-2.3006,-2.299,-2.2895,-2.2887,-2.2887,-2.2887,-2.2879,-2.2903,-2.295,-2.3014,-2.3014,-2.3014,-2.3014,-2.3014,-2.3014,-2.3014,-2.3014,-2.3014,-2.3014,-2.3014,-2.299,-2.2791,-2.2418,-2.218,-2.17,-2.1219,-2.1012,-2.086,-2.0527,-2.0389,-2.0216,-1.999,-1.9834,-1.9701,-1.9678,-1.9132,-1.9132,-1.9095,-1.8651,-1.8316,-1.8265,-1.8213,-1.8184,-1.8196,-1.8225,-1.8247,-1.8291,-1.8364,-1.835,-1.8343,-1.8343,-1.8423,-1.8452,-1.8606,-1.8803,-1.9192,-1.9373,-1.9385,-1.929,-1.9262,-1.9344,-1.9314,-1.9307,-1.9338,-1.9398,-1.9786,-2.0055,-1.9623,-1.921,-1.8943,-1.8583,-1.8187,-1.804,-1.8013,-1.8033,-1.8059,-1.8262,-1.8551,-1.8644,-1.8743,-1.8827,-1.9004,-1.9279,-2.0141,-2.1123,-2.2031,-2.2736,-2.3367,-2.4186,-2.4251,-2.4039,-2.3943,-2.4039,-2.3973,-2.409,-2.4272,-2.4464,-2.4454,-2.4454,-2.4282,-2.6327,-2.5798,-2.6527,-2.6427,-2.5889,-2.6309,-2.5972,-2.5212,-2.4166,-2.3549,-2.3365,-2.2997,-2.2649,-2.2625,-2.2855,-2.3006,-2.3006,-2.3014,-2.3014,-2.3014,-2.3014,-2.3014,-2.299,-2.2998,-2.3014,-2.3014,-2.3014,-2.3006,-2.3014,-2.3014,-2.3014,-2.3014,-2.3014,-2.3014,-2.2958,-2.2815,-2.2458,-2.2119,-2.1671,-2.1305,-2.0809,-2.0809,-2.0529,-2.0279,-2.0144,-1.9934,-1.974,-1.9576,-1.9472,-1.9443,-1.9229,-1.9147,-1.9125,-1.9008,-1.8723,-1.8569,-1.8423,-1.8408,-1.8518,-1.8562,-1.8635,-1.8796,-1.8789,-1.8803,-1.8803,-1.8825,-1.8767,-1.8818,-1.8877,-1.9023,-1.9001,-1.9338,-1.9179,-1.8904,-1.8897,-1.8941,-1.8831,-1.8862,-1.8889,-1.9003,-1.9217,-1.9411,-1.9321,-1.9023,-1.8662,-1.8311,-1.7978,-1.7941,-1.806,-1.7927,-1.7896,-1.8112,-1.8387,-1.8551,-1.8743,-1.9012,-1.9004,-1.9279,-1.9994,-2.0979,-2.1863,-2.2746,-2.3551,-2.4358,-2.4145,-2.3932,-2.4135,-2.4348,-2.409,-2.3907,-2.4272,-2.4454,-2.4464,-2.4378,-2.4282,-2.5331,-2.4889,-2.5542,-2.5432,-2.4991,-2.5344,-2.52,-2.4437,-2.38,-2.3263,-2.3108,-2.2846,-2.2601,-2.2506,-2.2522,-2.2696,-2.2775,-2.2783,-2.2654,-2.2654,-2.2647,-2.2654,-2.2576,-2.2592,-2.256,-2.2503,-2.2639,-2.2838,-2.3014,-2.2909,-2.2901,-2.2901,-2.2901,-2.2909,-2.2854,-2.2592,-2.2049,-2.1658,-2.1178,-2.0894,-2.0613,-2.0469,-2.0265,-1.9814,-1.9673,-1.9688,-1.939,-1.9376,-1.9272,-1.9272,-1.9257,-1.9264,-1.9272,-1.9272,-1.9155,-1.8899,-1.8635,-1.8686,-1.8796,-1.8891,-1.8979,-1.914,-1.9235,-1.9257,-1.9242,-1.9155,-1.9184,-1.9206,-1.9235,-1.9045,-1.8789,-1.8962,-1.8773,-1.8349,-1.8348,-1.8419,-1.8259,-1.815,-1.8271,-1.8441,-1.8692,-1.8836,-1.8897,-1.8776,-1.8408,-1.8282,-1.7963,-1.8125,-1.8191,-1.7956,-1.7904,-1.7983,-1.827,-1.8435,-1.8743,-1.9188,-1.9371,-1.9546,-2.0439,-2.1507,-2.2306,-2.3105,-2.382,-2.4358,-2.4454,-2.4337,-2.4464,-2.4389,-2.411,-2.4024,-2.4368,-2.4454,-2.4464,-2.4378,-2.4196,-2.5542,-2.477,-2.488,-2.4889,-2.4591,-2.409,-2.3754,-2.3502,-2.2687,-2.2177,-2.2245,-2.2185,-2.2116,-2.2092,-2.1884,-2.1963,-2.2025,-2.1992,-2.1888,-2.1888,-2.188,-2.1749,-2.1401,-2.1324,-2.1688,-2.1842,-2.1888,-2.2297,-2.2654,-2.2613,-2.2683,-2.257,-2.2456,-2.2343,-2.2667,-2.2352,-2.195,-2.1643,-2.1256,-2.0757,-2.0317,-2.0059,-1.9931,-1.9773,-1.9729,-1.9626,-1.9308,-1.9272,-1.9272,-1.9272,-1.9272,-1.9272,-1.9272,-1.9272,-1.9264,-1.922,-1.9184,-1.9177,-1.9177,-1.9162,-1.9169,-1.9264,-1.9272,-1.9272,-1.9272,-1.9257,-1.9177,-1.8869,-1.9096,-1.9023,-1.8664,-1.8758,-1.8493,-1.8206,-1.8038,-1.7992,-1.7893,-1.7789,-1.7784,-1.7933,-1.8267,-1.8446,-1.8574,-1.8409,-1.8178,-1.8185,-1.8108,-1.8269,-1.8335,-1.8138,-1.8185,-1.843,-1.8621,-1.8877,-1.9363,-1.972,-1.992,-2.0093,-2.106,-2.2129,-2.2668,-2.329,-2.3734,-2.4186,-2.4368,-2.4506,-2.4481,-2.4395,-2.4074,-2.412,-2.4292,-2.4464,-2.4464,-2.4368,-2.411,-2.3994,-2.348,-2.348,-2.3357,-2.316,-2.2795,-2.2622,-2.2481,-2.2129,-2.1846,-2.1743,-2.1886,-2.1965,-2.1711,-2.1426,-2.1395,-2.1401,-2.133,-2.1315,-2.1322,-2.1307,-2.1231,-2.1154,-2.1101,-2.1215,-2.1261,-2.1322,-2.1462,-2.1937,-2.227,-2.2343,-2.2328,-2.2343,-2.2456,-2.2523,-2.2173,-2.1744,-2.1325,-2.0695,-2.0119,-1.982,-1.9744,-1.9674,-1.9499,-1.9506,-1.9411,-1.9323,-1.9272,-1.9272,-1.9272,-1.9272,-1.9272,-1.9272,-1.9272,-1.9272,-1.9272,-1.9264,-1.9257,-1.9264,-1.9272,-1.9272,-1.9272,-1.9272,-1.9272,-1.9272,-1.9264,-1.9235,-1.9096,-1.9191,-1.9016,-1.8686,-1.8716,-1.8489,-1.8225,-1.7947,-1.7962,-1.7875,-1.7551,-1.7435,-1.7676,-1.7875,-1.8267,-1.8452,-1.8304,-1.8267,-1.8309,-1.8357,-1.8525,-1.8606,-1.8555,-1.8641,-1.8957,-1.9161,-1.9362,-2.0095,-2.0701,-2.0925,-2.1186,-2.1863,-2.2755,-2.3018,-2.3464,-2.4003,-2.4272,-2.4454,-2.4537,-2.4477,-2.4426,-2.4227,-2.4206,-2.4206,-2.4378,-2.4464,-2.411,-2.3841,-2.2712,-2.2251,-2.241,-2.2283,-2.1949,-2.187,-2.183,-2.1822,-2.1711,-2.1544,-2.1336,-2.1341,-2.1352,-2.1201,-2.101,-2.0848,-2.0871,-2.0846,-2.0816,-2.0793,-2.0748,-2.0695,-2.0475,-2.0589,-2.065,-2.0763,-2.0655,-2.0914,-2.1194,-2.1458,-2.173,-2.1888,-2.1964,-2.2222,-2.2325,-2.1958,-2.1406,-2.0884,-2.026,-1.9744,-1.9403,-1.9513,-1.9469,-1.936,-1.9279,-1.9272,-1.9272,-1.9272,-1.9272,-1.9272,-1.9272,-1.9272,-1.9272,-1.9272,-1.9272,-1.9272,-1.9272,-1.9272,-1.9272,-1.9272,-1.9272,-1.9272,-1.9272,-1.9272,-1.9272,-1.9272,-1.9191,-1.9089,-1.9228,-1.9052,-1.8796,-1.8708,-1.8584,-1.8335,-1.8101,-1.8218,-1.8277,-1.8006,-1.7969,-1.8269,-1.8416,-1.8357,-1.8537,-1.8255,-1.8262,-1.8423,-1.8591,-1.8767,-1.8905,-1.9006,-1.9353,-1.9622,-2.0206,-2.0423,-2.0931,-2.1472,-2.1762,-2.2251,-2.293,-2.3396,-2.3677,-2.3927,-2.4282,-2.4454,-2.455,-2.4485,-2.4471,-2.4506,-2.4464,-2.4464,-2.4378,-2.4464,-2.4368,-2.4013,-2.3754,-2.2426,-2.1576,-2.222,-2.2259,-2.1902,-2.1616,-2.1481,-2.136,-2.1171,-2.0885,-2.0716,-2.0431,-2.0442,-2.033,-2.0416,-2.03,-2.024,-2.0214,-2.0111,-1.9972,-1.9891,-1.9864,-1.9761,-1.9716,-1.9655,-1.9975,-2.0064,-2.0382,-2.0648,-2.0892,-2.1115,-2.1234,-2.1541,-2.1744,-2.1836,-2.1662,-2.107,-2.0508,-2.003,-1.9659,-1.944,-1.9403,-1.9374,-1.9367,-1.9316,-1.9286,-1.9286,-1.9367,-1.9352,-1.9352,-1.9345,-1.9286,-1.9294,-1.9279,-1.9272,-1.9272,-1.9345,-1.9352,-1.936,-1.9301,-1.9272,-1.9272,-1.9272,-1.9272,-1.9272,-1.9272,-1.9147,-1.903,-1.9272,-1.9111,-1.8803,-1.8577,-1.884,-1.8738,-1.8657,-1.8694,-1.8745,-1.8628,-1.865,-1.8994,-1.906,-1.895,-1.8921,-1.8803,-1.8642,-1.8782,-1.8883,-1.9045,-1.9502,-1.9666,-2.0035,-2.05,-2.1283,-2.1691,-2.1922,-2.2408,-2.3066,-2.3405,-2.384,-2.4139,-2.4374,-2.4612,-2.455,-2.455,-2.455,-2.455,-2.455,-2.455,-2.455,-2.455,-2.4464,-2.4454,-2.4368,-2.411,-2.3851,-2.2204,-2.1505,-2.1965,-2.1838,-2.1314,-2.1179,-2.102,-2.0844,-2.0898,-2.0958,-2.0795,-2.0605,-2.0384,-2.0315,-2.0253,-2.0145,-2.0012,-1.9972,-1.9755,-1.9557,-1.9433,-1.9381,-1.9279,-1.9301,-1.9352,-1.9513,-1.9659,-1.9813,-2.0077,-2.053,-2.0706,-2.0935,-2.1299,-2.1623,-2.1631,-2.1489,-2.1004,-2.0537,-2.0097,-1.9755,-1.9872,-1.9674,-1.9667,-1.9864,-1.9864,-1.9872,-1.9879,-1.9872,-1.9755,-1.963,-1.9579,-1.9491,-1.9374,-1.9345,-1.9338,-1.936,-1.9477,-1.9564,-1.952,-1.9411,-1.9279,-1.9272,-1.9272,-1.9286,-1.9316,-1.9294,-1.9374,-1.9389,-1.9477,-1.9389,-1.9608,-1.9608,-1.9659,-1.9433,-1.9301,-1.9264,-1.9272,-1.9213,-1.9352,-1.9696,-1.9616,-1.9462,-1.9455,-1.9447,-1.9272,-1.914,-1.9214,-1.928,-1.9842,-2.0506,-2.0907,-2.1646,-2.2531,-2.3153,-2.3372,-2.3923,-2.4534,-2.4626,-2.4702,-2.4794,-2.4881,-2.4592,-2.455,-2.455,-2.455,-2.455,-2.455,-2.455,-2.455,-2.455,-2.4454,-2.4454,-2.4282,-2.4196,-2.3851,-2.1926,-2.1362,-2.1663,-2.1465,-2.0956,-2.0822,-2.0719,-2.056,-2.0651,-2.0749,-2.0848,-2.0607,-2.0448,-2.0463,-2.045,-2.0194,-2.004,-2.0025,-1.9857,-1.9696,-1.955,-1.9433,-1.9389,-1.936,-1.9352,-1.944,-1.9623,-1.9828,-2.0201,-2.0537,-2.0757,-2.1046,-2.1299,-2.1524,-2.1616,-2.1436,-2.1145,-2.0604,-2.0325,-2.0055,-2.0201,-2.004,-1.9959,-2.0172,-2.0172,-2.0172,-2.0157,-2.0135,-2.0077,-1.9959,-1.9879,-1.9791,-1.9659,-1.9564,-1.9564,-1.9638,-1.9747,-1.9894,-1.9828,-1.963,-1.9484,-1.9616,-1.9491,-1.9462,-1.9433,-1.9491,-1.9696,-1.9681,-1.9813,-2.0011,-2.0252,-2.012,-2.0077,-1.9842,-1.974,-1.9718,-1.9916,-1.9967,-2.0164,-2.0391,-2.0216,-2.0047,-1.9959,-1.9916,-1.9542,-1.9352,-1.9206,-1.9583,-2.0491,-2.1156,-2.2012,-2.2885,-2.38,-2.4402,-2.4902,-2.5026,-2.5145,-2.5148,-2.5228,-2.5242,-2.5192,-2.4871,-2.4716,-2.4819,-2.4788,-2.4612,-2.455,-2.4464,-2.4464,-2.455,-2.4454,-2.4454,-2.4282,-2.411,-2.3937,-2.1568,-2.1004,-2.1217,-2.1154,-2.083,-2.0617,-2.0522,-2.0434,-2.0312,-2.0212,-2.0367,-2.0288,-2.0318,-2.0384,-2.0618,-2.0516,-2.0333,-2.0472,-2.042,-2.0091,-1.9842,-1.9762,-1.9645,-1.9542,-1.9535,-1.9703,-1.9901,-2.0201,-2.0603,-2.0742,-2.0925,-2.1072,-2.1288,-2.1432,-2.1668,-2.1668,-2.136,-2.0757,-2.0676,-2.0494,-2.0398,-2.0296,-2.0281,-2.0384,-2.0413,-2.0435,-2.0442,-2.0435,-2.0369,-2.0259,-2.023,-2.0164,-2.0077,-2.0077,-2.0084,-2.012,-2.0172,-2.023,-2.0223,-1.9938,-1.993,-2.0018,-1.9842,-1.9762,-1.9813,-1.9945,-2.0069,-2.0011,-2.0098,-2.023,-2.0281,-2.0296,-2.0355,-2.0333,-2.0237,-2.023,-2.0428,-2.0457,-2.0581,-2.0757,-2.075,-2.0669,-2.0537,-2.034,-1.9864,-1.9564,-1.9352,-1.9887,-2.0806,-2.1667,-2.2533,-2.3601,-2.4519,-2.5054,-2.5464,-2.563,-2.5762,-2.5684,-2.5757,-2.5785,-2.5513,-2.514,-2.5068,-2.5042,-2.4881,-2.4581,-2.4464,-2.4475,-2.4726,-2.4881,-2.4602,-2.4454,-2.4282,-2.4196,-2.4024,-2.1031,-2.0656,-2.0767,-2.0705,-2.0418,-2.0514,-2.0308,-2.0074,-2.0128,-2.0301,-2.0523,-2.0735,-2.0881,-2.0933,-2.0911,-2.0852,-2.064,-2.0589,-2.0545,-2.0267,-2.012,-1.9938,-1.9835,-1.9857,-1.9842,-1.9908,-2.0113,-2.042,-2.0698,-2.0776,-2.0943,-2.1196,-2.0974,-2.1318,-2.1325,-2.1325,-2.1237,-2.1013,-2.0867,-2.0742,-2.083,-2.0691,-2.0536,-2.0718,-2.083,-2.071,-2.0808,-2.0794,-2.072,-2.0589,-2.0559,-2.0486,-2.0347,-2.0303,-2.0281,-2.0325,-2.0391,-2.0676,-2.072,-2.0603,-2.0333,-2.0274,-2.0172,-2.0084,-2.0106,-2.0157,-2.0252,-2.0377,-2.0457,-2.0633,-2.0837,-2.0881,-2.0911,-2.0867,-2.0794,-2.0772,-2.0837,-2.072,-2.0742,-2.0969,-2.105,-2.0706,-2.0501,-2.0457,-2.0091,-1.9842,-1.9645,-2.003,-2.0893,-2.1827,-2.2776,-2.3881,-2.4758,-2.5382,-2.5925,-2.6024,-2.6164,-2.6253,-2.6227,-2.6269,-2.5958,-2.5492,-2.5197,-2.5098,-2.4815,-2.455,-2.4726,-2.4912,-2.5181,-2.5244,-2.4985,-2.4767,-2.466,-2.4492,-2.4292,-2.0597,-2.0331,-2.0427,-2.03,-1.9998,-2.0197,-2.0051,-1.9829,-2.0111,-2.042,-2.0735,-2.105,-2.1189,-2.1189,-2.1181,-2.1137,-2.0896,-2.0889,-2.0852,-2.0559,-2.0435,-2.0318,-2.0237,-2.0186,-2.0172,-2.0201,-2.0442,-2.0757,-2.0805,-2.0637,-2.0134,-1.9903,-2.027,-2.0026,-2.0148,-2.0378,-2.1203,-2.1123,-2.1013,-2.0998,-2.0936,-2.0687,-2.0523,-2.0759,-2.0816,-2.0587,-2.1074,-2.1174,-2.1123,-2.094,-2.0845,-2.0786,-2.0611,-2.0559,-2.0567,-2.0655,-2.0757,-2.1006,-2.105,-2.1028,-2.0772,-2.0647,-2.0494,-2.0413,-2.0442,-2.0559,-2.0603,-2.0706,-2.0815,-2.0969,-2.1137,-2.1211,-2.1181,-2.1123,-2.1108,-2.1072,-2.1042,-2.0925,-2.0918,-2.1145,-2.113,-2.0764,-2.0435,-2.0398,-2.0267,-2.0098,-1.9938,-2.0431,-2.082,-2.1669,-2.2662,-2.3701,-2.4609,-2.5109,-2.5713,-2.6254,-2.6426,-2.6688,-2.6679,-2.6568,-2.6392,-2.5937,-2.5509,-2.5194,-2.5228,-2.5202,-2.515,-2.5295,-2.5554,-2.5595,-2.542,-2.5202,-2.5016,-2.4805,-2.4702,-2.0078,-2.0078,-2.0078,-1.9894,-1.968,-1.968,-1.9754,-1.9769,-2.0091,-2.0413,-2.075,-2.1064,-2.1211,-2.1211,-2.1211,-2.1189,-2.1159,-2.1159,-2.113,-2.1057,-2.0718,-2.0713,-2.0574,-2.0354,-2.0368,-2.0618,-2.0794,-2.0955,-2.106,-2.0141,-1.8971,-1.8163,-1.892,-1.881,-1.8933,-1.9589,-2.0491,-2.0291,-2.058,-2.0558,-2.0587,-2.0235,-2.0444,-2.0737,-2.0622,-2.0622,-2.0859,-2.1196,-2.1196,-2.1159,-2.1159,-2.1174,-2.1174,-2.1196,-2.1196,-2.1189,-2.1167,-2.1181,-2.1189,-2.1145,-2.1145,-2.0991,-2.0867,-2.0779,-2.0794,-2.0911,-2.0925,-2.0925,-2.0991,-2.1094,-2.1211,-2.1211,-2.1203,-2.1189,-2.1189,-2.1181,-2.1181,-2.1152,-2.1152,-2.1189,-2.1137,-2.0874,-2.0523,-2.0406,-2.0318,-2.0208,-2.0155,-2.0267,-2.0695,-2.1194,-2.217,-2.3393,-2.4196,-2.4698,-2.5401,-2.6197,-2.6506,-2.6805,-2.6691,-2.6517,-2.6413,-2.6382,-2.6011,-2.5836,-2.5927,-2.5865,-2.5771,-2.5792,-2.5927,-2.5916,-2.6009,-2.573,-2.5564,-2.5357,-2.5176,-1.9879,-1.9783,-1.9576,-1.948,-1.9376,-1.9376,-1.9567,-1.9784,-2.0106,-2.0413,-2.0742,-2.1064,-2.1203,-2.1211,-2.1211,-2.1211,-2.1211,-2.1211,-2.1203,-2.1137,-2.095,-2.0798,-2.0718,-2.0576,-2.0583,-2.0718,-2.094,-2.1086,-2.0823,-1.9917,-1.8635,-1.7806,-1.7891,-1.7821,-1.7906,-1.8507,-1.8688,-1.8875,-1.9399,-1.9931,-2.0155,-2.0033,-2.05,-2.0737,-2.0622,-2.0737,-2.0974,-2.1211,-2.1211,-2.1211,-2.1211,-2.1211,-2.1211,-2.1211,-2.1203,-2.1203,-2.1203,-2.1211,-2.1211,-2.1211,-2.1211,-2.1211,-2.1094,-2.1101,-2.1101,-2.1115,-2.1152,-2.1123,-2.1101,-2.1174,-2.1211,-2.1211,-2.1211,-2.1211,-2.1211,-2.1211,-2.1211,-2.1211,-2.1203,-2.1159,-2.1108,-2.0859,-2.0523,-2.0355,-2.0267,-2.0201,-2.0251,-2.0394,-2.0475,-2.0855,-2.1458,-2.2679,-2.3692,-2.4196,-2.5401,-2.6207,-2.6506,-2.6744,-2.665,-2.6651,-2.6796,-2.6734,-2.6486,-2.6351,-2.631,-2.632,-2.633,-2.6372,-2.6403,-2.6734,-2.6827,-2.6444,-2.6103,-2.5885,-2.554,-1.9576,-1.948,-1.9376,-1.9272,-1.9294,-1.9411,-1.9652,-1.9952,-2.0157,-2.0472,-2.0911,-2.113,-2.1211,-2.1211,-2.1211,-2.1211,-2.1211,-2.1211,-2.1211,-2.1203,-2.0967,-2.0972,-2.0929,-2.0837,-2.0936,-2.105,-2.1072,-2.1181,-2.0773,-1.9362,-1.7984,-1.6244,-1.674,-1.6763,-1.6703,-1.6881,-1.6825,-1.7121,-1.7678,-1.8738,-1.9372,-1.9693,-2.0033,-2.0974,-2.0859,-2.0744,-2.1211,-2.1211,-2.1211,-2.1211,-2.1211,-2.1211,-2.1211,-2.1211,-2.1211,-2.1211,-2.1211,-2.1211,-2.1211,-2.1211,-2.1211,-2.1211,-2.1211,-2.1196,-2.1189,-2.1189,-2.1196,-2.1189,-2.1196,-2.1211,-2.1211,-2.1211,-2.1211,-2.1211,-2.1211,-2.1211,-2.1211,-2.1211,-2.1174,-2.1123,-2.0962,-2.0735,-2.0516,-2.0355,-2.0252,-2.0267,-2.0245,-2.0295,-2.0219,-2.0317,-2.0817,-2.1656,-2.2802,-2.3692,-2.4992,-2.61,-2.6506,-2.6713,-2.6701,-2.6817,-2.7076,-2.6993,-2.6672,-2.662,-2.6662,-2.6703,-2.6755,-2.6827,-2.691,-2.7179,-2.7293,-2.6898,-2.6527,-2.6187,-2.587,-1.9272,-1.9279,-1.9272,-1.9301,-1.936,-1.963,-1.9945,-2.0259,-2.0303,-2.0618,-2.1123,-2.1203,-2.1211,-2.1211,-2.1211,-2.1211,-2.1211,-2.1211,-2.1211,-2.1211,-2.1089,-2.1038,-2.1159,-2.1196,-2.1038,-2.1189,-2.1103,-2.0895,-2.0287,-1.8919,-1.7011,-1.4553,-1.5436,-1.5691,-1.5212,-1.5784,-1.5758,-1.5396,-1.6442,-1.7739,-1.8542,-1.8551,-1.8635,-2.0622,-2.0507,-2.0033,-2.0859,-2.1211,-2.1211,-2.1211,-2.1203,-2.1089,-2.1089,-2.1089,-2.1089,-2.1211,-2.1211,-2.1211,-2.1211,-2.1211,-2.1211,-2.1211,-2.1211,-2.1211,-2.1211,-2.1211,-2.1211,-2.1211,-2.1211,-2.1211,-2.1211,-2.1211,-2.1211,-2.1211,-2.1211,-2.1211,-2.1211,-2.1211,-2.1196,-2.1094,-2.0867,-2.0676,-2.0742,-2.0589,-2.0245,-2.0303,-2.0216,-2.015,-1.9952,-1.9909,-2.0361,-2.0925,-2.181,-2.2985,-2.4492,-2.5499,-2.6304,-2.6567,-2.6742,-2.6931,-2.7158,-2.7034,-2.6827,-2.6868,-2.6941,-2.7076,-2.7158,-2.7148,-2.7127,-2.7136,-2.7228,-2.7153,-2.6873,-2.6574,-2.6222,-1.9272,-1.9272,-1.9272,-1.9411,-1.9638,-1.9733,-2.0084,-2.0589,-2.0611,-2.0815,-2.1152,-2.1203,-2.1211,-2.1211,-2.1211,-2.1211,-2.1211,-2.1211,-2.1211,-2.1089,-2.0974,-2.1089,-2.1089,-2.1081,-2.0967,-2.1089,-2.1003,-2.0273,-1.9082,-1.7986,-1.682,-1.4586,-1.4945,-1.4803,-1.4567,-1.5278,-1.5046,-1.468,-1.5226,-1.6708,-1.808,-1.9148,-1.9814,-2.0736,-2.0759,-2.0759,-2.1225,-2.1203,-2.1211,-2.1211,-2.096,-2.0845,-2.0838,-2.0852,-2.0981,-2.1096,-2.1284,-2.1306,-2.1306,-2.132,-2.1328,-2.1276,-2.1262,-2.1225,-2.1211,-2.1211,-2.1211,-2.1218,-2.1211,-2.1211,-2.1211,-2.1211,-2.1211,-2.1211,-2.1211,-2.1211,-2.1211,-2.1211,-2.1211,-2.0998,-2.0772,-2.075,-2.0823,-2.0662,-2.0369,-2.0142,-1.9967,-1.9828,-1.963,-1.9523,-1.9956,-2.0498,-2.0901,-2.2089,-2.3692,-2.4913,-2.5732,-2.6536,-2.6884,-2.7105,-2.7251,-2.7138,-2.7024,-2.7138,-2.7231,-2.7272,-2.7272,-2.7251,-2.7262,-2.7184,-2.7211,-2.7207,-2.7215,-2.6929,-2.6523,-1.8928,-1.9074,-1.922,-1.9381,-1.955,-1.9696,-1.9974,-2.0303,-2.0596,-2.0823,-2.1006,-2.113,-2.1211,-2.1211,-2.1211,-2.1211,-2.1211,-2.1211,-2.1211,-2.1089,-2.1089,-2.1089,-2.1089,-2.0967,-2.1081,-2.1089,-2.0413,-1.9506,-1.8064,-1.7165,-1.6193,-1.4784,-1.4709,-1.4761,-1.4775,-1.487,-1.4879,-1.477,-1.4627,-1.5818,-1.7562,-1.8663,-1.9932,-2.0805,-2.1423,-2.1379,-2.1103,-2.1081,-2.096,-2.0917,-2.0743,-2.0706,-2.0776,-2.1,-2.1277,-2.1423,-2.1554,-2.1635,-2.1496,-2.1474,-2.1474,-2.1343,-2.1504,-2.1701,-2.1249,-2.1235,-2.135,-2.1335,-2.1225,-2.1211,-2.1211,-2.1211,-2.1211,-2.1211,-2.1211,-2.1211,-2.1211,-2.1211,-2.1094,-2.0874,-2.0647,-2.0464,-2.0464,-2.0274,-2.0025,-1.9974,-1.9798,-1.9652,-1.9418,-1.9294,-1.9695,-2.0124,-2.0553,-2.1615,-2.3294,-2.4332,-2.5087,-2.5879,-2.7043,-2.7017,-2.7071,-2.7262,-2.7262,-2.7272,-2.7272,-2.7272,-2.7272,-2.7303,-2.7383,-2.7355,-2.738,-2.7306,-2.7242,-2.7262,-2.6963,-1.8511,-1.8818,-1.914,-1.9316,-1.9374,-1.9638,-1.9813,-1.9945,-2.0406,-2.0684,-2.0779,-2.102,-2.1145,-2.1203,-2.1211,-2.1211,-2.1211,-2.1211,-2.1211,-2.1211,-2.1211,-2.1211,-2.1211,-2.1203,-2.1203,-2.0773,-2.0123,-1.9207,-1.7967,-1.705,-1.6176,-1.5101,-1.4922,-1.4931,-1.4931,-1.4805,-1.4777,-1.4633,-1.486,-1.5827,-1.702,-1.8173,-1.9624,-2.0893,-2.1737,-2.1606,-2.13,-2.1039,-2.0802,-2.0592,-2.0604,-2.0501,-2.0641,-2.0885,-2.1152,-2.1425,-2.1622,-2.1651,-2.1701,-2.168,-2.147,-2.1512,-2.1937,-2.1828,-2.1464,-2.1298,-2.1409,-2.1285,-2.1176,-2.1211,-2.1096,-2.1211,-2.1211,-2.1211,-2.1211,-2.1211,-2.1211,-2.1211,-2.102,-2.0815,-2.0655,-2.0435,-2.0237,-2.004,-1.9916,-1.985,-1.9703,-1.9528,-1.9396,-1.9352,-1.9531,-1.9814,-2.0195,-2.1447,-2.3099,-2.3953,-2.4692,-2.6537,-2.7498,-2.7201,-2.6986,-2.7177,-2.7272,-2.7272,-2.7272,-2.7303,-2.7345,-2.7301,-2.741,-2.7405,-2.7572,-2.7573,-2.7441,-2.7406,-2.7284,-1.8496,-1.8818,-1.914,-1.9418,-1.9645,-1.9733,-1.9901,-2.0135,-2.0245,-2.0464,-2.0558,-2.0779,-2.094,-2.1211,-2.1211,-2.1089,-2.0852,-2.0974,-2.1089,-2.1211,-2.0974,-2.1089,-2.1089,-2.0974,-2.1211,-2.0795,-2.0082,-1.9015,-1.7901,-1.6982,-1.596,-1.4685,-1.4879,-1.4786,-1.4791,-1.4665,-1.4539,-1.4403,-1.453,-1.5125,-1.7129,-1.8297,-1.9536,-2.0732,-2.1962,-2.1799,-2.1683,-2.1349,-2.1028,-2.0592,-2.0261,-2.0103,-2.0206,-2.0524,-2.0802,-2.1216,-2.1421,-2.1527,-2.1555,-2.1583,-2.1483,-2.1341,-2.1583,-2.1498,-2.116,-2.097,-2.096,-2.0921,-2.08,-2.0888,-2.0974,-2.1089,-2.1089,-2.1211,-2.1211,-2.1211,-2.1211,-2.1211,-2.113,-2.1072,-2.102,-2.0815,-2.0633,-2.0442,-2.0267,-2.015,-1.9916,-1.974,-1.952,-1.9447,-1.9411,-1.9753,-2.0091,-2.1611,-2.3262,-2.3797,-2.4754,-2.6602,-2.7965,-2.7729,-2.7451,-2.7303,-2.7293,-2.7531,-2.7448,-2.7396,-2.7438,-2.7538,-2.7354,-2.7501,-2.7772,-2.7875,-2.7668,-2.7594,-2.7604]},{"header":{"parameterUnit":"m.s-1","parameterCategory":1,"la1":31.0,"la2":29.5877,"lo1":-88.7671,"lo2":-86.6584,"dy":0.0162,"dx":0.0185,"nx":115,"ny":88,"refTime":"2023-06-22T06:00:00:Z","depth":0,"parameterNumber":3,"parameterNumberName":"V-component_of_WINDS"},"data":[0.0,0.0,0.0,0.0,0.0,0.0,0.0,0.0,0.0,0.0,0.0,0.0,0.0,0.0,0.0,0.0,0.0,0.0,0.0,0.0,0.0,0.0,0.0,0.0,0.0,0.0,0.0,0.0,0.0,0.0,0.0,0.0,0.0,0.0,0.0,0.0,0.0,0.0,0.0,0.0,0.0,0.0,0.0,0.0,0.0,0.0,0.0,0.0,0.0,0.0,0.0,0.0,0.0,0.0,0.0,0.0,0.0,0.0,0.0,0.0,0.0,0.0,0.0,0.0,0.0,0.0,0.0,0.0,0.0,0.0,0.0,0.0,0.0,0.0,0.0,0.0,0.0,0.0,0.0,0.0,0.0,0.0,0.0,0.0,0.0,0.0,0.0,0.0,0.0,0.0,0.0,0.0,0.0,0.0,0.0,0.0,0.0,0.0,0.0,0.0,0.0,0.0,0.0,0.0,0.0,0.0,0.0,0.0,0.0,0.0,0.0,0.0,0.0,0.0,0.0,0.0,0.0,0.0,0.0,0.0,0.0,0.0,0.0,0.0,0.0,0.0,0.0,0.0,0.0,0.0,0.0,0.0,0.0,0.0,0.0,0.0,0.0,0.0,0.0,0.0,0.0,0.0,0.0,0.0,0.0,0.0,0.0,0.0,0.0,0.0,0.0,0.0,0.0,0.0,0.0,0.0,0.0,0.0,0.0,0.0,0.0,0.0,0.0,0.0,0.0,0.0,0.0,0.0,0.0,0.0,0.0,0.0,0.0,0.0,0.0,0.0,0.0,0.0,0.0,0.0,0.0,0.0,0.0,0.0,0.0,0.0,0.0,0.0,0.0,0.0,0.0,0.0,0.0,0.0,0.0,0.0,0.0,0.0,0.0,0.0,0.0,0.0,0.0,0.0,0.0,0.0,0.0,0.0,0.0,0.0,0.0,0.0,0.0,0.0,0.0,0.0,0.0,0.0,0.0,0.0,0.0,0.0,0.0,0.0,0.0,0.0,0.0,0.0,0.0,0.0,0.0,0.0,0.0,0.0,0.0,0.0,0.0,0.0,0.0,0.0,0.0,0.0,0.0,0.0,0.0,0.0,0.0,0.0,0.0,0.0,0.0,0.0,0.0,0.0,0.0,0.0,0.0,0.0,0.0,0.0,0.0,0.0,0.0,0.0,0.0,0.0,0.0,0.0,0.0,0.0,0.0,0.0,0.0,0.0,0.0,0.0,0.0,0.0,0.0,0.0,0.0,0.0,0.0,0.0,0.0,0.0,0.0,0.0,0.0,0.0,0.0,0.0,0.0,0.0,0.0,0.0,0.0,0.0,0.0,0.0,0.0,0.0,0.0,0.0,0.0,0.0,0.0,0.0,0.0,0.0,0.0,0.0,0.0,0.0,0.0,0.0,0.0,0.0,0.0,0.0,0.0,0.0,0.0,0.0,0.0,0.0,0.0,0.0,0.0,0.0,0.0,0.0,0.0,0.0,0.0,0.0,0.0,0.0,0.0,0.0,0.0,0.0,0.0,0.0,0.0,0.0,0.0,0.0,0.0,0.0,0.0,0.0,0.0,0.0,0.0,0.0,0.0,0.0,0.0,0.0,0.0,0.0,0.0,0.0,0.0,0.0,0.0,0.0,0.0,0.0,0.0,0.0,0.0,0.0,0.0,0.0,0.0,0.0,0.0,0.0,0.0,0.0,0.0,0.0,0.0,0.0,0.0,0.0,0.0,0.0,0.0,0.0,0.0,0.0,0.0,0.0,0.0,0.0,0.0,0.0,0.0,0.0,0.0,0.0,0.0,0.0,0.0,0.0,0.0,0.0,0.0,0.0,0.0,0.0,0.0,0.0,0.0,0.0,0.0,0.0,0.0,0.0,0.0,0.0,0.0,0.0,0.0,0.0,0.0,0.0,0.0,0.0,0.0,0.0,0.0,0.0,0.0,0.0,0.0,0.0,0.0,0.0,0.0,0.0,0.0,0.0,0.0,0.0,0.0,0.0,0.0,0.0,0.0,0.0,0.0,0.0,0.0,0.0,0.0,0.0,0.0,0.0,0.0,0.0,0.0,0.0,0.0,0.0,0.0,0.0,0.0,0.0,0.0,0.0,0.0,0.0,0.0,0.0,0.0,0.0,0.0,0.0,0.0,0.0,0.0,0.0,0.0,0.0,0.0,0.0,0.0,0.0,0.0,0.0,0.0,0.0,0.0,0.0,0.0,0.0,0.0,0.0,0.0,0.0,0.0,0.0,0.0,0.0,0.0,0.0,0.0,0.0,0.0,0.0,0.0,0.0,0.0,0.0,0.0,0.0,0.0,0.0,0.0,0.0,0.0,0.0,0.0,0.0,0.0,0.0,0.0,0.0,0.0,0.0,0.0,0.0,0.0,0.0,0.0,0.0,0.0,0.0,0.0,0.0,0.0,0.0,0.0,0.0,0.0,0.0,0.0,0.0,0.0,0.0,0.0,0.0,0.0,0.0,0.0,0.0,0.0,0.0,0.0,0.0,0.0,0.0,0.0,0.0,0.0,0.0,0.0,0.0,0.0,0.0,0.0,0.0,0.0,0.0,0.0,0.0,0.0,0.0,0.0,0.0,0.0,0.0,0.0,0.0,0.0,0.0,0.0,0.0,0.0,0.0,0.0,0.0,0.0,0.0,0.0,0.0,0.0,0.0,0.0,0.0,0.0,0.0,0.0,0.0,0.0,0.0,0.0,0.0,0.0,0.0,0.0,0.0,0.0,0.0,0.0,0.0,0.0,0.0,0.0,0.0,0.0,0.0,0.0,0.0,0.0,0.0,0.0,0.0,0.0,0.0,0.0,0.0,0.0,0.0,0.0,0.0,0.0,0.0,0.0,0.0,0.0,0.0,0.0,0.0,0.0,0.0,0.0,0.0,0.0,0.0,0.0,0.0,0.0,0.0,0.0,0.0,0.0,0.0,0.0,0.0,0.0,0.0,0.0,0.0,0.0,0.0,0.0,0.0,0.0,0.0,0.0,0.0,0.0,0.0,0.0,0.0,0.0,0.0,0.0,0.0,0.0,0.0,0.0,0.0,0.0,0.0,0.0,0.0,0.0,0.0,0.0,0.0,0.0,0.0,0.0,0.0,0.0,0.0,0.0,0.0,0.0,0.0,0.0,0.0,0.0,0.0,0.0,0.0,0.0,0.0,0.0,0.0,0.0,0.0,0.0,0.0,0.0,0.0,0.0,0.0,0.0,0.0,0.0,0.0,0.0,0.0,0.0,0.0,0.0,0.0,0.0,0.0,0.0,0.0,0.0,0.0,0.0,0.0,0.0,0.0,0.0,0.0,0.0,0.0,0.0,0.0,0.0,0.0,0.0,0.0,0.0,0.0,0.0,0.0,0.0,0.0,0.0,0.0,0.0,0.0,0.0,0.0,0.0,0.0,0.0,0.0,0.0,0.0,0.0,0.0,0.0,0.0,0.0,0.0,0.0,0.0,0.0,0.0,0.0,0.0,0.0,0.0,0.0,0.0,0.0,0.0,0.0,0.0,0.0,0.0,0.0,0.0,0.0,0.0,0.0,0.0,0.0,0.0,0.0,0.0,0.0,0.0,0.0,0.0,0.0,0.0,0.0,0.0,0.0,0.0,0.0,0.0,0.0,0.0,0.0,0.0,0.0,0.0,0.0,0.0,0.0,0.0,0.0,0.0,0.0,0.0,0.0,0.0,0.0,0.0,0.0,0.0,0.0,0.0,0.0,0.0,0.0,0.0,0.0,0.0,0.0,0.0,0.0,0.0,0.0,0.0,0.0,0.0,0.0,0.0,0.0,0.0,0.0,0.0,0.0,0.0,0.0,0.0,0.0,0.0,0.0,0.0,0.0,0.0,0.0,0.0,0.0,0.0,0.0,0.0,0.0,0.0,0.0,0.0,0.0,0.0,0.0,0.0,0.0,0.0,0.0,0.0,0.0,0.0,0.0,0.0,0.0,0.0,0.0,0.0,0.0,0.0,0.0,0.0,0.0,0.0,0.0,0.0,0.0,0.0,0.0,0.0,0.0,0.0,0.0,0.0,0.0,0.0,0.0,0.0,0.0,0.0,0.0,0.0,0.0,0.0,0.0,0.0,0.0,0.0,0.0,0.0,0.0,0.0,0.0,0.0,0.0,0.0,0.0,0.0,0.0,0.0,0.0,0.0,0.0,0.0,0.0,0.0,0.0,0.0,0.0,0.0,0.0,0.0,0.0,0.0,0.0,0.0,0.0,0.0,0.0,0.0,0.0,0.0,0.0,0.0,0.0,0.0,0.0,0.0,0.0,0.0,-1.79,0.0,0.0,0.0,0.0,0.0,0.0,0.0,0.0,0.0,0.0,0.0,0.0,0.0,0.0,0.0,0.0,0.0,0.0,0.0,0.0,0.0,0.0,0.0,0.0,0.0,0.0,0.0,0.0,0.0,0.0,0.0,0.0,0.0,0.0,0.0,0.0,0.0,0.0,0.0,0.0,0.0,0.0,0.0,0.0,0.0,0.0,0.0,0.0,0.0,0.0,0.0,0.0,0.0,0.0,0.0,0.0,0.0,0.0,0.0,0.0,0.0,0.0,0.0,0.0,0.0,0.0,0.0,0.0,0.0,0.0,0.0,0.0,0.0,0.0,0.0,0.0,0.0,0.0,0.0,0.0,0.0,0.0,0.0,0.0,0.0,0.0,0.0,0.0,0.0,0.0,0.0,0.0,0.0,0.0,0.0,0.0,0.0,0.0,0.0,0.0,0.0,0.0,0.0,0.0,0.0,0.0,0.0,0.0,0.0,0.0,-1.7884,-1.7,-1.8774,-1.9203,-1.8002,0.0,0.0,0.0,0.0,0.0,0.0,0.0,0.0,0.0,0.0,0.0,0.0,0.0,0.0,0.0,0.0,0.0,0.0,0.0,0.0,0.0,0.0,0.0,0.0,0.0,0.0,0.0,0.0,0.0,0.0,0.0,0.0,0.0,0.0,0.0,0.0,0.0,0.0,0.0,0.0,0.0,0.0,0.0,0.0,0.0,0.0,0.0,0.0,0.0,0.0,0.0,0.0,0.0,0.0,0.0,0.0,0.0,0.0,0.0,0.0,0.0,0.0,0.0,0.0,0.0,0.0,0.0,0.0,0.0,0.0,0.0,0.0,0.0,0.0,0.0,0.0,0.0,0.0,0.0,0.0,0.0,0.0,0.0,0.0,0.0,0.0,0.0,0.0,0.0,0.0,0.0,0.0,0.0,0.0,0.0,0.0,0.0,0.0,0.0,0.0,0.0,0.0,0.0,0.0,0.0,0.0,0.0,0.0,0.0,0.0,0.0,0.0,-1.9346,-1.9904,-1.8796,0.0,0.0,0.0,0.0,0.0,0.0,0.0,0.0,0.0,0.0,0.0,0.0,0.0,0.0,0.0,0.0,0.0,0.0,0.0,0.0,0.0,0.0,0.0,0.0,0.0,0.0,0.0,0.0,0.0,0.0,0.0,0.0,0.0,0.0,0.0,0.0,0.0,0.0,0.0,0.0,0.0,0.0,0.0,0.0,0.0,0.0,0.0,0.0,0.0,0.0,0.0,0.0,0.0,0.0,0.0,0.0,0.0,0.0,0.0,0.0,0.0,0.0,0.0,0.0,0.0,0.0,0.0,0.0,0.0,0.0,0.0,0.0,0.0,0.0,0.0,0.0,0.0,0.0,0.0,0.0,0.0,0.0,0.0,0.0,0.0,0.0,0.0,0.0,0.0,0.0,0.0,0.0,0.0,0.0,0.0,0.0,0.0,0.0,0.0,0.0,0.0,0.0,0.0,0.0,0.0,0.0,0.0,0.0,0.0,0.0,-1.8179,-1.9657,-2.0779,0.0,-2.1106,0.0,0.0,0.0,0.0,0.0,0.0,0.0,0.0,0.0,0.0,0.0,0.0,0.0,0.0,0.0,0.0,0.0,0.0,0.0,0.0,0.0,0.0,0.0,0.0,0.0,0.0,0.0,0.0,0.0,0.0,0.0,0.0,0.0,0.0,0.0,0.0,0.0,0.0,0.0,0.0,0.0,0.0,0.0,0.0,0.0,0.0,0.0,0.0,0.0,0.0,0.0,0.0,0.0,0.0,0.0,0.0,0.0,0.0,0.0,0.0,0.0,0.0,0.0,0.0,0.0,0.0,0.0,0.0,0.0,0.0,0.0,0.0,0.0,0.0,0.0,0.0,0.0,0.0,0.0,0.0,0.0,0.0,0.0,0.0,0.0,0.0,0.0,0.0,0.0,0.0,0.0,0.0,0.0,0.0,0.0,0.0,0.0,0.0,0.0,0.0,0.0,0.0,0.0,0.0,0.0,0.0,0.0,0.0,0.0,0.0,-1.8643,-2.0366,-2.1318,-2.1565,0.0,0.0,0.0,0.0,0.0,0.0,0.0,0.0,0.0,0.0,0.0,0.0,0.0,0.0,0.0,0.0,0.0,0.0,0.0,0.0,0.0,0.0,0.0,0.0,0.0,0.0,0.0,0.0,0.0,0.0,0.0,0.0,0.0,0.0,0.0,0.0,0.0,0.0,0.0,0.0,0.0,0.0,0.0,0.0,0.0,0.0,0.0,0.0,0.0,0.0,0.0,0.0,0.0,0.0,0.0,0.0,0.0,0.0,0.0,0.0,0.0,0.0,0.0,0.0,0.0,0.0,0.0,0.0,0.0,0.0,0.0,0.0,0.0,0.0,0.0,0.0,0.0,0.0,0.0,0.0,0.0,0.0,0.0,0.0,0.0,0.0,0.0,0.0,0.0,0.0,0.0,0.0,0.0,0.0,0.0,0.0,0.0,0.0,0.0,0.0,0.0,0.0,0.0,0.0,0.0,0.0,0.0,0.0,0.0,0.0,-1.8057,-1.9306,-2.1197,-2.1641,-2.1662,-2.1288,0.0,0.0,0.0,0.0,0.0,0.0,0.0,0.0,0.0,0.0,0.0,0.0,0.0,0.0,0.0,0.0,0.0,0.0,0.0,0.0,0.0,0.0,0.0,0.0,0.0,0.0,0.0,0.0,0.0,0.0,0.0,0.0,0.0,0.0,0.0,0.0,0.0,0.0,0.0,0.0,0.0,0.0,0.0,0.0,0.0,0.0,0.0,0.0,0.0,0.0,0.0,0.0,0.0,0.0,0.0,0.0,0.0,0.0,0.0,0.0,0.0,0.0,0.0,0.0,0.0,0.0,0.0,0.0,0.0,0.0,0.0,0.0,0.0,0.0,0.0,0.0,0.0,0.0,0.0,0.0,0.0,0.0,0.0,0.0,0.0,0.0,0.0,0.0,0.0,0.0,0.0,0.0,0.0,0.0,0.0,0.0,0.0,0.0,0.0,0.0,0.0,0.0,0.0,0.0,0.0,0.0,0.0,0.0,-1.9922,-1.9369,-2.024,-2.2774,-2.1938,-2.164,0.0,0.0,0.0,0.0,0.0,0.0,0.0,0.0,0.0,0.0,0.0,0.0,0.0,0.0,0.0,0.0,0.0,0.0,0.0,0.0,0.0,0.0,0.0,0.0,0.0,0.0,0.0,0.0,0.0,0.0,0.0,0.0,0.0,0.0,0.0,0.0,0.0,0.0,0.0,0.0,0.0,0.0,0.0,0.0,0.0,0.0,0.0,0.0,0.0,0.0,0.0,0.0,0.0,0.0,0.0,0.0,0.0,0.0,0.0,0.0,0.0,0.0,0.0,0.0,0.0,0.0,0.0,0.0,0.0,0.0,0.0,0.0,0.0,0.0,0.0,0.0,0.0,0.0,0.0,0.0,0.0,0.0,0.0,0.0,0.0,0.0,0.0,0.0,0.0,0.0,0.0,0.0,0.0,0.0,0.0,0.0,0.0,0.0,0.0,0.0,0.0,0.0,0.0,0.0,0.0,0.0,0.0,0.0,0.0,-1.8579,-1.9984,-2.1657,-2.3475,-2.2411,-2.2349,0.0,0.0,0.0,0.0,0.0,0.0,0.0,0.0,0.0,0.0,0.0,0.0,0.0,0.0,0.0,0.0,0.0,0.0,0.0,0.0,0.0,0.0,0.0,0.0,0.0,0.0,0.0,0.0,0.0,0.0,0.0,0.0,0.0,0.0,0.0,0.0,0.0,0.0,0.0,0.0,0.0,0.0,0.0,0.0,0.0,0.0,0.0,0.0,0.0,0.0,0.0,0.0,0.0,0.0,0.0,0.0,0.0,0.0,0.0,0.0,0.0,0.0,0.0,0.0,0.0,0.0,0.0,0.0,0.0,0.0,0.0,0.0,0.0,0.0,0.0,0.0,0.0,0.0,0.0,0.0,0.0,0.0,0.0,0.0,0.0,0.0,0.0,0.0,0.0,0.0,0.0,0.0,0.0,0.0,0.0,0.0,0.0,0.0,0.0,0.0,0.0,0.0,0.0,0.0,0.0,0.0,0.0,0.0,0.0,-1.9245,0.0,-2.3047,-2.3653,-2.2775,-2.2491,0.0,0.0,0.0,0.0,0.0,0.0,0.0,0.0,0.0,0.0,0.0,0.0,0.0,0.0,0.0,0.0,0.0,0.0,0.0,0.0,0.0,0.0,0.0,0.0,0.0,0.0,0.0,0.0,0.0,0.0,0.0,0.0,0.0,0.0,0.0,0.0,0.0,0.0,0.0,0.0,0.0,0.0,0.0,0.0,0.0,0.0,0.0,0.0,0.0,0.0,0.0,0.0,0.0,0.0,0.0,0.0,0.0,0.0,0.0,0.0,0.0,0.0,0.0,0.0,0.0,0.0,0.0,0.0,0.0,0.0,0.0,0.0,0.0,0.0,0.0,0.0,0.0,0.0,0.0,0.0,0.0,0.0,0.0,0.0,0.0,0.0,0.0,0.0,0.0,0.0,0.0,0.0,0.0,0.0,0.0,0.0,0.0,0.0,0.0,0.0,0.0,0.0,0.0,0.0,0.0,0.0,0.0,0.0,-1.9515,-2.2277,-2.3858,-2.4159,-2.3215,-2.2912,-2.1991,0.0,0.0,0.0,0.0,0.0,0.0,0.0,0.0,0.0,0.0,0.0,0.0,0.0,0.0,0.0,0.0,0.0,0.0,0.0,0.0,0.0,0.0,0.0,0.0,0.0,0.0,0.0,0.0,0.0,0.0,0.0,0.0,0.0,0.0,0.0,0.0,0.0,0.0,0.0,0.0,0.0,0.0,0.0,0.0,0.0,0.0,0.0,0.0,0.0,0.0,0.0,0.0,0.0,0.0,0.0,0.0,0.0,0.0,0.0,0.0,0.0,0.0,0.0,0.0,0.0,0.0,0.0,0.0,0.0,0.0,0.0,0.0,0.0,0.0,0.0,0.0,0.0,0.0,0.0,0.0,0.0,0.0,0.0,0.0,0.0,0.0,0.0,0.0,0.0,0.0,0.0,0.0,0.0,0.0,0.0,0.0,0.0,0.0,0.0,0.0,0.0,0.0,0.0,0.0,0.0,0.0,0.0,0.0,0.0,-2.0805,-2.2084,-2.3672,-2.5357,-2.3335,-2.2859,0.0,0.0,0.0,0.0,0.0,0.0,0.0,0.0,0.0,0.0,0.0,0.0,0.0,0.0,0.0,0.0,0.0,0.0,0.0,0.0,0.0,0.0,0.0,0.0,0.0,0.0,0.0,0.0,0.0,0.0,0.0,0.0,0.0,0.0,0.0,0.0,0.0,0.0,0.0,0.0,0.0,0.0,0.0,0.0,0.0,0.0,0.0,0.0,0.0,0.0,0.0,0.0,0.0,0.0,0.0,0.0,0.0,0.0,0.0,0.0,0.0,0.0,0.0,0.0,0.0,0.0,0.0,0.0,0.0,0.0,0.0,0.0,0.0,0.0,0.0,0.0,0.0,0.0,0.0,0.0,0.0,0.0,0.0,0.0,0.0,0.0,0.0,0.0,0.0,0.0,0.0,0.0,0.0,0.0,0.0,0.0,0.0,0.0,0.0,0.0,0.0,0.0,0.0,0.0,0.0,0.0,0.0,0.0,0.0,-2.334,-2.4153,-2.5273,-2.6624,-2.4593,-2.3788,-2.4405,0.0,0.0,0.0,0.0,0.0,0.0,0.0,0.0,0.0,0.0,0.0,0.0,0.0,0.0,0.0,0.0,0.0,0.0,0.0,0.0,0.0,0.0,0.0,0.0,0.0,0.0,0.0,0.0,0.0,0.0,0.0,0.0,0.0,0.0,0.0,0.0,0.0,0.0,0.0,0.0,0.0,0.0,0.0,0.0,0.0,0.0,0.0,0.0,0.0,0.0,0.0,0.0,0.0,0.0,0.0,0.0,0.0,0.0,0.0,0.0,0.0,0.0,0.0,0.0,0.0,0.0,0.0,0.0,0.0,0.0,0.0,0.0,0.0,0.0,0.0,0.0,0.0,0.0,0.0,0.0,0.0,0.0,0.0,0.0,0.0,0.0,0.0,0.0,0.0,0.0,0.0,0.0,0.0,0.0,0.0,0.0,0.0,0.0,0.0,0.0,0.0,0.0,0.0,0.0,0.0,0.0,0.0,0.0,-2.8929,-2.9454,-2.8882,-2.7191,-2.6611,-2.4887,0.0,0.0,0.0,0.0,0.0,0.0,0.0,0.0,0.0,0.0,0.0,0.0,0.0,0.0,0.0,0.0,0.0,0.0,0.0,0.0,0.0,0.0,0.0,0.0,0.0,0.0,0.0,0.0,0.0,0.0,0.0,0.0,0.0,0.0,0.0,0.0,0.0,0.0,0.0,0.0,0.0,0.0,0.0,0.0,0.0,0.0,0.0,0.0,0.0,0.0,0.0,0.0,0.0,0.0,0.0,0.0,0.0,0.0,0.0,0.0,0.0,0.0,0.0,0.0,0.0,0.0,0.0,0.0,0.0,0.0,0.0,0.0,0.0,0.0,0.0,0.0,0.0,0.0,0.0,0.0,0.0,0.0,0.0,0.0,0.0,0.0,0.0,0.0,0.0,0.0,0.0,0.0,0.0,0.0,0.0,0.0,0.0,0.0,0.0,0.0,0.0,0.0,0.0,0.0,0.0,0.0,0.0,0.0,0.0,-3.1131,-3.3518,-3.3813,-3.1804,-2.9293,-2.7099,0.0,0.0,0.0,0.0,0.0,0.0,0.0,0.0,0.0,0.0,0.0,0.0,0.0,0.0,0.0,0.0,0.0,0.0,0.0,0.0,0.0,0.0,0.0,0.0,0.0,0.0,0.0,0.0,0.0,0.0,0.0,0.0,0.0,0.0,0.0,0.0,0.0,0.0,0.0,0.0,0.0,0.0,0.0,0.0,0.0,0.0,0.0,0.0,0.0,0.0,0.0,0.0,0.0,0.0,0.0,0.0,0.0,0.0,0.0,0.0,0.0,0.0,0.0,0.0,0.0,0.0,0.0,0.0,0.0,0.0,0.0,0.0,0.0,0.0,0.0,0.0,0.0,0.0,0.0,0.0,0.0,0.0,0.0,0.0,0.0,0.0,0.0,0.0,0.0,0.0,0.0,0.0,0.0,0.0,0.0,0.0,0.0,0.0,0.0,0.0,0.0,0.0,0.0,0.0,0.0,0.0,0.0,0.0,-3.0872,-3.3217,-3.7036,-3.8162,-3.6266,-3.2272,-2.9042,0.0,0.0,0.0,0.0,0.0,0.0,0.0,0.0,0.0,0.0,0.0,0.0,0.0,0.0,0.0,0.0,0.0,0.0,0.0,0.0,0.0,0.0,0.0,0.0,0.0,0.0,0.0,0.0,0.0,0.0,0.0,0.0,0.0,0.0,0.0,0.0,0.0,0.0,0.0,0.0,0.0,0.0,0.0,0.0,0.0,0.0,0.0,0.0,0.0,0.0,0.0,0.0,0.0,0.0,0.0,0.0,0.0,0.0,0.0,0.0,0.0,0.0,0.0,0.0,0.0,0.0,0.0,0.0,0.0,0.0,0.0,0.0,0.0,0.0,0.0,0.0,0.0,0.0,0.0,0.0,0.0,0.0,0.0,0.0,0.0,0.0,0.0,0.0,0.0,0.0,0.0,0.0,0.0,0.0,0.0,0.0,0.0,0.0,0.0,0.0,0.0,0.0,0.0,0.0,0.0,0.0,0.0,0.0,-3.3117,-3.5324,-3.9968,-4.1694,-4.0037,-3.5051,-3.0635,0.0,0.0,0.0,0.0,0.0,0.0,0.0,0.0,0.0,0.0,0.0,0.0,0.0,0.0,0.0,0.0,0.0,0.0,0.0,0.0,0.0,0.0,0.0,0.0,0.0,0.0,0.0,0.0,0.0,0.0,0.0,0.0,0.0,0.0,0.0,0.0,0.0,0.0,0.0,0.0,0.0,0.0,0.0,0.0,0.0,0.0,0.0,0.0,0.0,0.0,0.0,0.0,0.0,0.0,0.0,0.0,0.0,0.0,0.0,0.0,0.0,0.0,0.0,0.0,0.0,0.0,0.0,0.0,0.0,0.0,0.0,0.0,0.0,0.0,0.0,0.0,0.0,0.0,0.0,0.0,0.0,0.0,0.0,0.0,0.0,0.0,0.0,0.0,0.0,0.0,0.0,0.0,0.0,0.0,0.0,0.0,0.0,0.0,0.0,0.0,0.0,0.0,0.0,0.0,0.0,0.0,0.0,0.0,-3.4931,-3.8098,-4.156,-4.2719,-4.124,-3.5588,-3.1155,0.0,0.0,0.0,0.0,0.0,0.0,0.0,0.0,0.0,0.0,0.0,0.0,0.0,0.0,0.0,0.0,0.0,0.0,0.0,0.0,0.0,0.0,0.0,0.0,0.0,0.0,0.0,0.0,0.0,0.0,0.0,0.0,0.0,0.0,0.0,0.0,0.0,0.0,0.0,0.0,0.0,0.0,0.0,0.0,0.0,0.0,0.0,0.0,-2.6365,0.0,0.0,0.0,0.0,0.0,0.0,0.0,0.0,0.0,0.0,0.0,0.0,0.0,0.0,0.0,0.0,0.0,0.0,0.0,0.0,0.0,0.0,0.0,0.0,0.0,0.0,0.0,0.0,0.0,0.0,0.0,0.0,0.0,0.0,0.0,0.0,0.0,0.0,0.0,0.0,0.0,0.0,0.0,0.0,0.0,0.0,0.0,0.0,0.0,0.0,0.0,0.0,0.0,0.0,0.0,0.0,0.0,0.0,0.0,-3.5833,-3.8806,-4.1663,-4.2635,-4.146,-3.6295,-3.2311,0.0,0.0,0.0,0.0,0.0,0.0,0.0,0.0,0.0,0.0,0.0,0.0,0.0,0.0,0.0,0.0,0.0,0.0,0.0,0.0,0.0,0.0,0.0,0.0,0.0,0.0,0.0,0.0,0.0,0.0,0.0,0.0,0.0,0.0,0.0,0.0,0.0,0.0,0.0,0.0,0.0,0.0,0.0,0.0,0.0,0.0,0.0,0.0,0.0,0.0,0.0,0.0,0.0,0.0,0.0,0.0,0.0,0.0,0.0,0.0,0.0,0.0,0.0,0.0,0.0,0.0,0.0,0.0,0.0,0.0,0.0,0.0,0.0,0.0,0.0,0.0,0.0,0.0,0.0,0.0,0.0,0.0,0.0,0.0,0.0,0.0,0.0,0.0,0.0,0.0,0.0,0.0,0.0,0.0,0.0,0.0,0.0,0.0,0.0,0.0,0.0,0.0,0.0,0.0,0.0,0.0,0.0,-3.258,-3.635,-3.9396,-4.1612,-4.2381,-4.1579,-3.7347,-3.3897,-3.1611,0.0,0.0,0.0,0.0,0.0,0.0,0.0,0.0,0.0,0.0,0.0,0.0,0.0,0.0,0.0,0.0,0.0,0.0,0.0,0.0,0.0,0.0,0.0,0.0,0.0,0.0,0.0,0.0,0.0,0.0,0.0,0.0,0.0,0.0,0.0,0.0,0.0,0.0,-2.6614,-2.7014,0.0,0.0,0.0,0.0,0.0,0.0,0.0,0.0,-2.7043,0.0,0.0,0.0,0.0,0.0,0.0,0.0,0.0,0.0,0.0,0.0,0.0,0.0,0.0,0.0,0.0,0.0,0.0,0.0,0.0,0.0,0.0,0.0,0.0,0.0,0.0,0.0,0.0,0.0,0.0,0.0,0.0,0.0,0.0,0.0,0.0,0.0,0.0,0.0,0.0,0.0,0.0,0.0,0.0,0.0,0.0,0.0,0.0,0.0,0.0,0.0,0.0,0.0,0.0,0.0,0.0,-3.34,-3.3856,-3.6867,-4.2664,-4.3386,-4.3082,-4.1763,-3.9097,-3.6053,-3.2702,0.0,0.0,0.0,0.0,0.0,0.0,0.0,0.0,0.0,0.0,0.0,0.0,0.0,0.0,0.0,0.0,0.0,0.0,0.0,0.0,0.0,0.0,0.0,0.0,0.0,0.0,0.0,0.0,0.0,0.0,0.0,0.0,0.0,0.0,0.0,0.0,0.0,0.0,0.0,-3.0815,-3.0817,0.0,0.0,0.0,0.0,0.0,0.0,0.0,0.0,-2.8684,0.0,0.0,0.0,0.0,0.0,0.0,0.0,0.0,0.0,0.0,0.0,0.0,0.0,0.0,0.0,0.0,0.0,0.0,0.0,0.0,0.0,0.0,0.0,0.0,0.0,0.0,0.0,0.0,0.0,0.0,0.0,0.0,0.0,0.0,0.0,0.0,0.0,0.0,0.0,0.0,0.0,0.0,0.0,0.0,0.0,0.0,0.0,0.0,0.0,0.0,0.0,0.0,0.0,0.0,0.0,-3.2409,-3.4197,-3.7449,-4.2311,-4.3012,-4.2792,-4.1778,-3.8843,-3.6096,0.0,0.0,0.0,0.0,0.0,0.0,0.0,0.0,0.0,0.0,0.0,0.0,0.0,0.0,0.0,0.0,0.0,0.0,0.0,0.0,0.0,0.0,0.0,0.0,0.0,0.0,0.0,0.0,0.0,0.0,0.0,0.0,0.0,0.0,0.0,0.0,0.0,0.0,0.0,0.0,-3.1741,-3.1838,-3.2257,0.0,0.0,0.0,0.0,0.0,0.0,-2.9609,-2.9087,0.0,0.0,0.0,0.0,0.0,0.0,0.0,0.0,0.0,0.0,0.0,0.0,0.0,0.0,0.0,0.0,0.0,0.0,0.0,0.0,0.0,0.0,0.0,0.0,0.0,0.0,0.0,0.0,0.0,0.0,0.0,0.0,0.0,0.0,0.0,0.0,0.0,0.0,0.0,0.0,0.0,0.0,0.0,0.0,0.0,0.0,0.0,0.0,0.0,0.0,0.0,0.0,0.0,0.0,0.0,-3.0858,-3.422,-3.7742,-4.1274,-4.2125,-4.2312,-4.1859,-3.8367,-3.5749,0.0,0.0,0.0,0.0,0.0,0.0,0.0,0.0,0.0,0.0,0.0,0.0,0.0,0.0,0.0,0.0,0.0,0.0,0.0,0.0,0.0,0.0,0.0,0.0,0.0,0.0,0.0,0.0,0.0,0.0,0.0,0.0,0.0,0.0,0.0,0.0,0.0,0.0,0.0,0.0,0.0,-3.2994,-3.3704,-3.3216,0.0,0.0,0.0,0.0,-3.1405,-3.1101,0.0,0.0,0.0,0.0,0.0,0.0,0.0,0.0,0.0,0.0,0.0,0.0,0.0,0.0,0.0,0.0,0.0,0.0,0.0,0.0,0.0,0.0,0.0,0.0,0.0,0.0,0.0,0.0,0.0,0.0,0.0,0.0,0.0,0.0,0.0,0.0,0.0,0.0,0.0,0.0,0.0,0.0,0.0,0.0,0.0,0.0,0.0,0.0,0.0,0.0,0.0,0.0,0.0,0.0,0.0,0.0,-3.1716,-3.404,-3.7216,-4.1322,-4.1781,-4.2046,-4.2263,-3.882,-3.6199,0.0,0.0,0.0,0.0,0.0,0.0,0.0,0.0,0.0,0.0,0.0,0.0,0.0,0.0,0.0,0.0,0.0,0.0,0.0,0.0,0.0,0.0,0.0,0.0,0.0,0.0,0.0,0.0,0.0,0.0,0.0,0.0,0.0,0.0,0.0,0.0,0.0,0.0,0.0,0.0,0.0,-3.5959,-3.5117,-3.4561,-3.4168,0.0,0.0,-3.482,-3.5415,-3.7103,0.0,0.0,0.0,0.0,0.0,0.0,0.0,0.0,0.0,0.0,0.0,0.0,0.0,0.0,0.0,0.0,0.0,0.0,0.0,0.0,0.0,0.0,0.0,0.0,0.0,0.0,0.0,0.0,0.0,0.0,0.0,0.0,0.0,0.0,0.0,0.0,0.0,0.0,0.0,0.0,0.0,0.0,0.0,0.0,0.0,0.0,0.0,0.0,0.0,0.0,0.0,0.0,0.0,0.0,0.0,-2.8596,-3.2378,-3.4679,-3.7638,-4.1212,-4.167,-4.1785,-4.1714,-3.836,-3.5897,0.0,0.0,0.0,0.0,0.0,0.0,0.0,0.0,0.0,0.0,0.0,0.0,0.0,0.0,0.0,0.0,0.0,0.0,0.0,0.0,0.0,0.0,0.0,0.0,0.0,0.0,0.0,0.0,0.0,0.0,0.0,0.0,0.0,0.0,0.0,0.0,0.0,0.0,0.0,0.0,0.0,0.0,-3.5529,-3.5902,0.0,0.0,0.0,-3.6183,-3.6492,0.0,0.0,0.0,0.0,0.0,0.0,0.0,0.0,0.0,0.0,0.0,0.0,0.0,0.0,0.0,0.0,0.0,0.0,0.0,0.0,0.0,0.0,0.0,0.0,0.0,0.0,0.0,0.0,0.0,0.0,0.0,0.0,0.0,0.0,0.0,0.0,0.0,0.0,0.0,0.0,0.0,0.0,0.0,0.0,0.0,0.0,0.0,0.0,0.0,0.0,0.0,0.0,0.0,0.0,0.0,0.0,0.0,-3.2406,-3.5186,-3.7965,-4.0689,-4.154,-4.1756,-4.1283,-3.8443,0.0,0.0,0.0,0.0,0.0,0.0,0.0,0.0,0.0,0.0,0.0,0.0,0.0,0.0,0.0,0.0,0.0,0.0,0.0,0.0,0.0,0.0,0.0,0.0,0.0,0.0,0.0,-2.8176,0.0,0.0,0.0,0.0,0.0,0.0,0.0,0.0,0.0,0.0,0.0,0.0,0.0,0.0,-3.5907,-3.6489,-3.7343,-3.7994,0.0,0.0,-3.7667,-3.7932,-3.8027,-3.7526,0.0,0.0,0.0,0.0,0.0,0.0,0.0,0.0,0.0,0.0,0.0,0.0,0.0,0.0,0.0,0.0,0.0,0.0,0.0,0.0,0.0,0.0,0.0,0.0,0.0,0.0,0.0,0.0,0.0,0.0,0.0,0.0,0.0,0.0,0.0,0.0,0.0,0.0,0.0,0.0,0.0,0.0,0.0,0.0,0.0,0.0,0.0,0.0,0.0,0.0,0.0,0.0,0.0,0.0,-2.9951,-3.1547,-3.5203,-3.7977,-3.9704,-4.1423,-4.2085,-4.156,-3.9921,-3.8,0.0,0.0,0.0,0.0,0.0,0.0,0.0,0.0,0.0,0.0,0.0,0.0,0.0,0.0,0.0,0.0,0.0,0.0,0.0,0.0,0.0,0.0,0.0,0.0,0.0,0.0,0.0,0.0,0.0,0.0,0.0,0.0,0.0,0.0,0.0,0.0,0.0,0.0,0.0,0.0,0.0,-3.8122,-3.8779,-3.8918,-3.9765,0.0,-4.0976,-4.0126,-4.0922,-4.3315,-4.3444,-3.86,0.0,0.0,0.0,0.0,0.0,0.0,0.0,0.0,0.0,0.0,0.0,0.0,0.0,0.0,0.0,0.0,0.0,0.0,0.0,0.0,0.0,0.0,0.0,0.0,0.0,0.0,0.0,0.0,0.0,0.0,0.0,0.0,0.0,0.0,0.0,0.0,0.0,0.0,0.0,0.0,0.0,0.0,0.0,0.0,0.0,0.0,0.0,0.0,0.0,0.0,0.0,0.0,0.0,-3.0864,-3.3934,-3.6078,-3.8395,-4.0814,-4.1911,-4.2433,-4.2547,-4.0535,-3.8307,0.0,0.0,0.0,0.0,0.0,0.0,0.0,0.0,0.0,0.0,0.0,0.0,0.0,0.0,0.0,0.0,0.0,0.0,0.0,0.0,0.0,0.0,0.0,0.0,0.0,0.0,0.0,0.0,-2.9814,-2.9693,-2.9731,0.0,0.0,0.0,0.0,0.0,0.0,0.0,0.0,0.0,0.0,-3.7184,-3.9109,-3.9834,0.0,0.0,-4.1773,-4.1626,-4.182,-4.2203,-4.1536,-3.8615,-3.7576,0.0,0.0,0.0,0.0,0.0,0.0,0.0,0.0,0.0,0.0,0.0,0.0,0.0,0.0,0.0,0.0,0.0,0.0,0.0,0.0,0.0,0.0,0.0,0.0,0.0,0.0,0.0,0.0,0.0,0.0,0.0,0.0,0.0,0.0,0.0,0.0,0.0,0.0,0.0,0.0,0.0,0.0,0.0,0.0,0.0,0.0,0.0,0.0,0.0,0.0,0.0,0.0,-3.1647,-3.5665,-3.6875,-3.8928,-4.1895,-4.2538,-4.2908,-4.2977,-4.1511,-3.9343,0.0,0.0,0.0,0.0,0.0,0.0,0.0,0.0,0.0,0.0,0.0,0.0,0.0,0.0,0.0,0.0,0.0,0.0,0.0,0.0,0.0,0.0,0.0,0.0,0.0,0.0,0.0,0.0,-3.0902,-3.0649,-2.9989,0.0,0.0,0.0,0.0,0.0,0.0,0.0,0.0,0.0,0.0,-3.7526,-3.942,-4.0181,-4.0753,-4.1453,-4.1501,-4.1415,-4.1212,-4.0817,-3.9806,-3.7955,0.0,0.0,0.0,0.0,0.0,0.0,0.0,0.0,0.0,0.0,0.0,0.0,0.0,0.0,0.0,0.0,0.0,0.0,0.0,0.0,0.0,0.0,0.0,0.0,0.0,0.0,0.0,0.0,0.0,0.0,-2.387,0.0,0.0,0.0,0.0,0.0,0.0,0.0,0.0,0.0,0.0,0.0,0.0,0.0,0.0,0.0,0.0,0.0,0.0,0.0,0.0,0.0,0.0,-3.2272,-3.5839,-3.7325,-3.9516,-4.2375,-4.3433,-4.3604,-4.2862,-4.2977,-4.1504,-3.8101,0.0,0.0,0.0,0.0,0.0,0.0,0.0,0.0,0.0,0.0,0.0,0.0,0.0,0.0,0.0,0.0,0.0,0.0,0.0,0.0,0.0,0.0,0.0,0.0,0.0,0.0,-3.2293,-3.2412,-3.1771,0.0,0.0,0.0,0.0,0.0,0.0,0.0,0.0,0.0,0.0,-3.7106,-3.9718,-3.9966,-3.9923,-4.021,-4.1241,-4.0224,-3.9291,-3.9323,-3.9941,-3.9541,0.0,0.0,0.0,0.0,0.0,0.0,0.0,0.0,0.0,0.0,0.0,0.0,0.0,0.0,0.0,0.0,0.0,0.0,0.0,0.0,0.0,0.0,0.0,0.0,0.0,0.0,0.0,-2.7707,-2.7338,0.0,0.0,0.0,0.0,0.0,0.0,0.0,0.0,0.0,0.0,0.0,-3.3572,-3.4169,0.0,0.0,0.0,0.0,0.0,0.0,0.0,0.0,0.0,0.0,0.0,0.0,-3.347,-3.586,-3.7969,-3.9946,-4.1865,-4.3278,-4.3935,-4.3796,-4.3578,-4.1599,-3.7666,0.0,0.0,0.0,0.0,0.0,0.0,0.0,0.0,0.0,0.0,0.0,0.0,0.0,0.0,0.0,0.0,0.0,0.0,0.0,0.0,0.0,0.0,0.0,0.0,0.0,-3.1963,0.0,0.0,0.0,0.0,0.0,0.0,0.0,0.0,0.0,0.0,0.0,-3.4216,-3.517,-3.6901,-3.8502,-3.9511,-4.0027,-4.043,0.0,0.0,0.0,0.0,0.0,0.0,0.0,0.0,0.0,0.0,0.0,0.0,0.0,0.0,-3.9713,-3.8394,-3.7362,-3.695,-3.7698,0.0,0.0,0.0,0.0,0.0,0.0,0.0,0.0,0.0,0.0,0.0,0.0,0.0,0.0,-2.9802,0.0,-2.9889,0.0,0.0,0.0,0.0,0.0,0.0,0.0,0.0,-3.1867,-3.383,-3.6274,-3.7031,-3.7587,0.0,-3.7895,-3.5675,0.0,0.0,0.0,0.0,0.0,0.0,0.0,0.0,-3.4343,-3.6631,-3.8434,-4.0335,-4.2372,-4.3194,-4.3778,-4.4176,-4.3063,-4.1046,-3.8019,-3.5078,-3.2832,0.0,0.0,0.0,0.0,0.0,0.0,0.0,0.0,0.0,0.0,0.0,0.0,0.0,0.0,0.0,0.0,0.0,0.0,0.0,0.0,0.0,0.0,0.0,-3.1986,0.0,0.0,0.0,0.0,0.0,0.0,0.0,0.0,0.0,-3.3616,-3.4641,-3.576,-3.6799,-3.7995,-3.8974,-3.9412,0.0,0.0,0.0,0.0,0.0,0.0,0.0,-3.9347,-3.781,-3.8044,-3.8351,-3.831,-3.9709,-4.0891,-4.0893,0.0,0.0,-3.994,-3.8861,-3.843,-3.9129,-3.8707,-3.8374,-3.8991,-3.9509,-3.9816,0.0,0.0,0.0,0.0,0.0,0.0,0.0,0.0,-3.0975,-3.1121,0.0,-3.1966,0.0,0.0,0.0,0.0,0.0,-3.1696,0.0,0.0,-3.5598,-3.729,-3.7678,-3.8196,-3.8413,-3.8576,-4.0039,-3.9585,-3.7257,-3.396,0.0,0.0,0.0,0.0,0.0,0.0,-3.4816,-3.7932,-3.8762,-4.0659,-4.367,-4.3169,-4.3169,-4.3806,-4.1646,-4.0011,-3.9073,-3.7153,-3.5373,-3.3744,-3.3032,0.0,0.0,0.0,0.0,0.0,0.0,0.0,0.0,0.0,0.0,0.0,0.0,0.0,0.0,0.0,0.0,0.0,0.0,0.0,0.0,-3.2451,0.0,0.0,0.0,0.0,0.0,0.0,0.0,0.0,0.0,0.0,-3.4808,-3.7145,-3.9005,-3.8489,0.0,0.0,0.0,0.0,-3.9509,-3.9317,-3.9434,-3.9467,-3.9301,-3.9968,-4.0027,-3.8699,0.0,0.0,-4.0513,-4.1112,-4.1659,-4.1655,-4.2161,-4.2363,-4.1691,-4.0474,-3.9859,-4.0459,-4.0069,-3.9816,-4.0383,-4.0594,-4.061,-3.4527,0.0,0.0,0.0,0.0,-3.1352,-3.2756,-3.4698,-3.6685,-3.6723,-3.5337,-3.6253,0.0,0.0,0.0,0.0,0.0,0.0,-3.403,-3.5569,-3.6648,-3.8365,-4.0636,-4.1398,-4.2113,-4.2793,-4.2715,-4.1871,-4.0207,-3.8709,-3.6738,-3.4345,0.0,0.0,0.0,0.0,-3.5903,-3.7564,-3.9704,-4.1051,-4.1423,-4.2314,-4.2619,-4.2224,-4.1041,-3.9964,-3.9054,-3.7961,-3.6777,-3.5447,-3.4699,0.0,0.0,0.0,0.0,0.0,0.0,0.0,0.0,0.0,0.0,0.0,0.0,0.0,0.0,0.0,0.0,0.0,0.0,0.0,-3.3304,-3.2855,-3.2876,0.0,0.0,0.0,0.0,0.0,0.0,0.0,0.0,0.0,-3.8645,-3.8566,-3.8696,0.0,0.0,-4.0073,-3.9666,-4.0089,-4.0414,-4.0339,-4.028,0.0,-4.013,-4.0351,-4.0351,-3.9962,-4.0658,-4.1274,-4.1257,-4.184,-4.2326,-4.2294,-4.2472,-4.2522,-4.2361,-4.1723,-4.1422,-4.1992,-4.165,-4.1346,-4.184,-4.2019,-4.2002,-3.9261,-3.6269,-3.3925,-3.3131,-3.3495,-3.4307,-3.5501,-3.6967,-3.9283,-3.9327,-3.7882,-3.8878,-3.7731,-3.5053,-3.4394,0.0,0.0,0.0,-3.5963,-3.794,-3.8094,-3.9494,-4.1973,-4.2899,-4.3566,-4.4144,-4.4186,-4.356,-4.2433,-4.133,-3.9653,-3.7442,0.0,0.0,-3.4853,-3.5908,-3.6894,-3.7839,-3.9623,-4.0818,-4.1319,-4.2296,-4.2544,-4.2032,-4.0966,-4.0113,-3.9583,-3.8795,-3.7905,-3.685,-3.5909,-3.4856,0.0,0.0,0.0,0.0,0.0,0.0,0.0,0.0,0.0,0.0,0.0,-3.209,-3.1743,0.0,0.0,0.0,-3.2689,-3.3282,-3.3605,-3.3247,0.0,0.0,0.0,0.0,0.0,0.0,0.0,-3.681,-3.8035,-3.9379,-4.0723,-4.0194,-4.0113,-4.1352,-4.1229,-4.0951,-4.0738,0.0,-4.0981,-4.1097,-4.0994,-4.0917,-4.0917,-4.0917,-4.0917,-4.0917,-4.1274,-4.1695,-4.197,-4.2359,-4.2571,-4.2571,-4.2571,-4.2571,-4.2571,-4.234,-4.2239,-4.2661,-4.2418,-4.2226,-4.2569,-4.2571,-4.2571,-4.3242,-4.2118,-3.7743,-3.6007,-3.6276,-3.6836,-3.7328,-3.7843,-3.9783,-3.9951,-3.8945,-4.0078,-3.9568,-3.7777,-3.6142,0.0,-3.7501,-3.7376,-3.8185,-3.9784,-3.9784,-4.063,-4.2151,-4.2888,-4.334,-4.3463,-4.4521,-4.4665,-4.3899,-4.2353,-4.107,-4.0062,-3.8672,-3.7301,-3.6079,-3.6839,-3.7699,-3.8585,-3.8918,-4.0182,-4.2446,-4.2507,-4.2463,-4.2352,-4.0958,-4.0141,-4.0067,-3.9324,-3.8562,-3.7792,-3.6656,-3.5659,-3.4899,0.0,0.0,0.0,0.0,0.0,0.0,0.0,0.0,0.0,0.0,0.0,0.0,0.0,0.0,0.0,-3.3276,0.0,-3.3891,-3.3826,0.0,0.0,0.0,-3.4848,-3.6871,-3.7212,-3.7502,-3.8051,0.0,0.0,-4.1444,-4.1814,-4.253,-4.3793,-4.3384,-4.2919,-4.2543,-4.1783,-4.1395,-4.1678,-4.1561,-4.1529,-4.1338,-4.1355,-4.1355,-4.1338,-4.1484,-4.1662,-4.218,-4.2375,-4.2439,-4.2359,-4.2456,-4.2423,-4.2456,-4.2326,-4.2456,-4.2375,-4.252,-4.2618,-4.2571,-4.2571,-4.2571,-4.3823,-4.1741,-4.1458,-4.0858,-4.0066,-4.0188,-4.0644,-4.1267,-4.2365,-4.2061,-4.0792,-4.1162,-4.0516,-3.9151,-3.9306,-3.9564,-4.0031,-3.9984,-4.0203,-4.0595,-4.0595,-4.0989,-4.1666,-4.1886,-4.2335,-4.3031,-4.3324,-4.3504,-4.3597,-4.3262,-4.2239,-4.073,-4.0423,-3.9072,-3.6675,-3.6862,-3.7544,-3.8597,-3.9265,-4.0043,-4.0892,-4.0288,-3.96,-3.8931,-3.86,-3.8118,-3.7452,-3.7339,-3.7116,-3.675,-3.5828,-3.488,-3.3832,-3.3219,0.0,0.0,0.0,0.0,0.0,0.0,0.0,0.0,0.0,-3.2553,-3.1589,0.0,-3.3446,0.0,-3.3357,-3.4322,-3.5471,-3.5608,0.0,0.0,-3.7462,-3.8218,-3.873,-3.8922,-3.9196,-3.9805,-3.9904,-4.0412,-4.1542,-4.18,-4.2261,-4.3237,-4.3274,-4.3328,-4.3662,-4.2858,-4.2212,-4.2153,-4.1439,-4.0756,-4.0756,-4.0756,-4.0739,-4.0756,-4.0739,-4.0804,-4.0982,-4.0998,-4.0998,-4.1015,-4.0998,-4.0982,-4.1047,-4.0998,-4.1015,-4.1063,-4.1857,-4.2571,-4.2571,-4.2555,-4.2555,-4.4611,-4.3079,-4.3669,-4.3176,-4.192,-4.1465,-4.1716,-4.2393,-4.2922,-4.2855,-4.241,-4.2796,-4.2244,-4.1204,-4.1752,-4.1988,-4.1888,-4.1526,-4.1198,-4.0888,-4.0871,-4.1117,-4.149,-4.1534,-4.1864,-4.2595,-4.2595,-4.2693,-4.2903,-4.2595,-4.1941,-4.0944,-4.0848,-3.9942,-3.8258,-3.7693,-3.7747,-3.8378,-3.9342,-4.0185,-4.0844,-3.9989,-3.9254,-3.8615,-3.8003,-3.7356,-3.6721,-3.647,-3.6387,-3.6522,-3.582,-3.5093,-3.4322,-3.3737,-3.2716,0.0,0.0,0.0,0.0,0.0,0.0,0.0,0.0,0.0,0.0,0.0,-3.4266,-3.4558,-3.4778,-3.553,-3.7014,-3.7151,-3.7261,-3.7638,-3.8442,-3.914,-3.9512,-3.9903,-4.0311,-4.0628,-4.0934,-4.1343,-4.1842,-4.1877,-4.2236,-4.3061,-4.2894,-4.2889,-4.3352,-4.2858,-4.2328,-4.1914,-4.1255,-4.0587,-4.0167,-3.9768,-3.9671,-3.9962,-4.0027,-4.0124,-4.0432,-4.0496,-4.0496,-4.0496,-4.0496,-4.0496,-4.0496,-4.0496,-4.0496,-4.0594,-4.1112,-4.1614,-4.1678,-4.1678,-4.1678,-4.5483,-4.4847,-4.475,-4.3928,-4.2493,-4.1566,-4.167,-4.2516,-4.2674,-4.3144,-4.377,-4.4131,-4.3756,-4.2858,-4.3318,-4.3285,-4.2804,-4.2305,-4.1633,-4.0858,-4.0888,-4.1088,-4.1383,-4.1401,-4.1666,-4.2074,-4.2115,-4.2157,-4.218,-4.1502,-4.1087,-4.0945,-4.0632,-4.0254,-3.9846,-3.8834,-3.8269,-3.8264,-3.9396,-4.0473,-4.136,-4.0535,-3.986,-3.9301,-3.8004,-3.7016,-3.6463,-3.5877,-3.5774,-3.6194,-3.5729,-3.539,-3.5271,-3.4365,-3.3559,0.0,-3.2634,0.0,0.0,0.0,0.0,0.0,0.0,0.0,0.0,-3.4567,-3.5434,-3.7113,-3.6791,-3.7006,-3.8191,-3.8413,-3.8494,-3.858,-3.8769,-3.9175,-3.9922,-4.0612,-4.0974,-4.0888,-4.2109,-4.2578,-4.175,-4.1767,-4.213,-4.2662,-4.2268,-4.2016,-4.2262,-4.2311,-4.2028,-4.1243,-4.0934,-4.0312,-3.9568,-3.8902,-3.8683,-3.9201,-3.9347,-3.9557,-4.0043,-4.0156,-4.0173,-4.0173,-4.0124,-4.0156,-4.0221,-4.0189,-4.0189,-4.0124,-4.0189,-4.0318,-4.0545,-4.061,-4.0496,-4.5945,-4.4836,-4.4717,-4.3749,-4.2206,-4.1637,-4.2131,-4.3467,-4.3897,-4.4076,-4.3953,-4.3448,-4.2668,-4.1781,-4.2572,-4.2159,-4.0898,-4.1869,-4.1614,-4.0436,-4.0745,-4.0918,-4.0995,-4.1012,-4.1255,-4.1604,-4.1666,-4.1821,-4.2216,-4.2055,-4.1563,-4.0754,-4.0677,-4.0182,-3.9329,0.0,0.0,0.0,-4.0117,-4.0811,-4.0972,-4.0005,-3.88,-3.7479,-3.6531,0.0,-3.4063,-3.3846,-3.3768,-3.3714,-3.3571,0.0,0.0,0.0,0.0,0.0,0.0,0.0,0.0,0.0,0.0,0.0,-3.5449,-3.5322,-3.5413,-3.6423,-3.7378,-3.8053,-3.8036,-3.8133,-3.8532,-3.9101,-3.9445,-3.948,-4.053,-4.1405,-4.1543,-4.1681,-4.1561,-4.0957,-4.1164,-4.1026,-4.0405,-4.0664,-4.1147,-4.1371,-4.1181,-4.1164,-4.1223,-4.1459,-4.1528,-4.1287,-4.0317,-3.938,-3.9161,-3.8697,-3.844,-3.8602,-3.8618,-3.8683,-3.8829,-3.8861,-3.8812,-3.8861,-3.8796,-3.8829,-3.8829,-3.8796,-3.8877,-3.8812,-3.8829,-3.9153,-4.0237,-4.048,-4.0496,-4.5865,0.0,-4.474,-4.3838,0.0,-4.207,-4.2616,-4.3702,-4.3893,-4.3965,-4.4037,-4.3485,-4.298,-4.2549,-4.3617,-4.3197,-4.1747,-4.2501,-4.2038,-4.0617,-4.0793,-4.0871,-4.0871,-4.0871,-4.1012,-4.1192,-4.1192,-4.1328,-4.1552,-4.1552,-4.1297,-4.0796,-4.0981,-4.0787,-4.0307,-4.0695,-4.0643,-3.9982,-3.9999,-4.0336,-4.0969,-3.9519,-3.8466,-3.7879,0.0,0.0,0.0,0.0,0.0,0.0,0.0,0.0,0.0,0.0,0.0,-3.4978,-3.4871,-3.4976,-3.5364,-3.5454,-3.5863,-3.6716,-3.7498,-3.7651,-3.7031,-3.7819,-3.8617,-3.9195,-3.9129,-3.9239,-3.9681,-4.0153,-4.0435,-4.047,-4.1145,-4.1596,-4.1613,-4.1536,-4.135,-4.0974,-4.0871,-4.0716,-4.0336,-4.0233,-4.0474,-4.0784,-4.0526,-4.0457,-4.0819,-4.1054,-4.1081,-4.0849,-3.9823,-3.904,-3.8969,-3.8655,-3.8408,-3.8391,-3.8391,-3.8391,-3.8391,-3.8391,-3.8391,-3.8391,-3.8391,-3.8391,-3.8391,-3.8391,-3.8391,-3.8391,-3.8391,-3.8586,-3.9347,-3.9476,-3.946,-4.6031,-4.5228,-4.5017,-4.4139,-4.2938,-4.2828,-4.328,-4.3993,0.0,0.0,0.0,-4.36,-4.3335,-4.3386,-4.435,-4.3975,-4.2585,-4.2774,-4.2054,-4.0697,-4.0776,-4.084,-4.0871,-4.0871,-4.0871,-4.0871,-4.0871,-4.0935,-4.0965,-4.0918,-4.0918,-4.1059,-4.1283,-4.1472,-4.1561,-4.1864,-4.1604,-4.0834,-3.9842,-3.9932,-4.1001,-3.9166,-3.8276,-3.8524,-3.6893,-3.5518,-3.4478,-3.4463,-3.4484,-3.4559,-3.5304,-3.5821,-3.589,-3.6056,-3.588,-3.5294,-3.526,-3.5597,-3.6308,-3.6469,-3.6898,-3.7755,-3.8986,-3.9278,-3.8364,-3.9052,-3.9687,-4.0132,-4.0092,-4.0303,-4.0943,-4.118,-4.1255,-4.1255,-4.1255,-4.1272,-4.1272,-4.1152,-4.1041,-4.0874,-4.0955,-4.0943,-4.0723,-4.0372,-4.0222,-4.0676,-4.0435,-4.0141,-4.0745,-4.0905,-4.0844,-4.0487,-3.9833,-3.9239,-3.9077,-3.8821,-3.8504,-3.8408,-3.8391,-3.8391,-3.8391,-3.8391,-3.8391,-3.8391,-3.8327,-3.8197,-3.8181,-3.8019,-3.8084,-3.8181,-3.827,-3.8246,-3.8375,-3.8464,-3.8513,-4.7404,-4.6895,-4.5854,-4.494,-4.4138,-4.3732,-4.4202,-4.5137,-4.4318,-4.4434,-4.5056,-4.3115,-4.2204,-4.2238,-4.2269,-4.1513,-4.0186,-4.1033,-4.08,0.0,-4.0171,-4.0551,-4.0871,-4.0871,-4.0871,-4.0871,-4.0871,-4.0995,-4.1117,-4.1012,-4.1105,-4.1426,-4.1346,-4.1463,-4.1796,-4.1507,-4.1225,-4.0939,-4.0588,-4.0506,-4.0659,-3.8947,-3.773,-3.7088,-3.6243,-3.5364,-3.4536,-3.446,-3.4481,-3.4651,-3.4793,-3.5292,-3.6148,-3.6256,-3.6559,-3.7111,-3.7201,-3.7273,-3.7362,-3.7416,-3.7773,-3.854,-3.8843,-3.8688,-3.8262,-4.0211,-4.1173,-4.049,-4.0867,-4.1393,-4.1498,-4.1498,-4.1542,-4.1542,-4.156,-4.156,-4.1542,-4.1463,-4.1226,-4.0701,-4.1112,-4.1146,-4.053,-4.0874,-4.1126,-4.096,-4.0845,-4.0961,-4.0896,-4.0871,-4.0888,-4.0793,-4.0436,-3.9969,-3.9523,-3.9152,-3.8766,-3.8448,-3.8391,-3.8391,-3.8391,-3.8391,-3.8391,-3.8391,-3.7987,-3.7614,-3.7501,-3.6967,-3.7031,-3.7388,-3.7562,-3.7763,-3.8156,-3.8398,-3.8557,-4.7621,-4.6664,-4.5847,-4.4822,-4.3739,-4.3293,-4.3518,-4.4163,-4.2956,-4.3407,-4.4793,-4.3065,-4.2073,-4.1714,-4.1772,-4.1017,-3.9661,-4.0517,-4.0434,-3.9644,-4.007,-4.0271,-4.0237,-4.0662,-4.0853,-4.0772,-4.0977,-4.118,-4.1391,-4.1318,-4.138,-4.156,-4.1453,-4.1735,-4.222,-4.16,-4.1363,-4.171,-4.0901,-4.0546,-4.0778,-3.9024,-3.8064,-3.8117,-3.6812,-3.5659,-3.4931,-3.5392,-3.5488,-3.5168,-3.5782,-3.6319,-3.6822,-3.695,-3.7184,-3.7559,-3.7577,-3.7577,-3.7577,-3.7577,-3.7737,-3.8112,-3.8558,-3.8518,-3.7866,-3.9562,-4.0418,-4.0034,-4.0559,-4.0929,-4.099,-4.1429,-4.1762,-4.1762,-4.1762,-4.1762,-4.1709,-4.1227,-4.1007,-4.106,-4.1007,-4.0946,-4.0946,-4.1332,-4.156,-4.13,-4.1049,-4.0892,-4.1185,-4.0861,-4.0683,-4.0832,-4.037,-3.9885,-3.9594,-3.9061,-3.8655,-3.8391,-3.8391,-3.8391,-3.8391,-3.8391,-3.8391,-3.8391,-3.81,-3.7734,-3.7427,-3.7129,-3.6978,-3.6734,-3.6938,-3.7155,-3.7416,-3.7518,-3.7703,-4.7928,-4.6596,-4.5906,-4.4785,-4.3387,-4.2808,-4.287,-4.3239,-4.2144,-4.2658,-4.4035,-4.2608,-4.1594,-4.1289,-4.1221,-4.0621,-3.9871,-4.0267,-4.0354,-4.0182,-4.029,-4.0443,-4.0443,-4.0737,-4.0844,-4.093,-4.1108,-4.1291,-4.1488,-4.1628,-4.1673,-4.1666,-4.1719,-4.2018,-4.2492,-4.1733,-4.166,-4.212,-4.1093,-4.0576,-4.066,-3.9041,-3.8478,-3.8716,-3.7411,-3.6232,-3.5525,-3.6191,-3.6365,-3.5849,-3.6693,-3.7259,-3.7297,-3.7484,-3.7577,-3.7577,-3.7577,-3.7577,-3.7594,-3.7933,-3.7951,-3.763,-3.8344,-3.854,-3.8041,-3.8801,-3.9483,-3.9691,-4.0276,-4.0662,-4.0969,-4.1538,-4.1977,-4.2019,-4.1959,-4.1977,-4.1924,-4.1319,-4.1032,-4.156,-4.119,-4.1102,-4.1499,-4.1719,-4.1719,-4.1587,-4.092,-4.0683,-4.1148,-4.063,-4.028,-4.032,-4.008,-3.9665,-3.936,-3.8929,-3.8502,-3.8286,-3.839,-3.8472,-3.8448,-3.8448,-3.8553,-3.8553,-3.8262,-3.7984,-3.7588,-3.711,-3.6857,-3.6531,-3.6525,-3.6514,-3.6793,-3.6629,-3.6659,-4.9051,-4.7819,-4.6646,-4.5239,-4.3652,-4.2893,-4.2974,-4.3538,-4.3256,-4.3158,-4.3205,-4.0959,-4.0282,-4.0581,-3.9736,-3.9589,-3.9929,-3.9756,-4.0318,-4.1347,-4.097,-4.1528,-4.2728,-4.1363,-4.1006,-4.1719,-4.1442,-4.128,-4.1377,-4.1747,-4.1888,-4.1919,-4.2121,-4.2174,-4.2015,-4.1902,-4.1797,-4.1665,-4.1311,-4.0711,-3.9818,-3.8977,-3.8286,-3.7681,-3.75,-3.7008,-3.6326,-3.6266,-3.6426,-3.6597,-3.6873,-3.7105,-3.7314,-3.7466,-3.7631,-3.763,-3.7649,-3.7577,-3.7684,-3.8897,-3.9058,-3.7826,-3.8397,-3.8826,-3.8701,-3.8811,-3.9188,-3.9822,-4.0584,-4.1261,-4.2032,-4.2192,-4.2246,-4.2246,-4.2228,-4.2287,-4.221,-4.2192,-4.2157,-4.2228,-4.1985,-4.2074,-4.1881,-4.2061,-4.2103,-4.1874,-4.0986,-4.0471,-4.0717,-3.9961,-3.9498,-3.9608,-3.9911,-3.9671,-3.8639,-3.8579,-3.8428,-3.7773,-3.8302,-3.869,-3.8645,-3.8733,-3.8925,-3.8672,-3.8251,-3.7883,-3.7644,-3.6938,-3.6065,-3.6528,-3.6401,-3.6108,-3.6703,-3.6389,-3.6156,-4.8967,-4.8014,-4.6965,-4.5417,-4.367,-4.2941,-4.2796,-4.299,-4.2541,-4.2505,-4.2631,-4.0776,-4.032,-4.0878,-3.9827,-3.9259,-3.9145,-3.9576,-4.0265,-4.1063,-4.1677,-4.2398,-4.2821,-4.196,-4.1773,-4.2408,-4.2083,-4.1929,-4.2096,-4.2587,-4.3068,-4.3419,-4.3208,-4.2959,-4.2797,-4.2207,-4.1831,-4.1762,-4.1542,-4.1251,-4.0749,-3.9964,-3.9354,-3.9068,-3.872,-3.8422,-3.8056,-3.7638,-3.7393,-3.7516,-3.7312,-3.7432,-3.7969,-3.7733,-3.8005,-3.8843,-3.895,-3.895,-3.8968,-3.9557,-3.9646,-3.8986,-3.9254,-3.945,-3.9468,-3.9435,-3.9756,-4.0485,-4.0877,-4.1256,-4.1609,-4.2002,-4.2287,-4.2287,-4.2287,-4.2287,-4.2287,-4.1877,-4.1734,-4.2162,-4.1877,-4.1747,-4.208,-4.2246,-4.2246,-4.1967,-4.1026,-4.0488,-4.118,-4.0081,-3.9421,-3.9929,-4.0246,-3.9772,-3.8667,-3.8284,-3.8348,-3.8417,-3.8884,-3.9193,-3.8672,-3.9007,-3.9259,-3.8816,-3.8574,-3.8319,-3.8176,-3.748,-3.6654,-3.6768,-3.6356,-3.596,-3.586,-3.5513,-3.5448,-4.8812,-4.8017,-4.6877,-4.5326,-4.3686,-4.3152,-4.2812,-4.2522,-4.2083,-4.2255,-4.2762,-4.1387,-4.1061,-4.1322,-4.0057,-3.9226,-3.9142,-4.0084,-4.0921,-4.1572,-4.2792,-4.3407,-4.3476,-4.278,-4.2558,-4.2821,-4.2881,-4.3014,-4.3289,-4.358,-4.4089,-4.4464,-4.4071,-4.3822,-4.369,-4.2832,-4.2356,-4.2278,-4.1947,-4.1692,-4.1561,-4.0955,-4.0482,-4.0211,-3.9816,-3.9515,-3.9311,-3.8725,-3.8427,-3.8427,-3.81,-3.8182,-3.8752,-3.8409,-3.8736,-3.9771,-4.0128,-4.0128,-3.995,-4.0307,-4.036,-4.0003,-4.0092,-4.0235,-4.0235,-4.0217,-4.0592,-4.1306,-4.1435,-4.1453,-4.1484,-4.1948,-4.2251,-4.2287,-4.2287,-4.2287,-4.2251,-4.1734,-4.1698,-4.2126,-4.1877,-4.1627,-4.2144,-4.2287,-4.2287,-4.2144,-4.1163,-4.0538,-4.1431,-4.0339,-3.9498,-4.0299,-4.0109,-3.95,-3.8829,-3.8757,-3.8681,-3.8689,-3.9116,-3.9479,-3.8757,-3.9109,-3.9411,-3.8985,-3.9276,-3.9394,-3.909,-3.8371,-3.7253,-3.6738,-3.6208,-3.5661,-3.5197,-3.4949,-3.4932,-4.8917,-4.8122,-4.6519,-4.5048,-4.3719,-4.3622,-4.3233,-4.2571,-4.2506,-4.2925,-4.3455,-4.2865,-4.2555,-4.2397,-4.0411,-3.9727,-4.0508,-4.1352,-4.2562,-4.3871,-4.4231,-4.48,-4.5542,-4.4199,-4.3322,-4.3301,-4.3698,-4.4292,-4.4817,-4.4627,-4.4571,-4.466,-4.4624,-4.4571,-4.4464,-4.3779,-4.3405,-4.322,-4.2445,-4.1909,-4.1874,-4.1839,-4.1339,-4.0647,-4.0506,-4.0179,-3.9487,-3.9311,-3.9276,-3.9258,-3.934,-3.9496,-3.9567,-3.9726,-3.9896,-4.0021,-4.0646,-4.0717,-4.0307,-4.1288,-4.1502,-4.036,-4.0699,-4.1056,-4.1056,-4.106,-4.1364,-4.2126,-4.2126,-4.2144,-4.2144,-4.2198,-4.2287,-4.2287,-4.2287,-4.2287,-4.2287,-4.2198,-4.2234,-4.2287,-4.2198,-4.2162,-4.2269,-4.2287,-4.2287,-4.2162,-4.1556,-4.1127,-4.1127,-4.0467,-3.9982,-3.9975,-3.9723,-3.9008,-3.8611,-3.892,-3.9026,-3.9074,-3.9598,-3.9917,-3.921,-3.8773,-3.9008,-3.9109,-3.924,-3.9493,-3.9767,-3.9177,-3.7753,-3.687,-3.5959,-3.533,-3.5479,-3.5065,-3.5032,-4.8225,-4.7273,-4.583,-4.4852,-4.4334,-4.3427,-4.2877,-4.2587,-4.2571,-4.2912,-4.3337,-4.3193,-4.3166,-4.3182,-4.2364,-4.1664,-4.1393,-4.2809,-4.3957,-4.4652,-4.5435,-4.6068,-4.6318,-4.4803,-4.4396,-4.4896,-4.4489,-4.4945,-4.6088,-4.5659,-4.5641,-4.5963,-4.5606,-4.5374,-4.5249,-4.4607,-4.4,-4.3536,-4.3095,-4.2697,-4.2234,-4.2145,-4.1961,-4.1689,-4.1653,-4.1529,-4.1227,-4.0583,-4.0318,-4.0441,-3.9944,-3.9891,-4.0508,-4.1105,-4.1199,-4.0806,-4.1413,-4.1734,-4.1538,-4.193,-4.2055,-4.1573,-4.168,-4.1823,-4.1859,-4.1899,-4.2007,-4.2216,-4.2287,-4.2287,-4.2287,-4.2287,-4.2287,-4.2287,-4.2287,-4.2287,-4.2287,-4.2287,-4.2287,-4.2287,-4.2287,-4.2287,-4.2269,-4.2287,-4.2287,-4.2216,-4.1609,-4.1413,-4.1538,-4.0788,-4.0289,-4.1016,-4.0842,-4.0334,-4.0301,-3.9765,-3.96,-3.9941,-4.026,-4.0182,-3.974,-4.0083,-4.0383,-3.9701,-3.9576,-3.9709,-4.0063,-3.9041,-3.7803,-3.6837,-3.5909,-3.6025,-3.6324,-3.5876,-3.5661,-4.7836,-4.6799,-4.5856,-4.5322,-4.4998,-4.4075,-4.3395,-4.3022,-4.2974,-4.3186,-4.3623,-4.3748,-4.3917,-4.4233,-4.4502,-4.399,-4.3044,-4.4182,-4.4848,-4.5205,-4.6247,-4.6731,-4.6548,-4.5607,-4.5338,-4.5646,-4.511,-4.5522,-4.6809,-4.6444,-4.6623,-4.7283,-4.6569,-4.632,-4.6355,-4.5534,-4.4732,-4.4303,-4.4,-4.3483,-4.2787,-4.268,-4.2537,-4.2323,-4.2287,-4.2287,-4.2287,-4.1665,-4.1321,-4.1372,-4.0829,-4.0793,-4.1484,-4.2002,-4.2055,-4.1627,-4.1984,-4.2287,-4.2287,-4.2287,-4.2287,-4.2287,-4.2287,-4.2287,-4.2287,-4.2287,-4.2287,-4.2287,-4.2287,-4.2287,-4.2287,-4.2287,-4.2287,-4.2287,-4.2287,-4.2287,-4.2287,-4.2287,-4.2287,-4.2251,-4.2002,-4.2002,-4.2198,-4.2037,-4.2055,-4.2234,-4.1787,-4.1787,-4.1984,-4.152,-4.0949,-4.2002,-4.1787,-4.1535,-4.1349,-4.0919,-4.0424,-4.0625,-4.0775,-4.062,-4.0502,-4.1033,-4.1033,-4.0349,-4.0099,-4.0239,-3.9751,-3.8774,-3.7801,-3.6837,-3.6622,-3.6688,-3.6738,-3.6655,-3.6473,-4.7836,-4.6929,-4.6844,-4.6309,-4.571,-4.5403,-4.482,-4.3735,-4.3589,-4.3789,-4.4226,-4.4593,-4.4906,-4.5499,-4.617,-4.6399,-4.564,-4.5335,-4.5435,-4.5909,-4.6595,-4.6731,-4.6381,-4.6548,-4.6153,-4.5427,-4.562,-4.6221,-4.7051,-4.6962,-4.7265,-4.78,-4.7247,-4.714,-4.8032,-4.6516,-4.5766,-4.5499,-4.4946,-4.4268,-4.3625,-4.35,-4.3161,-4.2465,-4.2376,-4.2358,-4.2305,-4.2251,-4.218,-4.2216,-4.218,-4.2251,-4.2162,-4.2269,-4.2269,-4.2216,-4.2269,-4.2287,-4.2287,-4.2287,-4.2287,-4.2287,-4.2287,-4.2287,-4.2287,-4.2287,-4.2287,-4.2287,-4.2287,-4.2287,-4.2287,-4.2287,-4.2287,-4.2287,-4.2287,-4.2269,-4.2198,-4.2216,-4.2269,-4.2162,-4.1698,-4.152,-4.1877,-4.1805,-4.1698,-4.2109,-4.2198,-4.2144,-4.2269,-4.2037,-4.218,-4.2251,-4.2144,-4.2026,-4.2074,-4.2044,-4.1561,-4.1248,-4.1248,-4.1198,-4.0804,-4.099,-4.0847,-4.0318,-4.0089,-4.0109,-3.9364,-3.8421,-3.8148,-3.7465,-3.7382,-3.7384,-3.7483,-3.7483,-3.7235,-4.7836,-4.688,-4.6342,-4.6018,-4.5662,-4.4787,-4.4075,-4.3734,-4.35,-4.3684,-4.4186,-4.4966,-4.5526,-4.6002,-4.6707,-4.6873,-4.6623,-4.6468,-4.6468,-4.6641,-4.6873,-4.6934,-4.6731,-4.6542,-4.6539,-4.6579,-4.6607,-4.7033,-4.7586,-4.7283,-4.7158,-4.7247,-4.7158,-4.7105,-4.7461,-4.6855,-4.6391,-4.582,-4.557,-4.5053,-4.4339,-4.4268,-4.3911,-4.3215,-4.3126,-4.2894,-4.2341,-4.2287,-4.2287,-4.2287,-4.2287,-4.2287,-4.2287,-4.2287,-4.2287,-4.2287,-4.2287,-4.2287,-4.2287,-4.2287,-4.2287,-4.2287,-4.2287,-4.2287,-4.2287,-4.2287,-4.2287,-4.2287,-4.2287,-4.2287,-4.2287,-4.2287,-4.2287,-4.2287,-4.2287,-4.2073,-4.1645,-4.1109,-4.1252,-4.2002,-4.1591,-4.152,-4.2019,-4.193,-4.193,-4.2198,-4.2287,-4.2287,-4.2287,-4.2287,-4.2287,-4.2287,-4.2287,-4.2287,-4.2246,-4.2187,-4.1917,-4.149,-4.1463,-4.1463,-4.1147,-4.0839,-4.0659,-4.0383,-4.0147,-3.9688,-3.8873,-3.8556,-3.8402,-3.8179,-3.8048,-3.8181,-3.8427,-3.8311,-3.798,-4.7836,-4.6896,-4.639,-4.6034,-4.5743,-4.482,-4.4156,-4.375,-4.3686,-4.381,-4.4179,-4.5091,-4.5976,-4.6622,-4.7222,-4.7426,-4.7426,-4.7444,-4.7265,-4.7033,-4.6998,-4.6998,-4.7033,-4.7021,-4.7307,-4.7904,-4.7927,-4.8104,-4.855,-4.8122,-4.7997,-4.8247,-4.8015,-4.8068,-4.8157,-4.7693,-4.714,-4.6712,-4.6409,-4.5873,-4.5231,-4.5053,-4.4678,-4.4018,-4.3661,-4.3251,-4.2751,-4.2483,-4.2287,-4.2287,-4.2287,-4.2287,-4.2287,-4.2287,-4.2287,-4.2287,-4.2287,-4.2287,-4.2287,-4.2346,-4.2387,-4.2387,-4.2409,-4.2409,-4.2409,-4.2427,-4.2369,-4.2387,-4.2328,-4.2287,-4.2287,-4.2287,-4.2287,-4.2287,-4.2287,-4.2073,-4.1538,-4.1109,-4.1217,-4.193,-4.1591,-4.1609,-4.2019,-4.1948,-4.2019,-4.2162,-4.2287,-4.2287,-4.2287,-4.2287,-4.2287,-4.2287,-4.2287,-4.2287,-4.2287,-4.2228,-4.2187,-4.1856,-4.1534,-4.149,-4.1367,-4.0954,-4.0676,-4.0278,-4.0,-3.9649,-3.8955,-3.9194,-3.9175,-3.8955,-3.8648,-3.8918,-3.9085,-3.8894,-3.8593,-4.7836,-4.6945,-4.6876,-4.6423,-4.5824,-4.5629,-4.4886,-4.3944,-4.4154,-4.4212,-4.4327,-4.5282,-4.6237,-4.7269,-4.7832,-4.8175,-4.8204,-4.8115,-4.7747,-4.7265,-4.7069,-4.7051,-4.7247,-4.7861,-4.8544,-4.9216,-4.9162,-4.9264,-4.9371,-4.9156,-4.9674,-4.9924,-4.9388,-4.9585,-4.9656,-4.8871,-4.8139,-4.7872,-4.7354,-4.6676,-4.5927,-4.5856,-4.5481,-4.4696,-4.4018,-4.359,-4.3322,-4.2697,-4.2287,-4.2287,-4.2287,-4.2287,-4.2287,-4.2287,-4.2287,-4.2287,-4.2287,-4.2328,-4.2346,-4.2405,-4.2503,-4.2486,-4.2548,-4.2609,-4.257,-4.253,-4.249,-4.2445,-4.2387,-4.2328,-4.2287,-4.2287,-4.2287,-4.2287,-4.2162,-4.2073,-4.2251,-4.2073,-4.1877,-4.1984,-4.1663,-4.1395,-4.2126,-4.1716,-4.177,-4.2073,-4.2287,-4.2287,-4.2287,-4.2287,-4.2287,-4.2287,-4.2287,-4.2287,-4.2287,-4.2287,-4.2228,-4.2002,-4.1578,-4.1293,-4.1248,-4.0879,-4.0466,-4.0087,-3.9782,-3.9454,-3.9332,-3.9527,-3.9527,-3.9199,-3.9215,-3.9575,-3.9489,-3.9196,-3.904,-4.7836,-4.6945,-4.6876,-4.6471,-4.5759,-4.5289,-4.474,-4.4207,-4.4135,-4.4339,-4.4737,-4.6222,-4.677,-4.6709,-4.8293,-4.8728,-4.8371,-4.8247,-4.8122,-4.78,-4.7229,-4.739,-4.7907,-4.8657,-4.9442,-5.0031,-4.9727,-4.962,-5.0102,-4.9692,-4.9549,-4.9603,-4.9603,-4.946,-4.9478,-4.9264,-4.871,-4.8247,-4.8032,-4.7479,-4.6819,-4.6676,-4.6284,-4.5517,-4.4749,-4.4089,-4.3518,-4.2715,-4.2287,-4.2287,-4.2287,-4.2287,-4.2287,-4.2287,-4.2287,-4.2328,-4.2328,-4.2346,-4.2445,-4.2486,-4.2544,-4.2588,-4.2609,-4.2609,-4.2609,-4.2609,-4.2548,-4.2503,-4.2445,-4.2405,-4.2346,-4.2287,-4.2287,-4.2216,-4.1895,-4.1752,-4.1984,-4.127,-4.0931,-4.193,-4.1573,-4.1645,-4.1984,-4.2126,-4.2002,-4.2216,-4.2287,-4.2287,-4.2287,-4.2287,-4.2287,-4.2287,-4.2287,-4.2287,-4.2287,-4.2287,-4.2246,-4.2103,-4.1578,-4.0861,-4.0737,-4.0449,-4.0037,-3.9609,-3.9556,-3.9292,-3.9435,-3.9594,-3.9451,-3.9379,-3.9592,-3.9765,-3.9504,-3.9222,-3.9206,-4.7901,-4.7218,-4.7014,-4.6309,-4.5453,-4.5147,-4.4638,-4.4186,-4.4583,-4.4812,-4.5326,-4.7021,-4.7658,-4.7611,-4.9052,-4.9585,-4.9192,-4.9156,-4.88,-4.8175,-4.8068,-4.8264,-4.8764,-4.9442,-5.0227,-5.0887,-5.053,-5.062,-5.0869,-5.0513,-5.0334,-5.0405,-5.0316,-5.0316,-5.0388,-4.9924,-4.962,-4.9192,-4.8835,-4.8282,-4.7568,-4.7497,-4.7051,-4.632,-4.5534,-4.4767,-4.4,-4.3215,-4.2662,-4.2394,-4.2287,-4.2287,-4.2287,-4.2287,-4.2346,-4.2387,-4.2387,-4.2427,-4.2526,-4.2606,-4.2645,-4.2688,-4.2709,-4.2727,-4.2709,-4.2691,-4.2652,-4.2645,-4.257,-4.249,-4.2387,-4.2346,-4.2287,-4.2234,-4.1877,-4.1787,-4.2269,-4.1573,-4.1395,-4.1895,-4.193,-4.1734,-4.2251,-4.2287,-4.2287,-4.2287,-4.2287,-4.2287,-4.2287,-4.2287,-4.2287,-4.2287,-4.2287,-4.2287,-4.2287,-4.2287,-4.2008,-4.1881,-4.1251,-4.0556,-4.0302,-4.007,-3.9747,-3.9415,-3.9325,-3.9325,-3.9468,-3.954,-3.9592,-3.9644,-3.9868,-3.9765,-3.9504,-3.9288,-3.9288,-4.8161,-4.7754,-4.7235,-4.625,-4.531,-4.5454,-4.5049,-4.4245,-4.5274,-4.5661,-4.5924,-4.7614,-4.841,-4.8976,-4.9884,-5.0566,-5.0423,-5.0263,-4.9495,-4.896,-4.8942,-4.9424,-4.9495,-5.0263,-5.0941,-5.1476,-5.1672,-5.1601,-5.153,-5.1547,-5.1619,-5.1458,-5.1512,-5.1619,-5.1333,-5.0905,-5.062,-5.0209,-4.9513,-4.88,-4.8122,-4.7854,-4.7426,-4.6855,-4.607,-4.5302,-4.4589,-4.3929,-4.3364,-4.2632,-4.2507,-4.2453,-4.2417,-4.2328,-4.2387,-4.2486,-4.2486,-4.2508,-4.2609,-4.2706,-4.2783,-4.2804,-4.2862,-4.29,-4.2882,-4.2826,-4.2788,-4.2745,-4.2745,-4.2918,-4.2992,-4.2744,-4.2775,-4.2846,-4.2685,-4.2555,-4.2501,-4.2394,-4.2287,-4.2323,-4.2305,-4.2394,-4.2305,-4.2358,-4.2412,-4.2387,-4.2346,-4.2387,-4.2387,-4.2346,-4.2346,-4.2287,-4.2287,-4.2287,-4.2287,-4.2287,-4.1906,-4.1578,-4.0782,-4.0131,-3.9902,-3.9696,-3.9468,-3.9288,-3.9288,-3.9325,-3.9325,-3.9468,-3.9644,-3.9696,-3.9714,-3.9627,-3.9468,-3.9325,-3.9288,-4.8748,-4.8225,-4.7754,-4.7243,-4.6836,-4.6482,-4.6283,-4.6177,-4.6169,-4.6456,-4.6899,-4.8272,-4.8611,-4.832,-5.036,-5.1119,-5.0602,-5.0495,-4.9942,-4.9335,-4.9888,-5.0227,-5.0388,-5.1012,-5.1476,-5.169,-5.169,-5.169,-5.169,-5.169,-5.169,-5.169,-5.169,-5.169,-5.1637,-5.1476,-5.1083,-5.0495,-4.9745,-4.8978,-4.8193,-4.764,-4.7283,-4.6926,-4.6212,-4.5463,-4.4785,-4.4568,-4.4431,-4.4163,-4.368,-4.3197,-4.279,-4.2562,-4.2566,-4.2641,-4.2606,-4.2627,-4.2763,-4.2856,-4.2858,-4.3025,-4.3118,-4.29,-4.29,-4.2991,-4.2917,-4.293,-4.3325,-4.3862,-4.4209,-4.4301,-4.4056,-4.3924,-4.39,-4.3911,-4.3875,-4.3019,-4.2501,-4.2519,-4.2894,-4.3019,-4.2483,-4.2947,-4.2917,-4.2565,-4.2445,-4.2445,-4.2445,-4.2445,-4.2387,-4.2346,-4.2346,-4.2346,-4.2287,-4.2246,-4.1966,-4.1473,-4.0654,-3.9982,-3.9749,-3.9451,-3.9325,-3.9288,-3.9288,-3.9325,-3.9325,-3.954,-3.9731,-3.9679,-3.9575,-3.954,-3.9468,-3.9379,-3.9288,-4.9057,-4.8685,-4.8,-4.7602,-4.735,-4.7078,-4.6971,-4.7111,-4.7537,-4.7715,-4.8085,-4.9358,-4.9667,-4.9212,-5.0838,-5.1405,-5.1048,-5.0637,-5.0298,-5.0013,-5.0352,-5.0477,-5.0673,-5.1244,-5.169,-5.169,-5.169,-5.169,-5.169,-5.169,-5.169,-5.169,-5.169,-5.169,-5.169,-5.169,-5.1244,-5.0602,-5.0102,-4.9353,-4.8264,-4.78,-4.7329,-4.7017,-4.6373,-4.5783,-4.5925,-4.5574,-4.5491,-4.5347,-4.5066,-4.4492,-4.3625,-4.3001,-4.2825,-4.3174,-4.285,-4.2997,-4.3237,-4.3439,-4.364,-4.3969,-4.4023,-4.4023,-4.4023,-4.4023,-4.4023,-4.4053,-4.4379,-4.4791,-4.5029,-4.4881,-4.4707,-4.4295,-4.4168,-4.3964,-4.3607,-4.3375,-4.3375,-4.3447,-4.3786,-4.3786,-4.3714,-4.3668,-4.3424,-4.3112,-4.2584,-4.2548,-4.2548,-4.2548,-4.2486,-4.2445,-4.2445,-4.2387,-4.2328,-4.2187,-4.2044,-4.149,-4.0828,-4.0278,-3.9952,-3.9627,-3.9342,-3.9288,-3.9288,-3.9288,-3.9325,-3.9592,-3.9662,-3.954,-3.9451,-3.9451,-3.9415,-3.9325,-3.9325,-4.9256,-4.9256,-4.8322,-4.7844,-4.7765,-4.7698,-4.7699,-4.7786,-4.8841,-4.9047,-4.9047,-5.0539,-5.0616,-5.0713,-5.1262,-5.1672,-5.1494,-5.1119,-5.0727,-5.0744,-5.0762,-5.0834,-5.0959,-5.1369,-5.169,-5.169,-5.169,-5.169,-5.169,-5.169,-5.169,-5.169,-5.169,-5.169,-5.169,-5.1672,-5.1315,-5.0584,-5.0191,-4.9495,-4.8454,-4.815,-4.7903,-4.7465,-4.7008,-4.6703,-4.6898,-4.6654,-4.641,-4.641,-4.635,-4.599,-4.5245,-4.4016,-4.33,-4.4159,-4.3671,-4.3746,-4.4147,-4.4313,-4.4548,-4.5273,-4.5254,-4.5236,-4.5182,-4.5091,-4.5055,-4.5182,-4.5305,-4.5558,-4.5549,-4.56,-4.5006,-4.4408,-4.4056,-4.3507,-4.3132,-4.39,-4.4328,-4.4268,-4.4446,-4.4607,-4.4346,-4.4174,-4.3918,-4.3566,-4.3037,-4.2739,-4.2757,-4.2681,-4.2713,-4.2669,-4.2665,-4.2422,-4.2346,-4.2287,-4.2103,-4.1735,-4.1046,-4.0634,-4.0218,-3.9851,-3.9609,-3.9325,-3.9288,-3.9309,-3.9345,-3.9454,-3.9454,-3.9362,-3.9325,-3.9379,-3.9379,-3.9325,-3.9325,-4.9453,-4.9818,-4.9212,-4.9188,-4.9495,-4.9333,-4.9371,-4.9799,-4.9908,-4.9905,-4.992,-5.0385,-5.0695,-5.0727,-5.1333,-5.1672,-5.1637,-5.1422,-5.1405,-5.1405,-5.1405,-5.1387,-5.144,-5.1547,-5.169,-5.169,-5.169,-5.169,-5.169,-5.169,-5.169,-5.169,-5.169,-5.169,-5.169,-5.1637,-5.1191,-5.0352,-4.9817,-4.9026,-4.8511,-4.8325,-4.8263,-4.8066,-4.7743,-4.7625,-4.7381,-4.7299,-4.727,-4.7216,-4.6765,-4.6765,-4.6675,-4.559,-4.5052,-4.4925,-4.4798,-4.4726,-4.5037,-4.511,-4.5164,-4.5273,-4.5454,-4.5417,-4.5399,-4.5399,-4.5599,-4.5671,-4.6051,-4.654,-4.7205,-4.6771,-4.6513,-4.6002,-4.5378,-4.5024,-4.442,-4.4402,-4.4474,-4.4085,-4.4703,-4.5311,-4.4861,-4.4444,-4.4091,-4.3778,-4.3372,-4.3286,-4.3487,-4.3268,-4.3066,-4.3023,-4.292,-4.2624,-4.2346,-4.2287,-4.2187,-4.2061,-4.1525,-4.1013,-4.0577,-4.0186,-3.9868,-3.9468,-3.9382,-3.942,-3.9456,-3.942,-3.9506,-3.9504,-3.9415,-3.9342,-3.9325,-3.9325,-3.9432,-5.004,-5.0359,-4.989,-4.9965,-5.0268,-5.0005,-5.0159,-5.0567,-5.0665,-5.0502,-5.0394,-5.0756,-5.0869,-5.0816,-5.1333,-5.1672,-5.1672,-5.169,-5.169,-5.169,-5.169,-5.169,-5.1637,-5.1654,-5.169,-5.169,-5.169,-5.1672,-5.169,-5.169,-5.169,-5.169,-5.169,-5.169,-5.1565,-5.1244,-5.074,-4.9972,-4.9252,-4.8708,-4.8434,-4.8434,-4.8362,-4.8065,-4.8037,-4.7829,-4.7655,-4.7554,-4.7597,-4.7524,-4.7295,-4.7391,-4.7337,-4.7047,-4.6341,-4.5961,-4.5599,-4.5562,-4.5834,-4.5943,-4.6124,-4.6522,-4.6504,-4.654,-4.654,-4.6595,-4.645,-4.6576,-4.6721,-4.7083,-4.7029,-4.6976,-4.6302,-4.5359,-4.5065,-4.4623,-4.4096,-4.4168,-4.3965,-4.3704,-4.4462,-4.491,-4.497,-4.4545,-4.4232,-4.3935,-4.3671,-4.3855,-4.4144,-4.3818,-4.3472,-4.3192,-4.3055,-4.2665,-4.2346,-4.2205,-4.2187,-4.2061,-4.1683,-4.1174,-4.0689,-4.0203,-3.9782,-3.9362,-3.9401,-3.9439,-3.9385,-3.9345,-3.9504,-3.9592,-3.9415,-3.9325,-3.9342,-3.9395,-3.9432,-5.053,-5.0749,-5.0401,-5.0457,-5.0677,-5.0282,-5.0268,-5.0664,-5.0751,-5.0462,-5.0125,-5.0717,-5.0762,-5.0548,-5.0883,-5.1276,-5.1454,-5.1472,-5.1486,-5.1486,-5.1468,-5.1486,-5.1307,-5.1343,-5.1272,-5.1446,-5.145,-5.1597,-5.169,-5.1758,-5.174,-5.174,-5.174,-5.1758,-5.1633,-5.1343,-5.0408,-4.9513,-4.8998,-4.8631,-4.856,-4.8515,-4.8325,-4.7836,-4.7789,-4.7825,-4.7693,-4.7657,-4.7699,-4.7699,-4.7663,-4.7681,-4.7699,-4.7699,-4.7409,-4.6776,-4.6124,-4.625,-4.6522,-4.6757,-4.6975,-4.7373,-4.7609,-4.7663,-4.7627,-4.7409,-4.7482,-4.7536,-4.7609,-4.7138,-4.6504,-4.6349,-4.5603,-4.4574,-4.4025,-4.3656,-4.3278,-4.3282,-4.357,-4.371,-4.4304,-4.4646,-4.479,-4.4502,-4.4169,-4.4411,-4.4183,-4.4581,-4.4744,-4.4165,-4.3764,-4.3415,-4.3041,-4.2651,-4.2346,-4.2103,-4.2019,-4.1917,-4.1445,-4.0879,-4.0449,-4.002,-3.9644,-3.9362,-3.9325,-3.9329,-3.9342,-3.9412,-3.9537,-3.959,-3.9379,-3.9325,-3.9342,-3.9395,-3.9484,-5.0401,-5.0785,-5.0731,-5.0749,-5.0699,-5.0224,-5.0082,-5.0114,-4.9781,-4.9519,-4.9381,-4.9536,-4.9674,-4.962,-4.9734,-5.0211,-5.0653,-5.088,-5.0946,-5.0946,-5.0928,-5.0623,-5.0114,-4.9934,-5.048,-5.0838,-5.0946,-5.128,-5.1486,-5.1697,-5.1858,-5.1907,-5.1956,-5.2005,-5.1822,-5.1405,-5.109,-4.9775,-4.9475,-4.9199,-4.8748,-4.8728,-4.8717,-4.8634,-4.8525,-4.8272,-4.779,-4.7699,-4.7699,-4.7699,-4.7699,-4.7699,-4.7699,-4.7699,-4.7681,-4.7572,-4.7482,-4.7464,-4.7464,-4.7428,-4.7446,-4.7681,-4.7699,-4.7699,-4.7699,-4.7663,-4.7464,-4.6703,-4.7265,-4.7083,-4.6196,-4.6137,-4.5486,-4.478,-4.409,-4.3707,-4.3198,-4.2946,-4.3201,-4.3563,-4.4101,-4.4534,-4.4841,-4.4444,-4.4159,-4.4451,-4.482,-4.5218,-4.5381,-4.4892,-4.3902,-4.3418,-4.3082,-4.265,-4.2002,-4.1813,-4.1762,-4.1657,-4.1111,-4.0546,-4.0269,-3.9935,-3.9696,-3.9468,-3.9379,-3.9408,-3.9561,-3.9615,-3.9673,-3.9554,-3.9448,-3.9342,-3.9342,-3.9379,-3.9537,-5.0875,-5.0642,-5.0642,-5.0376,-4.9951,-4.9732,-4.9639,-4.9617,-4.9412,-4.9067,-4.8835,-4.9156,-4.9335,-4.9341,-4.9572,-4.9798,-5.0114,-5.025,-5.0214,-5.0232,-5.0196,-5.0016,-4.9837,-4.9711,-4.998,-5.0088,-5.0232,-5.0257,-5.0755,-5.1526,-5.2005,-5.1969,-5.2005,-5.1956,-5.1799,-5.0993,-5.0307,-4.9636,-4.9352,-4.8872,-4.8446,-4.8562,-4.8695,-4.8261,-4.8279,-4.8043,-4.7826,-4.7699,-4.7699,-4.7699,-4.7699,-4.7699,-4.7699,-4.7699,-4.7699,-4.7699,-4.7681,-4.7663,-4.7681,-4.7699,-4.7699,-4.7699,-4.7699,-4.7699,-4.7699,-4.7681,-4.7609,-4.7265,-4.75,-4.7065,-4.625,-4.6323,-4.5761,-4.511,-4.4421,-4.4458,-4.3966,-4.317,-4.3154,-4.3478,-4.3966,-4.465,-4.5102,-4.474,-4.465,-4.5034,-4.5436,-4.5852,-4.6051,-4.5924,-4.4728,-4.334,-4.3036,-4.2732,-4.1895,-4.1293,-4.129,-4.1134,-4.0689,-4.022,-4.007,-3.9833,-3.9556,-3.9415,-3.9325,-3.9458,-3.9748,-3.9664,-3.9534,-3.9501,-3.9501,-3.9395,-3.9342,-3.9537,-3.9677,-5.1012,-4.9977,-5.0334,-5.0049,-4.9299,-4.9121,-4.9032,-4.9014,-4.8764,-4.8389,-4.8204,-4.8501,-4.8816,-4.9052,-4.9198,-4.9415,-4.9469,-4.9712,-4.964,-4.9586,-4.9478,-4.9352,-4.9127,-4.91,-4.9244,-4.9514,-4.9559,-4.9874,-5.0541,-5.1171,-5.182,-5.188,-5.206,-5.2036,-5.1651,-5.1108,-5.043,-4.9802,-4.9216,-4.8562,-4.8025,-4.8297,-4.8188,-4.7916,-4.7717,-4.7699,-4.7699,-4.7699,-4.7699,-4.7699,-4.7699,-4.7699,-4.7699,-4.7699,-4.7699,-4.7699,-4.7699,-4.7699,-4.7699,-4.7699,-4.7699,-4.7699,-4.7699,-4.7699,-4.7699,-4.7699,-4.75,-4.7246,-4.7591,-4.7156,-4.6522,-4.6305,-4.5997,-4.5381,-4.4802,-4.5091,-4.5236,-4.4566,-4.4476,-4.5218,-4.558,-4.5436,-4.5594,-4.5182,-4.52,-4.5599,-4.6015,-4.645,-4.6499,-4.6458,-4.5318,-4.3815,-4.3333,-4.3058,-4.2444,-4.169,-4.1363,-4.0768,-4.0323,-3.9918,-3.9798,-3.9625,-3.9432,-3.9325,-3.9288,-3.9375,-3.9545,-3.9408,-3.9342,-3.9342,-3.9395,-3.9342,-3.9379,-3.9573,-3.9729,-5.037,-4.8461,-4.9906,-4.9995,-4.9192,-4.855,-4.8247,-4.8258,-4.7551,-4.7464,-4.7644,-4.7555,-4.7868,-4.7895,-4.8686,-4.9009,-4.8864,-4.972,-4.9466,-4.9123,-4.8924,-4.8555,-4.8302,-4.8193,-4.8345,-4.8826,-4.9043,-4.982,-5.0787,-5.1067,-5.1293,-5.1264,-5.2004,-5.2173,-5.2072,-5.1658,-5.0867,-5.0127,-4.9267,-4.8659,-4.8116,-4.8025,-4.7953,-4.7935,-4.7808,-4.7735,-4.7735,-4.7935,-4.7898,-4.7898,-4.788,-4.7735,-4.7753,-4.7717,-4.7699,-4.7699,-4.788,-4.7898,-4.7916,-4.7772,-4.7699,-4.7699,-4.7699,-4.7699,-4.7699,-4.7699,-4.7391,-4.7102,-4.7699,-4.7301,-4.654,-4.5979,-4.6631,-4.6377,-4.6178,-4.6269,-4.6395,-4.6106,-4.616,-4.7011,-4.7174,-4.6902,-4.683,-4.654,-4.6142,-4.6486,-4.6445,-4.6843,-4.6506,-4.6331,-4.5533,-4.4467,-4.388,-4.3506,-4.3258,-4.259,-4.1613,-4.0951,-4.0473,-3.9976,-3.9581,-3.9388,-3.9288,-3.9288,-3.9288,-3.9288,-3.9288,-3.9288,-3.9288,-3.9288,-3.9342,-3.9325,-3.9379,-3.9537,-3.9694,-4.987,-4.83,-4.9335,-4.9049,-4.7872,-4.7568,-4.749,-4.7652,-4.7778,-4.8199,-4.8695,-4.8839,-4.891,-4.9045,-4.9197,-4.9242,-4.8916,-4.9123,-4.8894,-4.8405,-4.8098,-4.7971,-4.7717,-4.7772,-4.7898,-4.8297,-4.8659,-4.9039,-4.9691,-5.0814,-5.1249,-5.1493,-5.2062,-5.2203,-5.2221,-5.1878,-5.1022,-5.02,-4.943,-4.8894,-4.9184,-4.8695,-4.8677,-4.9166,-4.9166,-4.9184,-4.9202,-4.9184,-4.8894,-4.8586,-4.846,-4.8242,-4.7953,-4.788,-4.7862,-4.7916,-4.8206,-4.8424,-4.8315,-4.8043,-4.7717,-4.7699,-4.7699,-4.7735,-4.7808,-4.7753,-4.7953,-4.7989,-4.8206,-4.7989,-4.8532,-4.8532,-4.8659,-4.8098,-4.7772,-4.7681,-4.7699,-4.7554,-4.7898,-4.8749,-4.855,-4.817,-4.8152,-4.8134,-4.7699,-4.7373,-4.7259,-4.7127,-4.6744,-4.6329,-4.5612,-4.4876,-4.422,-4.3544,-4.3271,-4.2499,-4.1651,-4.1188,-4.0708,-4.0263,-3.9818,-3.9355,-3.9288,-3.9288,-3.9288,-3.9288,-3.9288,-3.9288,-3.9288,-3.9288,-3.9325,-3.9325,-3.9432,-3.9484,-3.9694,-4.9246,-4.7979,-4.8657,-4.8211,-4.7069,-4.7043,-4.7088,-4.7286,-4.7779,-4.8587,-4.9415,-4.9749,-4.9983,-5.0019,-5.0299,-4.9981,-4.9601,-4.9564,-4.9148,-4.8749,-4.8387,-4.8098,-4.7989,-4.7916,-4.7898,-4.8116,-4.8568,-4.9075,-4.9999,-5.0832,-5.1375,-5.1764,-5.2062,-5.2286,-5.2185,-5.1752,-5.1048,-5.0362,-4.9991,-4.9637,-4.9999,-4.9601,-4.9401,-4.9927,-4.9927,-4.9927,-4.989,-4.9836,-4.9691,-4.9401,-4.9202,-4.8985,-4.8659,-4.8424,-4.8424,-4.8605,-4.8876,-4.9238,-4.9075,-4.8586,-4.8224,-4.855,-4.8242,-4.817,-4.8098,-4.8242,-4.8749,-4.8713,-4.9039,-4.9528,-5.0126,-4.98,-4.9691,-4.9112,-4.8858,-4.8804,-4.9293,-4.942,-4.9908,-5.047,-5.0035,-4.9619,-4.9401,-4.9293,-4.8369,-4.7898,-4.7536,-4.7277,-4.6847,-4.6422,-4.5892,-4.5157,-4.4527,-4.3797,-4.3132,-4.2699,-4.2265,-4.1854,-4.1371,-4.079,-4.0315,-3.9802,-3.9553,-3.9719,-3.9669,-3.9388,-3.9288,-3.9342,-3.9342,-3.9288,-3.9325,-3.9325,-3.9432,-3.9537,-3.9642,-4.8443,-4.7176,-4.7936,-4.7793,-4.7061,-4.7133,-4.7196,-4.7277,-4.7563,-4.8199,-4.9171,-4.9901,-5.0289,-5.0452,-5.1031,-5.0778,-5.0325,-5.0669,-5.0542,-4.9727,-4.9112,-4.8912,-4.8623,-4.8369,-4.8351,-4.8768,-4.9257,-4.9999,-5.0995,-5.1339,-5.1792,-5.2154,-5.2361,-5.2387,-5.2311,-5.2311,-5.1889,-5.1375,-5.1176,-5.0723,-5.0488,-5.0234,-5.0198,-5.0452,-5.0524,-5.0578,-5.0597,-5.0578,-5.0416,-5.0144,-5.0071,-4.9908,-4.9691,-4.9691,-4.9709,-4.98,-4.9927,-5.0071,-5.0053,-4.9347,-4.9329,-4.9546,-4.9112,-4.8912,-4.9039,-4.9365,-4.9673,-4.9528,-4.9745,-5.0071,-5.0198,-5.0234,-5.0379,-5.0325,-5.009,-5.0071,-5.056,-5.0633,-5.0941,-5.1375,-5.1357,-5.1158,-5.0832,-5.0343,-4.9166,-4.8424,-4.7898,-4.7425,-4.7007,-4.6466,-4.5944,-4.5338,-4.4692,-4.4283,-4.3664,-4.3295,-4.2875,-4.2534,-4.2032,-4.1465,-4.0829,-4.0233,-4.0117,-4.0271,-3.9818,-3.9338,-3.9342,-3.9358,-3.957,-3.9818,-3.9371,-3.9325,-3.9432,-3.9484,-3.959,-4.8082,-4.7223,-4.8048,-4.7904,-4.7241,-4.7178,-4.7267,-4.7579,-4.8594,-4.9621,-5.048,-5.1321,-5.1683,-5.181,-5.1756,-5.1611,-5.1086,-5.0959,-5.085,-5.0162,-4.98,-4.9347,-4.9094,-4.9148,-4.9112,-4.9275,-4.9782,-5.0542,-5.123,-5.1747,-5.2164,-5.2462,-5.2572,-5.2434,-5.2452,-5.2452,-5.2235,-5.2009,-5.1647,-5.1339,-5.1556,-5.1212,-5.1149,-5.1602,-5.1556,-5.1584,-5.1502,-5.1466,-5.1285,-5.0959,-5.0886,-5.0705,-5.0361,-5.0253,-5.0198,-5.0307,-5.047,-5.1176,-5.1285,-5.0995,-5.0325,-5.018,-4.9927,-4.9709,-4.9764,-4.989,-5.0126,-5.0434,-5.0633,-5.1067,-5.1574,-5.1683,-5.1756,-5.1647,-5.1466,-5.1411,-5.1574,-5.1285,-5.1339,-5.19,-5.21,-5.1249,-5.0741,-5.0633,-4.9727,-4.9112,-4.8623,-4.7767,-4.7204,-4.6542,-4.5933,-4.539,-4.4895,-4.4635,-4.4232,-4.3742,-4.3545,-4.3263,-4.2798,-4.2244,-4.1541,-4.0796,-4.0519,-4.0558,-3.9906,-3.9288,-3.957,-3.9868,-4.0299,-4.0398,-3.9984,-3.9636,-3.9657,-3.9578,-3.9448,-4.7653,-4.7321,-4.7832,-4.7823,-4.7399,-4.7294,-4.7525,-4.8168,-4.9466,-5.0542,-5.1321,-5.21,-5.2444,-5.2444,-5.2426,-5.2317,-5.1719,-5.1701,-5.1611,-5.0886,-5.0578,-5.0289,-5.009,-4.9963,-4.9927,-4.9999,-5.0597,-5.1375,-5.1819,-5.239,-5.2795,-5.2882,-5.2806,-5.2857,-5.2831,-5.2743,-5.248,-5.2281,-5.2009,-5.1973,-5.2145,-5.2182,-5.21,-5.2363,-5.2509,-5.2599,-5.249,-5.2408,-5.2281,-5.1828,-5.1593,-5.1448,-5.1013,-5.0886,-5.0904,-5.1122,-5.1375,-5.1991,-5.21,-5.2045,-5.1411,-5.1104,-5.0723,-5.0524,-5.0597,-5.0886,-5.0995,-5.1249,-5.152,-5.19,-5.2317,-5.2498,-5.2426,-5.2281,-5.2245,-5.2154,-5.2082,-5.1792,-5.1774,-5.2335,-5.2299,-5.1393,-5.0578,-5.0488,-5.0162,-4.9745,-4.9347,-4.8425,-4.7599,-4.7003,-4.6207,-4.5528,-4.5089,-4.4835,-4.4536,-4.4128,-4.398,-4.3981,-4.3323,-4.2518,-4.2237,-4.1508,-4.1222,-4.0912,-4.0569,-4.0332,-4.0249,-4.0481,-4.0895,-4.0961,-4.068,-4.0332,-4.0034,-3.9889,-3.9723,-4.7302,-4.7302,-4.7302,-4.7443,-4.7511,-4.7511,-4.7987,-4.8931,-4.9727,-5.0524,-5.1357,-5.2136,-5.2498,-5.2498,-5.2498,-5.2444,-5.2371,-5.2371,-5.2299,-5.2118,-5.1602,-5.1267,-5.0923,-5.0695,-5.0732,-5.1031,-5.1466,-5.1864,-5.2454,-5.2813,-5.3203,-5.3505,-5.3429,-5.3488,-5.3465,-5.3457,-5.3034,-5.286,-5.2581,-5.2526,-5.2599,-5.2714,-5.2571,-5.2645,-5.269,-5.269,-5.2618,-5.2462,-5.2462,-5.2371,-5.2371,-5.2408,-5.2408,-5.2462,-5.2462,-5.2444,-5.2389,-5.2426,-5.2444,-5.2335,-5.2335,-5.1955,-5.1647,-5.143,-5.1466,-5.1756,-5.1792,-5.1792,-5.1955,-5.2208,-5.2498,-5.2498,-5.248,-5.2444,-5.2444,-5.2426,-5.2426,-5.2353,-5.2353,-5.2444,-5.2317,-5.1665,-5.0796,-5.0506,-5.0289,-5.0017,-4.9575,-4.9234,-4.8461,-4.7882,-4.7007,-4.5665,-4.5267,-4.5018,-4.4669,-4.4253,-4.4114,-4.3956,-4.3132,-4.2435,-4.227,-4.222,-4.183,-4.1548,-4.1491,-4.1392,-4.1243,-4.1276,-4.1491,-4.1475,-4.1624,-4.1177,-4.0912,-4.058,-4.0486,-4.7407,-4.7468,-4.7554,-4.7615,-4.7657,-4.7657,-4.8127,-4.8967,-4.9764,-5.0524,-5.1339,-5.2136,-5.248,-5.2498,-5.2498,-5.2498,-5.2498,-5.2498,-5.248,-5.2317,-5.2182,-5.1801,-5.1602,-5.1574,-5.1592,-5.1602,-5.1828,-5.219,-5.2527,-5.2919,-5.3363,-5.3604,-5.4255,-5.4443,-5.4702,-5.4914,-5.4275,-5.3672,-5.3298,-5.2955,-5.285,-5.2875,-5.2717,-5.2645,-5.269,-5.2645,-5.2572,-5.2498,-5.2498,-5.2498,-5.2498,-5.2498,-5.2498,-5.2498,-5.248,-5.248,-5.248,-5.2498,-5.2498,-5.2498,-5.2498,-5.2498,-5.2208,-5.2226,-5.2226,-5.2263,-5.2353,-5.2281,-5.2226,-5.2408,-5.2498,-5.2498,-5.2498,-5.2498,-5.2498,-5.2498,-5.2498,-5.2498,-5.248,-5.2371,-5.2245,-5.1629,-5.0796,-5.0379,-5.0162,-4.9999,-4.981,-4.9541,-4.9127,-4.8541,-4.7636,-4.6242,-4.5511,-4.5267,-4.4669,-4.427,-4.4114,-4.3856,-4.3066,-4.2651,-4.2883,-4.2783,-4.2386,-4.217,-4.2104,-4.2121,-4.2137,-4.2204,-4.2253,-4.2783,-4.2932,-4.2319,-4.1773,-4.1425,-4.1272,-4.7554,-4.7615,-4.7657,-4.7699,-4.7753,-4.8043,-4.8641,-4.9383,-4.989,-5.0669,-5.1756,-5.2299,-5.2498,-5.2498,-5.2498,-5.2498,-5.2498,-5.2498,-5.2498,-5.248,-5.2554,-5.2236,-5.2127,-5.2227,-5.2145,-5.21,-5.2154,-5.2426,-5.2736,-5.3561,-5.4142,-5.528,-5.5621,-5.5696,-5.5938,-5.6089,-5.5902,-5.5137,-5.4407,-5.3658,-5.3225,-5.3023,-5.2875,-5.2572,-5.2618,-5.2663,-5.2498,-5.2498,-5.2498,-5.2498,-5.2498,-5.2498,-5.2498,-5.2498,-5.2498,-5.2498,-5.2498,-5.2498,-5.2498,-5.2498,-5.2498,-5.2498,-5.2498,-5.2462,-5.2444,-5.2444,-5.2462,-5.2444,-5.2462,-5.2498,-5.2498,-5.2498,-5.2498,-5.2498,-5.2498,-5.2498,-5.2498,-5.2498,-5.2408,-5.2281,-5.1882,-5.1321,-5.0778,-5.0379,-5.0126,-5.0162,-5.0108,-4.9919,-4.9422,-4.8748,-4.7877,-4.6708,-4.5985,-4.5511,-4.4855,-4.431,-4.4114,-4.3806,-4.3149,-4.2916,-4.333,-4.3197,-4.2684,-4.2601,-4.2667,-4.2734,-4.2816,-4.2932,-4.3065,-4.3495,-4.3678,-4.3256,-4.2659,-4.2318,-4.2216,-4.7699,-4.7717,-4.7699,-4.7772,-4.7916,-4.8586,-4.9365,-5.0144,-5.0253,-5.1031,-5.2281,-5.248,-5.2498,-5.2498,-5.2498,-5.2498,-5.2498,-5.2498,-5.2498,-5.2498,-5.2526,-5.2399,-5.2371,-5.2462,-5.2399,-5.2444,-5.2562,-5.2708,-5.3196,-5.4174,-5.5641,-5.7302,-5.7111,-5.7062,-5.7272,-5.7401,-5.7306,-5.696,-5.5955,-5.5003,-5.385,-5.3496,-5.3363,-5.269,-5.2735,-5.2875,-5.2618,-5.2498,-5.2498,-5.2498,-5.248,-5.2526,-5.2526,-5.2526,-5.2526,-5.2498,-5.2498,-5.2498,-5.2498,-5.2498,-5.2498,-5.2498,-5.2498,-5.2498,-5.2498,-5.2498,-5.2498,-5.2498,-5.2498,-5.2498,-5.2498,-5.2498,-5.2498,-5.2498,-5.2498,-5.2498,-5.2498,-5.2498,-5.2462,-5.2208,-5.1647,-5.1176,-5.1339,-5.0959,-5.0108,-5.0253,-5.0035,-4.9872,-4.9383,-4.8663,-4.7967,-4.6998,-4.6507,-4.585,-4.5108,-4.4614,-4.4212,-4.3781,-4.3215,-4.3098,-4.3462,-4.3264,-4.2932,-4.2999,-4.3115,-4.333,-4.3462,-4.3446,-4.3413,-4.3638,-4.3787,-4.3879,-4.3639,-4.3365,-4.3213,-4.7699,-4.7699,-4.7699,-4.8043,-4.8605,-4.884,-4.9709,-5.0959,-5.1013,-5.152,-5.2353,-5.248,-5.2498,-5.2498,-5.2498,-5.2498,-5.2498,-5.2498,-5.2498,-5.2526,-5.2572,-5.2526,-5.2526,-5.2508,-5.2554,-5.2526,-5.2645,-5.316,-5.4262,-5.5354,-5.6331,-5.7434,-5.7786,-5.8286,-5.8426,-5.8547,-5.8708,-5.8337,-5.7834,-5.6405,-5.483,-5.4073,-5.3708,-5.2981,-5.2699,-5.2699,-5.2534,-5.248,-5.2498,-5.2498,-5.2536,-5.2581,-5.2563,-5.2599,-5.259,-5.2544,-5.2679,-5.2733,-5.2733,-5.277,-5.2788,-5.2661,-5.2625,-5.2534,-5.2498,-5.2498,-5.2498,-5.2516,-5.2498,-5.2498,-5.2498,-5.2498,-5.2498,-5.2498,-5.2498,-5.2498,-5.2498,-5.2498,-5.2498,-5.1973,-5.1411,-5.1357,-5.1538,-5.114,-5.0416,-4.9854,-4.942,-4.9075,-4.8586,-4.8019,-4.7883,-4.7143,-4.6944,-4.631,-4.5511,-4.4944,-4.457,-4.4164,-4.3656,-4.3588,-4.3611,-4.3429,-4.3247,-4.3429,-4.3578,-4.3645,-4.3645,-4.3611,-4.3628,-4.3929,-4.4188,-4.4397,-4.4849,-4.4817,-4.4582,-4.6848,-4.721,-4.7572,-4.7971,-4.8387,-4.8749,-4.9438,-5.0253,-5.0977,-5.1538,-5.1991,-5.2299,-5.2498,-5.2498,-5.2498,-5.2498,-5.2498,-5.2498,-5.2498,-5.2526,-5.2526,-5.2526,-5.2526,-5.2554,-5.2508,-5.2526,-5.2834,-5.3592,-5.5185,-5.6145,-5.6941,-5.8211,-5.8995,-5.9203,-5.926,-5.9639,-5.9677,-5.9241,-5.9216,-5.8019,-5.6125,-5.5377,-5.4393,-5.3499,-5.3023,-5.2915,-5.2562,-5.2508,-5.2536,-5.2763,-5.2999,-5.3244,-5.3426,-5.3654,-5.3671,-5.3697,-5.3686,-5.3548,-5.3541,-5.3487,-5.3487,-5.3497,-5.3559,-5.3711,-5.3261,-5.3225,-5.2842,-5.2806,-5.2534,-5.2498,-5.2498,-5.2498,-5.2498,-5.2498,-5.2498,-5.2498,-5.2498,-5.2498,-5.2208,-5.1665,-5.1104,-5.0651,-5.0651,-5.018,-4.9564,-4.9438,-4.9003,-4.8641,-4.8061,-4.7753,-4.7547,-4.7409,-4.7268,-4.6619,-4.5716,-4.5283,-4.5026,-4.4598,-4.4131,-4.3872,-4.3747,-4.3628,-4.3628,-4.3645,-4.3645,-4.3645,-4.3645,-4.3694,-4.4036,-4.4421,-4.468,-4.5,-4.5563,-4.6051,-4.5774,-4.5816,-4.6576,-4.7373,-4.7808,-4.7953,-4.8605,-4.9039,-4.9365,-5.0506,-5.1194,-5.143,-5.2027,-5.2335,-5.248,-5.2498,-5.2498,-5.2498,-5.2498,-5.2498,-5.2498,-5.2498,-5.2498,-5.2498,-5.248,-5.248,-5.2736,-5.3113,-5.4239,-5.5709,-5.665,-5.7839,-5.946,-5.9847,-5.9885,-5.9885,-5.9937,-5.9823,-5.9798,-5.9601,-5.9068,-5.7922,-5.6772,-5.5417,-5.4428,-5.3802,-5.3476,-5.3052,-5.2735,-5.2808,-5.2953,-5.3326,-5.3407,-5.3772,-5.4055,-5.4391,-5.4389,-5.4542,-5.4615,-5.4742,-5.4687,-5.4854,-5.4963,-5.4985,-5.4713,-5.4143,-5.3725,-5.3324,-5.3015,-5.2744,-5.2498,-5.2544,-5.2498,-5.2498,-5.2498,-5.2498,-5.2498,-5.2498,-5.2498,-5.2027,-5.152,-5.1122,-5.0578,-5.009,-4.9601,-4.9293,-4.913,-4.8768,-4.8333,-4.8007,-4.7898,-4.7741,-4.7836,-4.7867,-4.7062,-4.6077,-4.6014,-4.5954,-4.505,-4.4654,-4.4171,-4.3822,-4.3704,-4.3645,-4.3645,-4.3645,-4.3694,-4.3761,-4.3903,-4.4295,-4.494,-4.5661,-4.6116,-4.6354,-4.6759,-4.6785,-4.578,-4.6576,-4.7373,-4.8061,-4.8623,-4.884,-4.9257,-4.9836,-5.0108,-5.0651,-5.1203,-5.143,-5.1828,-5.2498,-5.2498,-5.2526,-5.2599,-5.2572,-5.2526,-5.2498,-5.2572,-5.2526,-5.2526,-5.2572,-5.2498,-5.279,-5.3357,-5.4451,-5.5505,-5.6874,-5.8041,-5.89,-5.9677,-5.9861,-5.988,-5.9931,-5.9982,-5.9994,-5.9944,-5.9555,-5.8765,-5.7593,-5.6338,-5.545,-5.4701,-5.464,-5.435,-5.3852,-5.3727,-5.3644,-5.3478,-5.3412,-5.3687,-5.4172,-5.4547,-5.4911,-5.5083,-5.5356,-5.5429,-5.5502,-5.5603,-5.5595,-5.5502,-5.5283,-5.4765,-5.4273,-5.39,-5.3454,-5.3145,-5.269,-5.2572,-5.2526,-5.2526,-5.2498,-5.2498,-5.2498,-5.2498,-5.2498,-5.2299,-5.2154,-5.2027,-5.152,-5.1067,-5.0597,-5.0162,-4.9872,-4.9293,-4.8858,-4.8315,-4.8134,-4.8043,-4.8283,-4.8504,-4.7696,-4.6912,-4.7213,-4.7049,-4.6075,-4.5191,-4.4809,-4.4361,-4.3694,-4.3678,-4.4059,-4.3926,-4.3843,-4.391,-4.4284,-4.4857,-4.5544,-4.668,-4.7322,-4.7443,-4.7554,-4.7571]}]]